[[{"header":{"parameterUnit":"m.s-1","parameterCategory":1,"la1":30.6,"la2":29.2853,"lo1":-89.7004,"lo2":-87.6739,"dy":0.0162,"dx":0.0183,"nx":112,"ny":82,"refTime":"2026-04-04T00:00:00:Z","depth":0,"parameterNumber":2,"parameterNumberName":"U-component_of_WINDS"},"data":[0.0,0.0,0.0,0.0,0.0,0.0,0.0,0.0,0.0,0.0,0.0,0.0,0.0,0.0,0.0,0.0,0.0,0.0,0.0,0.0,0.0,0.0,0.0,0.0,0.0,0.0,0.0,0.0,0.0,0.0,0.0,0.0,0.0,0.0,0.0,0.0,0.0,0.0,0.0,0.0,0.0,0.0,0.0,0.0,0.0,0.0,0.0,0.0,0.0,0.0,0.0,0.0,0.0,0.0,0.0,0.0,0.0,0.0,0.0,0.0,0.0,0.0,0.0,0.0,0.0,0.0,0.0,0.0,0.0,0.0,0.0,0.0,0.0,0.0,0.0,0.0,0.0,0.0,0.0,0.0,0.0,0.0,0.0,0.0,0.0,0.0,0.0,0.0,0.0,0.0,0.0,0.0,0.0,0.0,0.0,0.0,0.0,0.0,0.0,0.0,0.0,0.0,0.0,0.0,0.0,0.0,0.0,0.0,0.0,0.0,0.0,0.0,0.0,0.0,0.0,0.0,0.0,0.0,0.0,0.0,0.0,0.0,0.0,0.0,0.0,0.0,0.0,0.0,0.0,0.0,0.0,0.0,0.0,0.0,0.0,0.0,0.0,0.0,0.0,0.0,0.0,0.0,0.0,0.0,0.0,0.0,0.0,0.0,0.0,0.0,0.0,0.0,0.0,0.0,0.0,0.0,0.0,0.0,0.0,0.0,0.0,0.0,0.0,0.0,0.0,0.0,0.0,0.0,0.0,0.0,0.0,0.0,0.0,0.0,0.0,0.0,0.0,0.0,0.0,0.0,0.0,0.0,0.0,0.0,0.0,0.0,0.0,0.0,0.0,0.0,0.0,0.0,0.0,0.0,0.0,0.0,0.0,0.0,0.0,0.0,0.0,0.0,0.0,0.0,0.0,0.0,0.0,0.0,0.0,0.0,0.0,0.0,0.0,0.0,0.0,0.0,0.0,0.0,0.0,0.0,0.0,0.0,0.0,0.0,0.0,0.0,0.0,0.0,0.0,0.0,0.0,0.0,0.0,0.0,0.0,0.0,0.0,0.0,0.0,0.0,0.0,0.0,0.0,0.0,0.0,0.0,0.0,0.0,0.0,0.0,0.0,0.0,0.0,0.0,0.0,0.0,0.0,0.0,0.0,0.0,0.0,0.0,0.0,0.0,0.0,0.0,0.0,0.0,0.0,0.0,0.0,0.0,0.0,0.0,0.0,0.0,0.0,0.0,0.0,0.0,0.0,0.0,0.0,0.0,0.0,0.0,0.0,0.0,0.0,0.0,0.0,0.0,0.0,0.0,0.0,0.0,0.0,0.0,0.0,0.0,0.0,0.0,0.0,0.0,0.0,0.0,0.0,0.0,0.0,0.0,0.0,0.0,0.0,0.0,0.0,0.0,0.0,0.0,0.0,0.0,0.0,0.0,0.0,0.0,0.0,0.0,0.0,0.0,0.0,0.0,0.0,0.0,0.0,0.0,0.0,0.0,0.0,0.0,0.0,0.0,0.0,0.0,0.0,0.0,0.0,0.0,0.0,0.0,0.0,0.0,0.0,0.0,0.0,0.0,0.0,0.0,0.0,0.0,0.0,0.0,0.0,0.0,0.0,0.0,0.0,0.0,0.0,0.0,0.0,0.0,0.0,0.0,0.0,0.0,0.0,0.0,0.0,0.0,0.0,0.0,0.0,0.0,0.0,0.0,0.0,0.0,0.0,0.0,0.0,0.0,0.0,0.0,0.0,0.0,0.0,0.0,0.0,0.0,0.0,0.0,0.0,0.0,0.0,0.0,0.0,0.0,0.0,0.0,0.0,0.0,0.0,0.0,0.0,0.0,0.0,0.0,0.0,0.0,0.0,0.0,0.0,0.0,0.0,0.0,0.0,0.0,0.0,0.0,0.0,0.0,0.0,0.0,0.0,0.0,0.0,0.0,0.0,0.0,0.0,0.0,0.0,0.0,0.0,0.0,0.0,0.0,0.0,0.0,0.0,0.0,0.0,0.0,0.0,0.0,0.0,0.0,0.0,0.0,0.0,0.0,0.0,0.0,0.0,0.0,0.0,0.0,0.0,0.0,0.0,0.0,0.0,0.0,0.0,0.0,0.0,0.0,0.0,0.0,0.0,0.0,0.0,0.0,0.0,0.0,0.0,0.0,0.0,0.0,0.0,0.0,0.0,0.0,0.0,0.0,0.0,0.0,0.0,0.0,0.0,0.0,0.0,0.0,0.0,0.0,0.0,0.0,0.0,0.0,0.0,0.0,0.0,0.0,0.0,0.0,0.0,0.0,0.0,0.0,0.0,0.0,0.0,0.0,0.0,0.0,0.0,0.0,0.0,0.0,0.0,0.0,0.0,0.0,0.0,0.0,0.0,0.0,0.0,0.0,0.0,0.0,0.0,0.0,0.0,0.0,0.0,0.0,0.0,0.0,0.0,0.0,0.0,0.0,0.0,0.0,0.0,0.0,0.0,0.0,0.0,0.0,0.0,0.0,0.0,0.0,0.0,0.0,0.0,0.0,0.0,0.0,0.0,0.0,0.0,0.0,0.0,0.0,0.0,0.0,0.0,0.0,0.0,0.0,0.0,0.0,0.0,0.0,0.0,0.0,0.0,0.0,0.0,0.0,0.0,0.0,0.0,0.0,0.0,0.0,0.0,0.0,0.0,0.0,0.0,0.0,0.0,0.0,0.0,0.0,0.0,0.0,0.0,0.0,0.0,0.0,0.0,0.0,0.0,0.0,0.0,0.0,0.0,0.0,0.0,0.0,0.0,0.0,0.0,0.0,0.0,0.0,0.0,0.0,0.0,0.0,0.0,0.0,0.0,0.0,0.0,0.0,0.0,0.0,0.0,0.0,0.0,0.0,0.0,0.0,0.0,0.0,0.0,0.0,0.0,0.0,0.0,0.0,0.0,0.0,0.0,0.0,0.0,0.0,0.0,0.0,0.0,0.0,0.0,0.0,0.0,0.0,0.0,0.0,0.0,0.0,0.0,0.0,0.0,0.0,0.0,0.0,0.0,0.0,0.0,0.0,0.0,0.0,0.0,0.0,0.0,0.0,0.0,0.0,0.0,0.0,0.0,0.0,0.0,0.0,0.0,0.0,0.0,0.0,0.0,0.0,0.0,0.0,0.0,0.0,0.0,0.0,0.0,0.0,0.0,0.0,0.0,0.0,0.0,0.0,0.0,0.0,0.0,0.0,0.0,0.0,0.0,0.0,0.0,0.0,0.0,0.0,0.0,0.0,0.0,0.0,0.0,0.0,0.0,0.0,0.0,0.0,0.0,0.0,0.0,0.0,0.0,0.0,0.0,0.0,0.0,0.0,0.0,0.0,0.0,0.0,0.0,0.0,0.0,0.0,0.0,0.0,0.0,0.0,0.0,0.0,0.0,0.0,0.0,0.0,0.0,0.0,0.0,0.0,0.0,0.0,0.0,0.0,0.0,0.0,0.0,0.0,0.0,0.0,0.0,0.0,0.0,0.0,0.0,0.0,0.0,0.0,0.0,0.0,0.0,0.0,0.0,0.0,0.0,0.0,0.0,0.0,0.0,0.0,0.0,0.0,0.0,0.0,0.0,0.0,0.0,0.0,0.0,0.0,0.0,0.0,0.0,0.0,0.0,0.0,0.0,0.0,0.0,0.0,0.0,0.0,0.0,0.0,0.0,0.0,0.0,0.0,0.0,0.0,0.0,0.0,0.0,0.0,0.0,0.0,0.0,0.0,0.0,0.0,0.0,0.0,0.0,0.0,0.0,0.0,0.0,0.0,0.0,0.0,0.0,0.0,0.0,0.0,0.0,0.0,0.0,0.0,0.0,0.0,0.0,0.0,0.0,0.0,0.0,0.0,0.0,0.0,0.0,0.0,0.0,0.0,0.0,0.0,0.0,0.0,0.0,0.0,0.0,0.0,0.0,0.0,0.0,0.0,0.0,0.0,0.0,0.0,0.0,0.0,0.0,0.0,0.0,0.0,0.0,0.0,0.0,0.0,0.0,0.0,0.0,0.0,0.0,0.0,0.0,0.0,0.0,0.0,0.0,0.0,0.0,0.0,0.0,0.0,0.0,0.0,0.0,0.0,0.0,0.0,0.0,0.0,0.0,0.0,0.0,0.0,0.0,0.0,0.0,0.0,0.0,0.0,0.0,0.0,0.0,0.0,0.0,0.0,0.0,0.0,0.0,0.0,0.0,0.0,0.0,0.0,0.0,0.0,0.0,0.0,0.0,0.0,0.0,0.0,0.0,0.0,0.0,0.0,0.0,0.0,0.0,0.0,0.0,0.0,0.0,0.0,0.0,0.0,0.0,0.0,0.0,0.0,0.0,0.0,0.0,0.0,0.0,0.0,0.0,0.0,0.0,0.0,0.0,0.0,0.0,0.0,0.0,0.0,0.0,0.0,0.0,0.0,0.0,0.0,0.0,0.0,0.0,0.0,0.0,0.0,0.0,0.0,0.0,0.0,0.0,0.0,0.0,0.0,0.0,0.0,0.0,0.0,0.0,0.0,0.0,0.0,0.0,0.0,0.0,0.0,0.0,0.0,0.0,0.0,0.0,0.0,0.0,0.0,0.0,0.0,0.0,0.0,0.0,0.0,0.0,0.0,0.0,0.0,0.0,0.0,0.0,0.0,0.0,0.0,0.0,0.0,0.0,0.0,0.0,0.0,0.0,0.0,0.0,0.0,0.0,0.0,0.0,0.0,0.0,0.0,0.0,0.0,0.0,0.0,0.0,0.0,0.0,0.0,0.0,0.0,0.0,0.0,0.0,0.0,0.0,0.0,0.0,0.0,0.0,0.0,0.0,0.0,0.0,0.0,0.0,0.0,0.0,0.0,0.0,0.0,0.0,0.0,0.0,0.0,0.0,0.0,0.0,0.0,0.0,0.0,0.0,0.0,0.0,0.0,0.0,0.0,0.0,0.0,0.0,0.0,0.0,0.0,0.0,0.0,0.0,0.0,0.0,0.0,0.0,0.0,0.0,0.0,0.0,0.0,0.0,0.0,0.0,0.0,0.0,0.0,0.0,0.0,0.0,0.0,0.0,0.0,0.0,0.0,0.0,0.0,0.0,0.0,0.0,0.0,0.0,0.0,0.0,0.0,0.0,0.0,0.0,0.0,0.0,0.0,0.0,0.0,0.0,0.0,0.0,0.0,0.0,0.0,0.0,0.0,0.0,0.0,0.0,0.0,0.0,0.0,0.0,0.0,0.0,0.0,0.0,0.0,0.0,0.0,0.0,0.0,0.0,0.0,0.0,0.0,0.0,0.0,0.0,0.0,0.0,0.0,0.0,0.0,0.0,0.0,0.0,0.0,0.0,0.0,0.0,0.0,0.0,0.0,0.0,0.0,0.0,0.0,0.0,0.0,0.0,0.0,0.0,0.0,0.0,0.0,0.0,0.0,0.0,0.0,0.0,0.0,0.0,0.0,0.0,0.0,0.0,0.0,0.0,0.0,0.0,0.0,0.0,0.0,0.0,0.0,0.0,0.0,0.0,0.0,0.0,0.0,0.0,0.0,0.0,0.0,0.0,0.0,0.0,0.0,0.0,0.0,0.0,0.0,0.0,0.0,0.0,0.0,0.0,0.0,0.0,0.0,0.0,0.0,0.0,0.0,0.0,0.0,0.0,0.0,0.0,0.0,0.0,0.0,0.0,0.0,0.0,0.0,-0.0416,0.0,0.0,0.0,0.0,0.0,0.0,0.0,0.0,0.0,0.0,0.0,0.0,0.0,0.0,0.0,0.0,0.0,0.0,0.0,0.0,0.0,0.0,0.0,0.0,0.0,0.0,0.0,0.0,0.0,0.0,0.0,0.0,0.0,0.0,0.0,0.0,0.0,0.0,0.0,0.0,0.0,0.0,0.0,0.0,0.0,0.0,0.0,0.0,0.0,0.0,0.0,0.0,0.0,0.0,0.0,0.0,0.0,0.0,0.0,0.0,0.0,0.0,0.0,0.0,0.0,0.0,0.0,0.0,0.0,0.0,0.0,0.0,0.0,0.0,0.0,0.0,0.0,0.0,0.0,0.0,0.0,0.0,0.0,0.0,0.0,0.0,0.0,0.0,0.0,0.0,0.0,0.0,0.0,0.0,0.0,0.0,0.0,0.0,0.0,0.0,0.0,0.0,0.0,0.0,0.0,0.0,0.0,0.0,0.0,0.0,0.0,0.0,-0.0787,0.0,0.0,0.0,0.0,0.0,0.0,0.0,0.0,0.0,0.0,0.0,0.0,0.0,0.0,0.0,0.0,0.0,0.0,0.0,0.0,0.0,0.0,0.0,0.0,0.0,0.0,0.0,0.0,0.0,0.0,0.0,0.0,0.0,0.0,0.0,0.0,0.0,0.0,0.0,0.0,0.0,0.0,0.0,0.0,0.0,0.0,0.0,0.0,0.0,0.0,0.0,0.0,0.0,0.0,0.0,0.0,0.0,0.0,0.0,0.0,0.0,0.0,0.0,0.0,0.0,0.0,0.0,0.0,0.0,0.0,0.0,0.0,0.0,0.0,0.0,0.0,0.0,0.0,0.0,0.0,0.0,0.0,0.0,0.0,0.0,0.0,0.0,0.0,0.0,0.0,0.0,0.0,0.0,0.0,0.0,0.0,0.0,0.0,0.0,0.0,0.0,0.0,0.0,0.0,-0.1436,-0.0977,-0.0913,-0.0274,-0.0139,-0.0421,-0.0971,-0.0832,-0.0232,-0.0903,0.0,0.0,0.0,0.0,0.0,0.0,0.0,0.0,0.0,0.0,0.0,0.0,0.0,0.0,0.0,0.0,0.0,0.0,0.0,0.0,0.0,0.0,0.0,0.0,0.0,0.0,0.0,0.0,0.0,0.0,0.0,0.0,0.0,0.0,0.0,0.0,0.0,0.0,0.0,0.0,0.0,0.0,0.0,0.0,0.0,0.0,0.0,0.0,0.0,0.0,0.0,0.0,0.0,0.0,0.0,0.0,0.0,0.0,0.0,0.0,0.0,0.0,0.0,0.0,0.0,0.0,0.0,0.0,0.0,0.0,0.0,0.0,0.0,0.0,0.0,0.0,0.0,0.0,0.0,0.0,0.0,0.0,-0.2565,-0.2412,0.0,0.0,0.0,0.0,0.0,0.0,0.0,0.0,0.0,0.0,0.0,0.0,0.0,-0.2727,-0.2921,-0.3025,-0.2874,-0.2515,-0.1856,-0.1323,-0.0978,-0.0311,0.0,-0.0106,-0.063,0.0,-0.0933,-0.0782,0.0,0.0,0.0,0.0,0.0,0.0,0.0,0.0,0.0,0.0,0.0,0.0,0.0,0.0,0.0,0.0,0.0,0.0,0.0,0.0,0.0,0.0,0.0,0.0,0.0,0.0,0.0,0.0,0.0,0.0,0.0,0.0,0.0,0.0,0.0,0.0,0.0,0.0,0.0,0.0,0.0,0.0,0.0,0.0,0.0,0.0,0.0,0.0,0.0,0.0,0.0,0.0,0.0,0.0,0.0,0.0,0.0,0.0,0.0,0.0,0.0,0.0,0.0,0.0,0.0,0.0,0.0,0.0,0.0,0.0,0.0,0.0,0.0,0.0,0.0,0.0,0.0,0.0,0.0,0.0,0.0,-0.3582,-0.3472,-0.3517,-0.2698,-0.212,0.0,0.0,0.0,0.0,0.0,0.0,0.0,0.0,0.0,-0.2856,-0.2995,-0.3138,-0.3287,-0.344,-0.3485,-0.3305,-0.2267,-0.1718,-0.1501,-0.0463,0.0,0.0,-0.0235,-0.04,-0.0486,-0.0651,-0.0517,-0.0222,0.0,0.0,0.0,0.0,-0.1323,-0.1607,-0.2254,-0.2435,0.0,-0.2373,0.0,0.0,0.0,0.0,0.0,0.0,0.0,0.0,0.0,0.0,0.0,0.0,0.0,0.0,0.0,0.0,0.0,0.0,0.0,0.0,0.0,0.0,0.0,0.0,0.0,0.0,0.0,0.0,0.0,0.0,0.0,0.0,0.0,0.0,0.0,0.0,0.0,0.0,0.0,0.0,0.0,0.0,0.0,0.0,0.0,0.0,0.0,0.0,0.0,0.0,0.0,0.0,0.0,0.0,0.0,0.0,0.0,0.0,0.0,0.0,0.0,0.0,0.0,0.0,0.0,0.0,0.0,0.0,0.0,-0.483,-0.4517,-0.4638,-0.3323,-0.2408,0.0,0.0,0.0,0.0,0.0,0.0,-0.2822,-0.2916,-0.3046,-0.3217,-0.3354,-0.3489,-0.3625,-0.3754,-0.3848,-0.3904,-0.2762,-0.2227,-0.2246,-0.1062,-0.0562,-0.0563,-0.0566,-0.0563,-0.055,-0.056,-0.0367,0.0,0.0,-0.0091,-0.0274,-0.1053,-0.1485,-0.1854,-0.2688,-0.3046,-0.3092,-0.2972,-0.2148,-0.1277,-0.1223,0.0,0.0,0.0,0.0,0.0,0.0,0.0,0.0,0.0,0.0,0.0,0.0,0.0,0.0,0.0,0.0,0.0,0.0,0.0,0.0,0.0,0.0,0.0,0.0,0.0,0.0,0.0,0.0,0.0,0.0,0.0,0.0,0.0,0.0,0.0,0.0,0.0,0.0,0.0,0.0,0.0,0.0,0.0,0.0,0.0,0.0,0.0,0.0,0.0,0.0,0.0,0.0,0.0,0.0,0.0,0.0,0.0,0.0,0.0,0.0,0.0,0.0,0.0,0.0,0.0,0.0,0.0,0.0,-0.5535,-0.3887,0.0,0.0,0.0,0.0,-0.2833,-0.3002,-0.3124,-0.3147,-0.329,-0.3408,-0.3562,-0.3656,-0.375,-0.3902,-0.3907,-0.3908,-0.3967,-0.334,-0.3048,-0.3026,-0.2381,-0.206,-0.2062,-0.2077,-0.2058,-0.1884,-0.0603,0.0,0.0,0.0,-0.0259,-0.067,-0.0779,-0.1529,-0.2475,-0.2563,-0.301,-0.3406,-0.2802,-0.1773,-0.0726,-0.0652,-0.0319,0.0,0.0,0.0,0.0,0.0,0.0,0.0,0.0,0.0,0.0,0.0,0.0,0.0,0.0,0.0,0.0,0.0,0.0,0.0,0.0,0.0,0.0,0.0,0.0,0.0,0.0,0.0,0.0,0.0,0.0,0.0,0.0,0.0,0.0,0.0,0.0,0.0,0.0,0.0,0.0,0.0,0.0,0.0,0.0,0.0,0.0,0.0,0.0,0.0,0.0,0.0,0.0,0.0,0.0,0.0,0.0,0.0,0.0,0.0,0.0,0.0,0.0,0.0,0.0,0.0,0.0,0.0,-0.7018,-0.4732,0.0,-0.3133,-0.3017,-0.3029,-0.321,-0.335,-0.3471,-0.3572,-0.3681,-0.3786,-0.3876,-0.3949,-0.4009,-0.4061,-0.4103,-0.4135,-0.409,-0.3441,-0.3189,-0.3139,-0.2488,-0.2226,-0.2226,-0.2231,-0.2158,-0.2139,-0.1585,-0.1347,-0.1349,-0.1301,-0.1391,-0.1609,-0.1993,-0.2395,-0.2826,-0.3269,-0.3564,-0.3566,-0.2999,-0.246,-0.1889,-0.1075,-0.0704,-0.0499,-0.0102,0.0,0.0,0.0,0.0,0.0,0.0,0.0,0.0,0.0,0.0,0.0,0.0,0.0,0.0,0.0,0.0,0.0,0.0,0.0,0.0,0.0,0.0,0.0,0.0,0.0,0.0,0.0,0.0,0.0,0.0,0.0,0.0,0.0,0.0,0.0,0.0,0.0,0.0,0.0,0.0,0.0,0.0,0.0,0.0,0.0,0.0,0.0,0.0,0.0,0.0,0.0,0.0,0.0,0.0,0.0,0.0,0.0,0.0,0.0,0.0,0.0,0.0,0.0,-0.9635,-0.8678,-0.8469,-0.5891,-0.4077,-0.3837,-0.3519,-0.3425,-0.3527,-0.3643,-0.3739,-0.3813,-0.39,-0.3916,-0.3974,-0.409,-0.4135,-0.4173,-0.4215,-0.4233,-0.4233,-0.3779,-0.3586,-0.3586,-0.3121,-0.2921,-0.2921,-0.2921,-0.2919,-0.291,-0.2882,-0.2818,-0.273,-0.2224,-0.2019,-0.2077,-0.2472,-0.2771,-0.3039,-0.3711,-0.3772,-0.3488,-0.3061,-0.2776,-0.239,-0.1567,-0.1158,-0.0874,-0.0442,-0.0167,0.0,0.0,0.0,0.0,0.0,0.0,0.0,0.0,0.0,0.0,0.0,0.0,0.0,0.0,0.0,0.0,0.0,0.0,0.0,0.0,0.0,0.0,0.0,0.0,0.0,0.0,0.0,0.0,0.0,0.0,0.0,0.0,0.0,0.0,0.0,0.0,0.0,0.0,0.0,0.0,0.0,0.0,0.0,0.0,0.0,0.0,0.0,0.0,0.0,0.0,0.0,0.0,0.0,0.0,0.0,0.0,0.0,0.0,0.0,0.0,0.0,-1.2296,-1.154,-1.0798,-0.9935,-0.7406,-0.5539,-0.496,-0.4173,-0.3719,-0.3779,-0.3895,-0.388,-0.3907,-0.3874,-0.3916,-0.3978,-0.4072,-0.4114,-0.4177,-0.4302,-0.4334,-0.4334,-0.4296,-0.4309,-0.4309,-0.4309,-0.4309,-0.4309,-0.4309,-0.4292,-0.4331,-0.4331,-0.4247,-0.4077,-0.2683,-0.2148,-0.2145,-0.2066,-0.251,-0.3219,-0.3788,-0.3598,-0.3151,-0.304,-0.2594,-0.203,-0.2,-0.156,-0.1013,-0.0953,-0.0474,0.0,0.0,0.0,0.0,0.0,0.0,0.0,0.0,0.0,0.0,0.0,0.0,0.0,0.0,0.0,0.0,0.0,0.0,0.0,0.0,0.0,0.0,0.0,0.0,0.0,0.0,0.0,0.0,0.0,0.0,0.0,0.0,0.0,0.0,0.0,0.0,0.0,0.0,0.0,0.0,0.0,0.0,0.0,0.0,0.0,0.0,0.0,0.0,0.0,0.0,0.0,0.0,0.0,0.0,0.0,0.0,0.0,0.0,0.0,-1.3919,-1.4666,-1.4276,-1.3802,-1.3199,-1.2497,-0.9484,-0.7271,-0.6593,-0.4994,-0.4012,-0.403,-0.4065,-0.4072,-0.4037,-0.4003,-0.4009,-0.4072,-0.4082,-0.4135,-0.424,-0.432,-0.4352,-0.4397,-0.4404,-0.433,-0.4309,-0.4309,-0.4309,-0.4309,-0.4309,-0.4305,-0.4296,-0.4274,-0.426,-0.4242,-0.3776,-0.3609,-0.3525,-0.3498,-0.362,-0.3818,-0.3984,-0.3928,-0.3814,-0.3774,-0.3626,-0.3288,-0.2323,-0.1868,-0.1546,-0.0529,-0.0116,0.0,0.0,0.0,0.0,0.0,0.0,0.0,0.0,0.0,0.0,0.0,0.0,0.0,0.0,0.0,0.0,0.0,0.0,0.0,0.0,0.0,0.0,0.0,0.0,0.0,0.0,0.0,0.0,0.0,0.0,0.0,0.0,0.0,0.0,0.0,0.0,0.0,0.0,0.0,0.0,0.0,0.0,0.0,0.0,0.0,0.0,0.0,0.0,0.0,0.0,0.0,0.0,0.0,0.0,0.0,0.0,0.0,0.0,0.0,-1.533,-1.6341,-1.6578,-1.6044,-1.5269,-1.4283,-1.1706,-0.9618,-0.8713,-0.7007,-0.5921,-0.5921,-0.6007,-0.5856,-0.5451,-0.5119,-0.479,-0.4529,-0.4225,-0.4155,-0.4331,-0.4365,-0.4403,-0.4372,-0.4372,-0.4358,-0.4327,-0.4316,-0.4309,-0.4309,-0.4309,-0.4309,-0.4309,-0.4292,-0.4281,0.0,0.0,0.0,0.0,0.0,-0.4106,-0.4086,-0.4079,-0.3897,-0.3651,-0.3623,-0.3414,-0.3011,-0.2211,-0.1807,-0.1418,-0.0637,-0.0228,0.0,0.0,0.0,0.0,0.0,0.0,0.0,0.0,0.0,0.0,0.0,0.0,0.0,0.0,0.0,0.0,0.0,0.0,0.0,0.0,0.0,0.0,0.0,0.0,0.0,0.0,0.0,0.0,0.0,0.0,0.0,0.0,0.0,0.0,0.0,0.0,0.0,0.0,0.0,0.0,0.0,0.0,0.0,0.0,0.0,0.0,0.0,0.0,0.0,0.0,0.0,0.0,0.0,0.0,0.0,0.0,0.0,0.0,0.0,-1.6558,-1.7806,-1.8786,-1.8187,-1.7161,-1.5923,-1.4053,-1.2466,-1.1318,-0.9896,-0.9052,-0.9057,-0.9057,-0.8677,-0.7904,-0.6958,0.0,0.0,0.0,-0.4184,-0.4341,-0.439,-0.4432,-0.4403,-0.4403,-0.439,-0.4426,-0.433,-0.432,-0.432,-0.432,-0.4316,-0.4313,-0.4313,-0.4313,-0.4302,-0.4247,-0.4222,-0.4218,-0.4191,-0.4146,-0.4103,-0.4131,0.0,0.0,-0.3144,-0.2688,-0.2101,-0.1914,-0.1445,-0.1,-0.0918,-0.0448,0.0,0.0,0.0,0.0,0.0,0.0,0.0,0.0,0.0,0.0,0.0,0.0,0.0,0.0,0.0,0.0,0.0,0.0,0.0,0.0,0.0,0.0,0.0,0.0,0.0,0.0,0.0,0.0,0.0,0.0,0.0,0.0,0.0,0.0,0.0,0.0,0.0,0.0,0.0,0.0,0.0,0.0,0.0,0.0,0.0,0.0,0.0,0.0,0.0,0.0,0.0,0.0,0.0,0.0,0.0,0.0,0.0,0.0,-1.6216,-1.7297,-1.8321,-1.9405,-1.9709,-1.9587,-1.876,-1.7078,-1.5746,-1.5076,-1.3292,-1.2291,-1.2361,-1.2361,-1.2018,-1.1191,-0.9216,-0.7852,-0.713,-0.5177,-0.4247,-0.4404,-0.4432,-0.4463,-0.4365,-0.4365,0.0,-0.439,-0.4386,-0.4383,-0.4383,-0.4383,-0.4369,-0.4413,-0.4413,-0.433,-0.4305,-0.4271,-0.4253,-0.4249,-0.4222,-0.4202,-0.4193,-0.4202,-0.4069,-0.387,-0.3322,-0.2989,-0.2648,-0.1568,-0.1101,0.0,-0.035,-0.0114,0.0,0.0,0.0,0.0,0.0,0.0,0.0,0.0,0.0,0.0,0.0,0.0,0.0,0.0,0.0,0.0,0.0,0.0,0.0,0.0,0.0,0.0,0.0,0.0,0.0,0.0,0.0,0.0,0.0,0.0,0.0,0.0,0.0,0.0,0.0,0.0,0.0,0.0,0.0,0.0,0.0,0.0,0.0,0.0,0.0,0.0,0.0,0.0,0.0,0.0,0.0,0.0,0.0,0.0,-1.3966,-1.4713,0.0,-1.6456,-1.7283,-1.8111,-1.8938,-1.9766,-2.0451,-2.0627,-1.9915,-1.8772,-1.7842,-1.7367,-1.6027,-1.5297,-1.546,-1.546,-1.4932,-1.3767,-1.1918,-1.0397,-0.9312,-0.7481,-0.6399,-0.6082,-0.5772,-0.5387,-0.5021,-0.4589,-0.4365,-0.4421,-0.4407,-0.4401,-0.4401,-0.4401,-0.4392,-0.4376,-0.4429,-0.4337,-0.4309,-0.4292,-0.4278,-0.4327,-0.4247,-0.4233,-0.4218,-0.4218,-0.3954,-0.3621,-0.3282,-0.2681,-0.1947,-0.1266,-0.0803,-0.0423,-0.0118,0.0,0.0,0.0,0.0,0.0,0.0,0.0,0.0,0.0,0.0,0.0,0.0,0.0,0.0,0.0,0.0,0.0,0.0,0.0,0.0,0.0,0.0,0.0,0.0,0.0,0.0,0.0,0.0,0.0,0.0,0.0,0.0,0.0,0.0,0.0,0.0,0.0,0.0,0.0,0.0,0.0,0.0,0.0,0.0,0.0,0.0,0.0,0.0,0.0,0.0,0.0,-1.2718,-1.2982,-1.3905,-1.4801,-1.556,-1.6112,-1.6795,-1.7507,-1.8091,-1.8762,-1.9434,-2.0051,-2.0756,-2.1007,-2.0482,-1.9942,-1.9478,-1.9181,-1.8628,-1.8354,-1.8474,-1.8485,-1.79,-1.6502,-1.4926,-1.3469,-1.2116,-1.049,-0.9387,-0.868,-0.7664,-0.68,-0.6028,-0.4951,-0.4452,-0.4448,-0.4428,-0.4417,-0.4417,-0.441,-0.4407,-0.4407,-0.4376,-0.4347,-0.4327,-0.4327,-0.4313,-0.4289,-0.4278,-0.4257,-0.4236,-0.4236,-0.3839,-0.3374,-0.3105,-0.2237,-0.1239,-0.0959,-0.0501,0.0,0.0,0.0,0.0,0.0,0.0,0.0,0.0,0.0,0.0,0.0,0.0,0.0,0.0,0.0,0.0,0.0,0.0,0.0,0.0,0.0,0.0,0.0,0.0,0.0,0.0,0.0,0.0,0.0,0.0,0.0,0.0,0.0,0.0,0.0,0.0,0.0,0.0,0.0,0.0,0.0,0.0,0.0,0.0,0.0,0.0,-0.9849,-1.0826,-1.2338,-1.301,-1.3804,-1.4376,0.0,-1.4658,-1.5018,-1.5676,-1.6415,-1.7005,-1.7209,-1.7541,-1.7935,-1.8409,-1.8884,-1.9468,-2.0207,-2.0824,-2.1145,-2.108,-2.1256,-2.1411,-2.1497,-2.1569,-2.1634,-2.1787,-2.1738,-2.1379,-2.0601,-1.8553,-1.6964,-1.6199,-1.3988,-1.2539,-1.1793,-0.9786,-0.8333,-0.7561,-0.5461,-0.4484,-0.4484,-0.448,-0.4477,-0.4477,-0.4448,-0.4369,-0.4365,-0.4407,-0.4392,-0.439,-0.439,-0.4386,-0.4379,-0.4323,-0.4302,-0.4298,-0.4298,-0.4231,-0.3959,-0.2733,-0.2194,-0.1856,-0.0522,-0.0064,0.0,0.0,0.0,0.0,0.0,0.0,0.0,0.0,0.0,0.0,0.0,0.0,0.0,0.0,0.0,0.0,0.0,0.0,0.0,0.0,0.0,0.0,0.0,0.0,0.0,0.0,0.0,0.0,0.0,0.0,0.0,0.0,0.0,0.0,0.0,0.0,0.0,0.0,0.0,0.0,0.0,0.0,0.0,0.0,0.0,0.0,-1.1307,-1.2271,-1.362,-1.4489,-1.5438,-1.6212,-1.6344,-1.6479,-1.6761,-1.7277,-1.7894,-1.8355,-1.8335,-1.8498,-1.8728,-1.9006,-1.9359,-1.98,-2.0363,-2.0967,-2.1245,-2.098,-2.098,-2.1143,-2.1462,-2.1631,-2.1815,-2.2059,-2.2235,-2.1985,-2.1218,-1.9903,-1.8851,-1.8089,-1.6759,-1.5444,-1.427,-1.2446,-1.0988,-0.9731,-0.7981,-0.7146,-0.7146,-0.7146,-0.6658,-0.5746,-0.5313,-0.4807,-0.4372,-0.4428,-0.4414,-0.4401,-0.4417,-0.4414,-0.4397,-0.4352,-0.4066,-0.3723,-0.3642,-0.3433,-0.2959,-0.2415,-0.1938,-0.1464,-0.086,-0.0328,0.0,0.0,0.0,0.0,0.0,0.0,0.0,0.0,0.0,0.0,0.0,0.0,0.0,0.0,0.0,0.0,0.0,0.0,0.0,0.0,0.0,0.0,0.0,0.0,0.0,0.0,0.0,0.0,0.0,0.0,0.0,0.0,0.0,0.0,0.0,0.0,0.0,0.0,0.0,0.0,0.0,0.0,0.0,0.0,0.0,0.0,-1.2556,-1.3532,-1.4692,-1.575,-1.6761,-1.7568,-1.7826,-1.7872,-1.8057,-1.8375,-1.8816,-1.9094,-1.8959,-1.9006,-1.9149,-1.9393,-1.9712,-2.0085,-2.0539,-2.1023,-2.1279,-2.0824,-2.0594,-2.0573,-2.0824,-2.1123,-2.1455,-2.1794,-2.2147,-2.2054,-2.1507,-2.1023,-2.0457,-1.9903,-1.9418,-1.8516,-1.7197,-1.5513,-1.3987,-1.2728,-1.0988,-1.0214,-1.0214,-1.001,-0.8965,-0.7286,-0.6518,-0.5522,-0.4456,-0.4456,-0.4441,-0.4425,-0.4446,-0.4303,-0.4145,-0.4115,-0.3754,-0.3263,-0.3044,-0.263,-0.2154,-0.1952,-0.1543,-0.1069,-0.0869,-0.04,0.0,0.0,0.0,0.0,0.0,0.0,0.0,0.0,0.0,0.0,0.0,0.0,0.0,0.0,0.0,0.0,0.0,0.0,0.0,0.0,0.0,0.0,0.0,0.0,0.0,0.0,0.0,0.0,0.0,0.0,0.0,0.0,0.0,0.0,0.0,0.0,0.0,0.0,0.0,0.0,0.0,0.0,0.0,0.0,0.0,0.0,-1.3193,-1.4462,-1.5622,-1.668,-1.7616,-1.8321,-1.842,-1.862,-1.8786,-1.88,-1.8884,-1.8959,-1.8854,-1.8841,-1.8918,-1.9359,-1.98,-2.0261,-2.0702,-2.1157,-2.1279,-2.0824,-2.0505,-2.0227,-1.9942,-2.058,-2.1197,-2.1705,-2.2093,-2.2268,-2.2268,-2.2268,-2.2199,-2.2199,-2.2199,-2.179,-2.1004,-1.884,-1.7384,-1.6615,-1.4318,-1.327,-1.327,-1.2516,-1.0978,-0.8887,-0.8051,-0.6514,-0.4488,-0.4488,-0.4484,-0.4484,-0.4488,-0.4066,-0.3432,-0.3339,-0.3305,-0.3197,-0.2449,-0.2234,-0.2086,-0.1346,-0.1144,-0.0942,-0.0269,0.0,0.0,0.0,0.0,0.0,0.0,0.0,0.0,0.0,0.0,0.0,0.0,0.0,0.0,0.0,0.0,0.0,0.0,0.0,0.0,0.0,0.0,0.0,0.0,0.0,0.0,0.0,0.0,0.0,0.0,0.0,0.0,0.0,0.0,0.0,0.0,0.0,0.0,0.0,0.0,0.0,0.0,0.0,0.0,0.0,0.0,0.0,-1.393,-1.5188,-1.6402,-1.7453,-1.8389,-1.9115,-1.9359,-1.9535,-1.9569,-1.9271,-1.9006,-1.8875,-1.8841,-1.882,-1.8997,-1.9501,-2.0207,-2.0756,-2.0892,-2.1319,-2.1353,-2.0702,-2.0261,-1.9908,-1.961,-2.0085,-2.0539,-2.0892,-2.153,-2.1937,-2.2025,-2.2235,-2.2268,-2.2268,-2.2268,-2.1985,-2.1218,-1.9972,-1.8996,-1.8233,-1.6492,-1.5657,-1.5583,-1.336,-1.134,-0.9661,-0.7848,-0.6098,-0.4488,-0.4488,-0.4488,-0.4491,-0.4508,-0.4015,-0.3367,-0.2813,-0.2302,-0.1791,-0.1578,-0.1163,-0.0682,-0.0475,-0.0339,-0.0339,-0.0067,0.0,0.0,0.0,0.0,0.0,0.0,0.0,0.0,0.0,0.0,0.0,0.0,0.0,0.0,0.0,0.0,0.0,0.0,0.0,0.0,0.0,0.0,0.0,0.0,0.0,0.0,0.0,0.0,0.0,0.0,0.0,0.0,0.0,0.0,0.0,0.0,0.0,0.0,0.0,0.0,0.0,0.0,0.0,0.0,0.0,0.0,0.0,-1.4863,-1.6171,-1.7311,-1.8253,-1.904,-1.9644,-1.9834,-1.9942,-1.9854,-1.9237,-1.8674,-1.8287,-1.8287,-1.8233,-1.8521,-1.9291,-2.0227,-2.0878,-2.098,-2.1333,-2.1353,-2.0702,-2.0275,-1.9888,-1.9556,-1.9732,-2.001,-2.03,-2.1034,-2.155,-2.1794,-2.2147,-2.2268,-2.2268,-2.2268,-2.2054,-2.1576,-2.1148,-2.0664,-2.0186,-1.8938,-1.7961,-1.7127,-1.4622,-1.2105,-0.9591,-0.7848,-0.6098,-0.4488,-0.4488,-0.4488,-0.4491,-0.4508,-0.3871,-0.2949,-0.2467,-0.1615,-0.0696,-0.0692,-0.0413,0.0,0.0,0.0,0.0,0.0,0.0,0.0,0.0,0.0,0.0,0.0,0.0,0.0,0.0,0.0,0.0,0.0,0.0,0.0,0.0,0.0,0.0,0.0,0.0,0.0,0.0,0.0,0.0,0.0,0.0,0.0,0.0,0.0,0.0,0.0,0.0,0.0,0.0,0.0,0.0,0.0,0.0,0.0,0.0,0.0,0.0,0.0,0.0,0.0,0.0,0.0,0.0,-1.6035,-1.7263,-1.8335,-1.9061,-1.9576,-1.9888,-1.9888,-1.9888,-1.961,-1.8687,-1.7894,-1.7351,-1.7351,-1.7236,-1.7534,-1.8762,-1.9854,-2.0597,-2.0967,-2.1265,-2.1285,-2.0845,-2.0526,-2.0187,-1.9752,-1.9556,-1.9624,-2.0085,-2.0668,-2.1177,-2.1638,-2.2093,-2.2268,-2.2268,-2.2268,-2.2268,-2.2268,-2.2268,-2.2268,-2.2268,-2.1501,-2.0029,-1.7933,-1.6278,-1.3139,-0.8887,-0.8121,-0.6514,-0.4488,-0.4488,-0.4488,-0.4488,-0.4488,-0.3505,-0.2175,-0.2175,-0.1262,0.0,0.0,0.0,0.0,0.0,0.0,0.0,0.0,0.0,0.0,0.0,0.0,0.0,0.0,0.0,0.0,0.0,0.0,0.0,0.0,0.0,0.0,0.0,0.0,0.0,0.0,0.0,0.0,0.0,0.0,0.0,0.0,0.0,0.0,0.0,0.0,0.0,0.0,0.0,0.0,0.0,0.0,0.0,0.0,0.0,0.0,0.0,0.0,0.0,0.0,0.0,0.0,0.0,0.0,0.0,-1.727,-1.8355,-1.9217,-1.9746,-2.0051,-2.0207,-2.0207,-2.0031,-1.9556,-1.843,-1.7256,-1.6422,-1.6422,-1.6395,-1.6829,-1.8267,-1.9746,-2.079,-2.0967,-2.1353,-2.1475,-2.1143,-2.0845,-2.058,-2.0349,-1.9888,-1.9786,-2.0241,-2.0614,-2.1021,-2.1475,-2.197,-2.2268,-2.2268,-2.2268,-2.2268,-2.2268,-2.2268,-2.2268,-2.2268,-2.1023,-1.9827,-1.8638,-1.5444,-1.2457,-0.9661,-0.7778,-0.6028,-0.4488,-0.4488,-0.4488,-0.4418,-0.3929,-0.3087,-0.2105,-0.1613,-0.0772,0.0,0.0,0.0,0.0,0.0,0.0,0.0,0.0,0.0,0.0,0.0,0.0,0.0,0.0,0.0,0.0,0.0,0.0,0.0,0.0,0.0,0.0,0.0,0.0,0.0,0.0,0.0,0.0,0.0,0.0,0.0,0.0,0.0,0.0,0.0,0.0,0.0,0.0,0.0,0.0,0.0,0.0,0.0,0.0,0.0,0.0,0.0,0.0,0.0,0.0,0.0,0.0,0.0,0.0,0.0,-1.8199,-1.9149,-1.9888,-2.0139,-2.0315,-2.0329,-1.9948,-1.959,-1.8905,-1.7582,-1.6239,-1.5316,-1.5384,-1.5445,-1.6029,-1.767,-1.9305,-2.0451,-2.0682,-2.1034,-2.1197,-2.0946,-2.0716,-2.056,-2.0539,-2.0241,-2.0173,-2.0505,-2.0614,-2.0892,-2.1341,-2.1936,-2.2268,-2.2268,-2.2268,-2.2268,-2.2268,-2.2268,-2.2268,-2.2268,-2.1148,-1.9833,-1.843,-1.5657,-1.2678,-0.9556,-0.7949,-0.6205,-0.4526,-0.4512,-0.4297,-0.3941,-0.3581,-0.274,-0.1691,-0.1269,-0.0635,0.0,0.0,0.0,0.0,0.0,0.0,0.0,0.0,0.0,0.0,0.0,0.0,0.0,0.0,0.0,0.0,0.0,0.0,0.0,0.0,0.0,0.0,0.0,0.0,0.0,0.0,0.0,0.0,0.0,0.0,0.0,0.0,0.0,0.0,0.0,0.0,0.0,0.0,0.0,0.0,0.0,0.0,0.0,0.0,0.0,0.0,0.0,0.0,0.0,0.0,0.0,0.0,0.0,0.0,0.0,-1.8959,-1.9746,-2.03,-2.0383,-2.0388,-2.0246,-1.9522,-1.8796,-1.7825,-1.6381,-1.4984,-1.4089,-1.4272,-1.4496,-1.5188,-1.7012,-1.8708,-1.9908,-2.0207,-2.0492,-2.0648,-2.0462,-2.0383,-2.032,-2.0573,-2.0614,-2.0702,-2.0878,-2.077,-2.0912,-2.1441,-2.2025,-2.2268,-2.2268,-2.2268,-2.2268,-2.2268,-2.2268,-2.2268,-2.2268,-2.1576,-2.0167,-1.8147,-1.6561,-1.3536,-0.9538,-0.8694,-0.7104,-0.5075,-0.4977,-0.4536,-0.3821,-0.366,-0.2678,-0.1415,-0.1205,-0.064,0.0,0.0,0.0,0.0,0.0,0.0,0.0,0.0,0.0,0.0,0.0,0.0,0.0,0.0,0.0,0.0,0.0,0.0,0.0,0.0,0.0,0.0,0.0,0.0,0.0,0.0,0.0,0.0,0.0,0.0,0.0,0.0,0.0,0.0,0.0,0.0,0.0,0.0,0.0,0.0,0.0,0.0,0.0,0.0,0.0,0.0,0.0,0.0,0.0,0.0,0.0,0.0,0.0,0.0,0.0,-1.9888,-2.0295,-2.0539,-2.0668,-2.0526,-2.0098,-1.9115,-1.799,-1.6632,-1.5133,-1.3661,-1.2759,-1.32,-1.3799,-1.4733,-1.6408,-1.8267,-1.9569,-1.9752,-2.0031,-2.0261,-2.0349,-2.0227,-2.0349,-2.0878,-2.1034,-2.1211,-2.1496,-2.1496,-2.1516,-2.1618,-2.2072,-2.2268,-2.2268,-2.2268,-2.2268,-2.2268,-2.2268,-2.2268,-2.2268,-2.1576,-2.0664,-1.9619,-1.7539,-1.5221,-1.2715,-1.1313,0.0,-0.7506,-0.7499,-0.697,-0.6088,-0.4879,-0.3806,-0.2881,-0.1555,-0.0638,0.0,0.0,0.0,0.0,0.0,0.0,0.0,0.0,0.0,0.0,0.0,0.0,0.0,0.0,0.0,0.0,0.0,0.0,0.0,0.0,0.0,0.0,0.0,0.0,0.0,0.0,0.0,0.0,0.0,0.0,0.0,0.0,0.0,0.0,0.0,0.0,0.0,0.0,0.0,0.0,0.0,0.0,0.0,0.0,0.0,0.0,0.0,0.0,0.0,0.0,0.0,0.0,0.0,0.0,0.0,-2.0275,-2.0614,-2.0736,-2.058,-2.0261,-1.9624,-1.831,-1.6781,-1.5303,-1.3878,-1.2483,-1.1701,-1.2074,-1.2752,-1.377,-1.5289,-1.7161,-1.8498,-1.8796,-1.9237,-1.961,-1.9834,-1.9875,-2.0139,-2.0824,-2.1157,-2.1421,-2.1652,-2.174,-2.1815,-2.1903,-2.2181,-2.2268,-2.2268,-2.2268,-2.2268,-2.2268,-2.2268,-2.2268,-2.2268,-2.1915,-2.1576,-2.1218,-1.9758,-1.7973,-1.5886,-1.4756,-1.2853,-1.0524,-1.0493,-0.9816,-0.8566,-0.702,-0.545,-0.3894,-0.2265,-0.0996,0.0,0.0,0.0,0.0,0.0,0.0,0.0,0.0,0.0,0.0,0.0,0.0,0.0,0.0,0.0,0.0,0.0,0.0,0.0,0.0,0.0,0.0,0.0,0.0,0.0,0.0,0.0,0.0,0.0,0.0,0.0,0.0,0.0,0.0,0.0,0.0,0.0,0.0,0.0,0.0,0.0,0.0,0.0,0.0,0.0,0.0,0.0,0.0,0.0,0.0,0.0,0.0,0.0,0.0,0.0,-2.0471,-2.079,-2.0878,-2.0404,-1.9875,-1.9065,-1.7256,-1.554,-1.3889,-1.2578,-1.1387,-1.0691,-1.1084,-1.1735,-1.2705,-1.4167,-1.5934,-1.7256,-1.7738,-1.8355,-1.8884,-1.9237,-1.9447,-1.9875,-2.0648,-2.1157,-2.1509,-2.1706,-2.1882,-2.2038,-2.2147,-2.2269,-2.2268,-2.2268,-2.2268,-2.2268,-2.2268,-2.2268,-2.2268,-2.2268,-2.2268,-2.2288,-2.2322,-2.1609,-2.0288,-1.8615,-1.7704,-1.589,-1.3518,-1.3302,-1.2401,-1.1087,-0.941,-0.7477,-0.5424,-0.3629,-0.1932,-0.0505,-0.0288,-0.0144,0.0,0.0,0.0,0.0,0.0,0.0,0.0,0.0,0.0,0.0,0.0,0.0,0.0,0.0,0.0,0.0,0.0,0.0,0.0,0.0,0.0,0.0,0.0,0.0,0.0,0.0,0.0,0.0,0.0,0.0,0.0,0.0,0.0,0.0,0.0,0.0,0.0,0.0,0.0,0.0,0.0,0.0,0.0,0.0,0.0,0.0,0.0,0.0,0.0,0.0,0.0,0.0,-2.0627,-2.0878,-2.0858,-2.0275,-1.9488,-1.8301,-1.6252,-1.4248,-1.253,-1.1327,-1.0263,-0.97,-1.0276,-1.0907,-1.1812,-1.3281,-1.4962,-1.6198,-1.6736,-1.7507,-1.8235,-1.8762,-1.9081,-1.959,-2.0471,-2.1089,-2.1497,-2.1848,-2.2127,-2.2303,-2.2254,-2.2268,-2.2268,-2.2268,-2.2268,-2.2268,-2.2268,-2.2268,-2.2268,-2.2268,-2.2268,-2.2411,-2.2534,-2.176,-2.101,-2.0406,-1.8908,-1.7397,0.0,-1.5191,-1.4344,-1.3407,-1.1883,-1.0263,-0.8503,-0.6253,-0.4039,-0.2023,-0.1308,-0.058,0.0,0.0,0.0,0.0,0.0,0.0,0.0,0.0,0.0,0.0,0.0,0.0,0.0,0.0,0.0,0.0,0.0,0.0,0.0,0.0,0.0,0.0,0.0,0.0,0.0,0.0,0.0,0.0,0.0,0.0,0.0,0.0,0.0,0.0,0.0,0.0,0.0,0.0,0.0,0.0,0.0,0.0,0.0,0.0,0.0,0.0,0.0,0.0,0.0,0.0,0.0,0.0,-2.0193,-2.0614,-2.0682,-1.9888,-1.8884,-1.7568,-1.5506,-1.3484,-1.1739,-1.0758,-0.9924,-0.9512,-0.9815,-1.0358,-1.1131,-1.2271,-1.3688,-1.4882,-1.5581,-1.6551,-1.7385,-1.7894,-1.8375,-1.8993,-1.9739,-2.0485,-2.1177,-2.1828,-2.216,-2.2268,-2.2268,-2.2268,-2.2268,-2.2268,-2.2268,-2.2268,-2.2268,-2.2268,-2.2268,-2.2268,-2.2268,-2.2141,-2.1849,-2.1577,-2.1169,-2.0644,-2.0073,-1.9284,0.0,-1.8031,-1.7432,-1.6584,-1.5017,-1.3447,-1.1766,-0.8894,-0.611,-0.3537,-0.2318,-0.1016,0.0,0.0,0.0,0.0,0.0,0.0,0.0,0.0,0.0,0.0,0.0,0.0,0.0,0.0,0.0,0.0,0.0,0.0,0.0,0.0,0.0,0.0,0.0,0.0,0.0,0.0,0.0,0.0,0.0,0.0,0.0,0.0,0.0,0.0,0.0,0.0,0.0,0.0,0.0,0.0,0.0,0.0,0.0,0.0,0.0,0.0,0.0,0.0,0.0,0.0,0.0,0.0,-1.9556,-2.0187,-2.0404,-1.9413,-1.821,-1.6811,-1.4816,-1.2855,-1.124,-1.0385,-0.9768,-0.9429,-0.9585,-0.9985,-1.0575,-1.1394,-1.251,-1.3607,-1.4455,-1.556,-1.6432,-1.7026,-1.7623,-1.8301,-1.9035,-2.0023,-2.1021,-2.1828,-2.216,-2.2268,-2.2268,-2.2268,-2.2268,-2.2268,-2.2268,-2.2268,-2.2268,-2.2268,-2.2268,-2.2268,-2.2054,-2.1787,-2.1367,-2.1202,-2.1002,-2.0715,-2.0544,-2.018,0.0,-1.9553,-1.9125,-1.8475,-1.6867,-1.5309,-1.3646,-1.0428,-0.7274,-0.4485,-0.2823,-0.1308,0.0,0.0,0.0,0.0,0.0,0.0,0.0,0.0,0.0,0.0,0.0,0.0,0.0,0.0,0.0,0.0,0.0,0.0,0.0,0.0,0.0,0.0,0.0,0.0,0.0,0.0,0.0,0.0,0.0,0.0,0.0,0.0,0.0,0.0,0.0,0.0,0.0,0.0,0.0,0.0,0.0,0.0,0.0,0.0,0.0,0.0,0.0,0.0,0.0,0.0,0.0,0.0,-1.8762,-1.9657,-2.0044,-1.8792,-1.7595,-1.6162,-1.4072,-1.2359,-1.0989,-1.0177,-0.9693,-0.9429,-0.9585,-0.9697,-1.0042,-1.0799,-1.1592,-1.2486,-1.3457,-1.4543,-1.5479,-1.6232,-1.6842,-1.7555,-1.84,-2.0031,-2.1245,-2.1828,-2.216,-2.2268,-2.2268,-2.2268,-2.2268,-2.2268,-2.2268,-2.2268,-2.2268,-2.2268,-2.2268,-2.2268,-2.1576,-2.1301,-2.1367,-2.0805,-2.0587,-2.0662,-2.0083,-1.9847,0.0,-1.8975,-1.862,-1.8475,-1.6869,-1.5349,-1.3602,-1.0482,-0.7356,-0.4446,-0.2845,-0.1313,0.0,0.0,0.0,0.0,0.0,0.0,0.0,0.0,0.0,0.0,0.0,0.0,0.0,0.0,0.0,0.0,0.0,0.0,0.0,0.0,0.0,0.0,0.0,0.0,0.0,0.0,0.0,0.0,0.0,0.0,0.0,0.0,0.0,0.0,0.0,0.0,0.0,0.0,0.0,0.0,0.0,0.0,0.0,0.0,0.0,0.0,0.0,0.0,0.0,0.0,0.0,0.0,-1.7242,-1.8111,-1.8565,-1.7561,-1.649,-1.5235,-1.3559,-1.1972,-1.0704,-1.013,-0.9744,-0.9551,-0.9598,-0.9697,-0.9967,-1.0548,-1.1179,-1.2006,-1.3159,-1.4482,-1.5581,-1.6232,-1.7372,-1.8423,-1.9223,-2.0329,-2.1245,-2.1828,-2.216,-2.2268,-2.2268,-2.2268,-2.2268,-2.2268,-2.2268,-2.2054,-2.1576,-2.1576,-2.1293,-2.0809,-2.0526,-2.0247,-1.9904,-1.9665,-1.9442,-1.9156,-1.8909,-1.8903,-1.8975,-1.8698,-1.862,-1.8475,-1.6869,-1.5349,-1.3602,-1.0482,-0.7356,-0.4444,-0.2842,-0.1313,0.0,0.0,0.0,0.0,0.0,0.0,0.0,0.0,0.0,0.0,0.0,0.0,0.0,0.0,0.0,0.0,0.0,0.0,0.0,0.0,0.0,0.0,0.0,0.0,0.0,0.0,0.0,0.0,0.0,0.0,0.0,0.0,0.0,0.0,0.0,0.0,0.0,0.0,0.0,0.0,0.0,0.0,0.0,0.0,0.0,0.0,0.0,0.0,0.0,0.0,0.0,0.0,-1.5479,-1.6483,-1.6965,-1.6117,-1.5248,-1.4238,-1.2847,-1.1592,-1.0562,-1.0109,-0.9825,-0.9686,-0.9686,-0.9778,-0.9988,-1.0358,-1.0819,-1.1579,-1.2827,-1.4245,-1.5608,-1.6836,-1.8002,-1.8952,-1.965,-2.0471,-2.1245,-2.1828,-2.216,-2.2268,-2.2268,-2.2268,-2.2199,-2.1915,-2.1915,-2.1646,-2.1218,-2.0947,-2.0526,-2.0116,-1.9845,-1.9465,-1.9129,-1.89,-1.8592,-1.8299,-1.8353,-1.8413,0.0,-1.8186,-1.7864,-1.7464,-1.5656,-1.3863,-1.1854,-0.9028,-0.6189,-0.3642,-0.2334,-0.1094,0.0,0.0,0.0,0.0,0.0,0.0,0.0,0.0,0.0,0.0,0.0,0.0,0.0,0.0,0.0,0.0,0.0,0.0,0.0,0.0,0.0,0.0,0.0,0.0,0.0,0.0,0.0,0.0,0.0,0.0,0.0,0.0,0.0,0.0,0.0,0.0,0.0,0.0,0.0,0.0,0.0,0.0,0.0,0.0,0.0,0.0,0.0,0.0,0.0,0.0,0.0,0.0,0.0,-1.474,-1.5255,-1.457,-1.3953,-1.3186,-1.2016,-1.1171,0.0,-1.0103,-0.9886,-0.9778,-0.9792,-0.9913,-1.0076,-1.0283,-1.0568,-1.1212,-1.2578,-1.4011,-1.5771,-1.7948,-1.8708,-1.9237,-1.9759,-2.0526,-2.1265,-2.1848,-2.216,-2.2268,-2.2268,-2.2268,-2.1915,-2.1205,-2.1079,-2.1004,-2.1004,-2.033,-1.9972,-1.9972,-1.9221,-1.8938,-1.8869,-1.836,-1.806,0.0,-1.8201,-1.8315,-1.8256,-1.7405,-1.6613,-1.5699,-1.3335,-1.1001,-0.8665,-0.6413,-0.4082,-0.2042,-0.1386,-0.0656,0.0,0.0,0.0,0.0,0.0,0.0,0.0,0.0,0.0,0.0,0.0,0.0,0.0,0.0,0.0,0.0,0.0,0.0,0.0,0.0,0.0,0.0,0.0,0.0,0.0,0.0,0.0,0.0,0.0,0.0,0.0,0.0,0.0,0.0,0.0,0.0,0.0,0.0,0.0,0.0,0.0,0.0,0.0,0.0,0.0,0.0,0.0,0.0,0.0,0.0,0.0,0.0,-1.1192,0.0,-1.3804,-1.3281,-1.2874,-1.2379,0.0,-1.0744,-1.0143,-1.0011,-0.9812,-0.9693,-0.9771,-0.9913,-1.0143,-1.0555,-1.0962,-1.1782,-1.3315,-1.5628,-1.767,-1.9174,-1.961,-2.001,-2.0471,-2.1021,-2.153,-2.2025,-2.2235,-2.2268,-2.2268,-2.1771,-2.131,-2.1069,-2.0068,-1.9493,-1.9493,-1.9348,-1.9007,-1.8388,-1.8244,-1.8186,-1.8116,-1.8004,-1.7989,-1.8076,-1.8103,-1.8245,-1.8185,-1.6828,-1.553,-1.4041,-1.1168,-0.825,-0.5533,-0.3791,-0.2042,-0.0511,-0.0365,-0.0146,0.0,0.0,0.0,0.0,0.0,0.0,0.0,0.0,0.0,0.0,0.0,0.0,0.0,0.0,0.0,0.0,0.0,0.0,0.0,0.0,0.0,0.0,0.0,0.0,0.0,0.0,0.0,0.0,0.0,0.0,0.0,0.0,0.0,0.0,0.0,0.0,0.0,0.0,0.0,0.0,0.0,0.0,0.0,0.0,0.0,0.0,0.0,0.0,0.0,0.0,0.0,0.0,-1.0177,-1.1307,-1.2298,-1.1955,-1.1753,-1.1511,-1.0934,-1.0337,-0.9913,-0.9913,-0.9737,-0.9673,-0.9852,-1.0021,-1.0312,-1.0934,-1.1463,-1.2644,-1.5045,-1.7229,-1.9006,-2.0139,-2.0594,-2.0912,-2.1163,-2.153,-2.1848,-2.2093,-2.2249,-2.2129,-2.184,-2.1366,-2.0751,-1.9977,-1.9235,-1.8863,-1.8921,-1.8643,-1.8313,-1.7902,-1.7902,-1.7902,-1.7902,-1.7902,-1.7935,-1.7989,-1.7989,-1.8033,-1.7957,-1.6115,-1.4287,-1.2335,-0.926,-0.6283,-0.3425,-0.2261,-0.1021,0.0,0.0,0.0,0.0,0.0,0.0,0.0,0.0,0.0,0.0,0.0,0.0,0.0,0.0,0.0,0.0,0.0,0.0,0.0,0.0,0.0,0.0,0.0,0.0,0.0,0.0,0.0,0.0,0.0,0.0,0.0,0.0,0.0,0.0,0.0,0.0,0.0,0.0,0.0,0.0,0.0,0.0,0.0,0.0,0.0,0.0,0.0,0.0,0.0,0.0,0.0,0.0,0.0,0.0,0.0,-0.9927,-1.0542,-1.1104,-1.0968,-1.0982,-1.0914,-1.0541,-1.0215,-0.9961,-0.9961,-0.9863,-0.9805,-1.0103,-1.0351,-1.0738,-1.1504,-1.2366,-1.3973,-1.6944,-1.8599,-1.9875,-2.0912,-2.1387,-2.1652,-2.1706,-2.1916,-2.2059,-2.2113,-2.2077,-2.1793,-2.1153,-2.0838,-2.009,-1.8759,-1.8525,-1.8457,-1.8616,-1.8144,-1.7891,-1.7902,-1.7902,-1.7902,-1.7902,-1.7902,-1.7902,-1.7902,0.0,0.0,-1.7694,-1.5384,-1.304,-1.0629,-0.7642,-0.4613,-0.1896,-0.124,-0.0584,0.0,0.0,0.0,0.0,0.0,0.0,0.0,0.0,0.0,0.0,0.0,0.0,0.0,0.0,0.0,0.0,0.0,0.0,0.0,0.0,0.0,0.0,0.0,0.0,0.0,0.0,0.0,0.0,0.0,0.0,0.0,0.0,0.0,0.0,0.0,0.0,0.0,0.0,0.0,0.0,0.0,0.0,0.0,0.0,0.0,0.0,0.0,0.0,0.0,0.0,0.0,0.0,0.0,0.0,0.0,-0.9866,-1.0475,-1.0968,-1.1104,-1.1328,-1.1463,-1.1267,-1.0955,-1.0745,-1.0745,-1.0522,-1.0446,-1.0718,-1.1103,-1.1701,-1.2615,-1.4496,-1.6402,-1.7935,-1.9094,-2.0153,-2.1068,-2.1353,-2.1584,-2.1828,-2.1774,-2.1848,-2.2093,-2.146,-2.1005,-2.0869,-1.9682,-1.8813,-1.8573,-1.797,-1.7636,-1.7621,-1.771,-1.7804,-1.7902,-1.7902,-1.7902,-1.7902,-1.7902,-1.7902,-1.7902,0.0,-1.7902,-1.7694,-1.4762,-1.1915,-0.8989,-0.6002,-0.3027,-0.0365,-0.0219,-0.0073,0.0,0.0,0.0,0.0,0.0,0.0,0.0,0.0,0.0,0.0,0.0,0.0,0.0,0.0,0.0,0.0,0.0,0.0,0.0,0.0,0.0,0.0,0.0,0.0,0.0,0.0,0.0,0.0,0.0,0.0,0.0,0.0,0.0,0.0,0.0,0.0,0.0,0.0,0.0,0.0,0.0,0.0,0.0,0.0,0.0,0.0,0.0,0.0,0.0,0.0,0.0,0.0,0.0,0.0,0.0,-0.9879,-1.0393,-1.0901,-1.1409,-1.187,-1.2145,-1.2026,-1.1884,-1.1705,-1.1586,-1.1246,-1.1118,-1.1586,-1.204,-1.2901,-1.4604,-1.6279,-1.7738,-1.8776,-1.9678,-2.0471,-2.1143,-2.1421,-2.1618,-2.176,-2.1774,-2.1707,-2.1427,-2.1041,-2.0453,-1.9651,-1.8963,-1.8364,-1.7909,-1.7561,-1.7359,-1.7426,-1.7467,-1.7625,-1.7804,-1.7875,-1.7902,-1.7902,-1.7902,-1.7902,-1.7902,0.0,-1.7068,-1.6502,-1.3434,-1.0435,-0.7492,-0.4932,-0.2308,0.0,0.0,0.0,0.0,0.0,0.0,0.0,0.0,0.0,0.0,0.0,0.0,0.0,0.0,0.0,0.0,0.0,0.0,0.0,0.0,0.0,0.0,0.0,0.0,0.0,0.0,0.0,0.0,0.0,0.0,0.0,0.0,0.0,0.0,0.0,0.0,0.0,0.0,0.0,0.0,0.0,0.0,0.0,0.0,0.0,0.0,0.0,0.0,0.0,0.0,0.0,0.0,0.0,0.0,0.0,0.0,0.0,0.0,-0.99,-1.0319,-1.0853,-1.1597,-1.2246,-1.2693,-1.2759,-1.2847,-1.2847,-1.2628,-1.2295,-1.2162,-1.2623,-1.3261,-1.4363,-1.6395,-1.7582,-1.8565,-1.9501,-2.0187,-2.0756,-2.1211,-2.1475,-2.1638,-2.1672,-2.174,-2.1518,-2.0821,-2.058,-1.9886,-1.8602,-1.8318,-1.7931,-1.7382,-1.7228,-1.7228,-1.7382,-1.741,-1.7484,-1.7723,-1.7821,-1.7875,-1.7902,-1.7902,-1.7902,-1.7833,-1.6929,-1.6034,-1.4924,-1.1921,-0.8905,-0.6011,-0.394,-0.1806,0.0,0.0,0.0,0.0,0.0,0.0,0.0,0.0,0.0,0.0,0.0,0.0,0.0,0.0,0.0,0.0,0.0,0.0,0.0,0.0,0.0,0.0,0.0,0.0,0.0,0.0,0.0,0.0,0.0,0.0,0.0,0.0,0.0,0.0,0.0,0.0,0.0,0.0,0.0,0.0,0.0,0.0,0.0,0.0,0.0,0.0,0.0,0.0,0.0,0.0,0.0,0.0,0.0,0.0,0.0,0.0,0.0,0.0,-0.99,-1.0245,-1.0717,-1.157,-1.2246,-1.2835,-1.3382,-1.3871,-1.4122,-1.4003,-1.3942,-1.3935,-1.3976,-1.4921,-1.6071,-1.7168,-1.8124,-1.9081,-2.0119,-2.0539,-2.0933,-2.1367,-2.1441,-2.1509,-2.1652,-2.155,-2.119,-2.0653,-1.9882,-1.9068,-1.828,-1.7596,-1.7268,-1.7201,-1.719,-1.719,-1.7201,-1.7366,-1.7484,-1.7723,-1.7734,-1.7793,-1.7902,-1.7902,-1.7902,-1.7833,-1.6432,-1.4951,-1.3333,-1.038,-0.7405,-0.4469,-0.2887,-0.1377,0.0,0.0,0.0,0.0,0.0,0.0,0.0,0.0,0.0,0.0,0.0,0.0,0.0,0.0,0.0,0.0,0.0,0.0,0.0,0.0,0.0,0.0,0.0,0.0,0.0,0.0,0.0,0.0,0.0,0.0,0.0,0.0,0.0,0.0,0.0,0.0,0.0,0.0,0.0,0.0,0.0,0.0,0.0,0.0,0.0,0.0,0.0,0.0,0.0,0.0,0.0,0.0,0.0,0.0,0.0,0.0,0.0,0.0,-1.0093,-1.0276,-1.0575,-1.1477,-1.2291,-1.3078,-1.3865,-1.4679,-1.5323,-1.5364,-1.5398,-1.5404,-1.5262,-1.5852,-1.6754,-1.7806,-1.8654,-1.9522,-2.0471,-2.0858,-2.1143,-2.1341,-2.1375,-2.1455,-2.153,-2.1409,-2.093,-1.985,-1.9474,-1.8778,-1.7651,-1.7323,-1.719,-1.719,-1.719,-1.719,-1.719,-1.7228,-1.7331,-1.75,-1.7652,-1.775,-1.7793,-1.7384,-1.6999,-1.6432,-1.4409,-1.2465,-1.0467,-0.7942,-0.5371,-0.2925,-0.144,-0.0507,0.0,0.0,0.0,0.0,0.0,0.0,0.0,0.0,0.0,0.0,0.0,0.0,0.0,0.0,0.0,0.0,0.0,0.0,0.0,0.0,0.0,0.0,0.0,0.0,0.0,0.0,0.0,0.0,0.0,0.0,0.0,0.0,0.0,0.0,0.0,0.0,0.0,0.0,0.0,0.0,0.0,0.0,0.0,0.0,0.0,0.0,0.0,0.0,0.0,0.0,0.0,0.0,0.0,0.0,0.0,0.0,0.0,0.0,-1.0254,-1.0315,-1.0493,-1.1396,-1.2298,-1.3288,-1.4333,-1.5473,-1.633,-1.6524,-1.6693,-1.668,-1.6337,-1.67,-1.7385,-1.819,-1.9006,-1.982,-2.0716,-2.1055,-2.1265,-2.1355,-2.1375,-2.1375,-2.1375,-2.1236,-2.0572,-1.9376,-1.9104,-1.8451,-1.7257,-1.719,-1.719,-1.719,-1.719,-1.719,-1.719,-1.6984,-1.6755,-1.6632,-1.6627,-1.6956,-1.7654,-1.6762,-1.5842,-1.4822,-1.2314,-0.988,-0.7444,-0.5342,-0.3318,-0.1422,-0.036,0.0,0.0,0.0,0.0,0.0,0.0,0.0,0.0,0.0,0.0,0.0,0.0,0.0,0.0,0.0,0.0,0.0,0.0,0.0,0.0,0.0,0.0,0.0,0.0,0.0,0.0,0.0,0.0,0.0,0.0,0.0,0.0,0.0,0.0,0.0,0.0,0.0,0.0,0.0,0.0,0.0,0.0,0.0,0.0,0.0,0.0,0.0,0.0,0.0,0.0,0.0,0.0,0.0,0.0,0.0,0.0,0.0,0.0,0.0,-1.0283,-1.0322,-1.0507,-1.1409,-1.2311,-1.3404,-1.4901,-1.6123,-1.7121,-1.7521,-1.7772,-1.7738,-1.71,-1.7473,-1.8023,-1.8464,-1.9169,-2.0038,-2.0878,-2.1123,-2.1265,-2.1355,-2.1375,-2.1375,-2.1375,-2.0778,-2.0107,-1.9376,-1.8639,-1.7924,-1.7257,-1.719,-1.719,-1.719,-1.719,-1.719,-1.719,-1.6456,-1.5706,-1.4972,-1.4403,-1.5383,-1.758,-1.6125,-1.4659,-1.3212,-1.0283,-0.7238,-0.4385,-0.283,-0.135,0.0,0.0,0.0,0.0,0.0,0.0,0.0,0.0,0.0,0.0,0.0,0.0,0.0,0.0,0.0,0.0,0.0,0.0,0.0,0.0,0.0,0.0,0.0,0.0,0.0,0.0,0.0,0.0,0.0,0.0,0.0,0.0,0.0,0.0,0.0,0.0,0.0,0.0,0.0,0.0,0.0,0.0,0.0,0.0,0.0,0.0,0.0,0.0,0.0,0.0,0.0,0.0,0.0,0.0,0.0,0.0,0.0,0.0,0.0,0.0,0.0,-1.0663,-1.0826,-1.1179,-1.2111,-1.3234,-1.4414,-1.5805,-1.6815,-1.7737,-1.8972,-1.8993,-1.862,-1.8036,-1.8145,-1.8409,-1.8654,-1.9413,-2.0207,-2.0892,-2.1211,-2.1387,-2.1375,-2.1375,-2.1236,-2.0705,-2.0519,-1.9854,-1.8639,-1.8318,-1.7924,-1.7257,-1.719,-1.719,-1.719,-1.719,-1.719,-1.719,-1.5978,-1.4704,-1.3497,-1.2308,-1.2727,-1.4403,-1.3044,-1.1595,-1.0073,-0.7647,-0.5165,-0.274,-0.1266,-0.0422,0.0,0.0,0.0,0.0,0.0,0.0,0.0,0.0,0.0,0.0,0.0,0.0,0.0,0.0,0.0,0.0,0.0,0.0,0.0,0.0,0.0,0.0,0.0,0.0,0.0,0.0,0.0,0.0,0.0,0.0,0.0,0.0,0.0,0.0,0.0,0.0,0.0,0.0,0.0,0.0,0.0,0.0,0.0,0.0,0.0,0.0,0.0,0.0,0.0,0.0,0.0,0.0,0.0,0.0,0.0,0.0,0.0,0.0,0.0,0.0,0.0,-1.0894,-1.1314,-1.1928,-1.3064,-1.4299,-1.5669,-1.7378,-1.8124,-1.8762,-1.9834,-1.9786,-1.9393,-1.8864,-1.8884,-1.9006,-1.9154,-1.9732,-2.0383,-2.0933,-2.1197,-2.1367,-2.1375,-2.1169,-2.0844,-2.0452,-1.9854,-1.9183,-1.8251,-1.7973,-1.7651,-1.719,-1.719,-1.719,-1.719,-1.6918,-1.6589,-1.6317,-1.4566,-1.2895,-1.115,-0.974,-0.9224,-0.9608,-0.9402,-0.8513,-0.7003,-0.4452,-0.2583,-0.1262,-0.0351,0.0,0.0,0.0,0.0,0.0,0.0,0.0,0.0,0.0,0.0,0.0,0.0,0.0,0.0,0.0,0.0,0.0,0.0,0.0,0.0,0.0,0.0,0.0,0.0,0.0,0.0,0.0,0.0,0.0,0.0,0.0,0.0,0.0,0.0,0.0,0.0,0.0,0.0,0.0,0.0,0.0,0.0,0.0,0.0,0.0,0.0,0.0,0.0,0.0,0.0,0.0,0.0,0.0,0.0,0.0,0.0,0.0,0.0,0.0,0.0,0.0,0.0,-1.1084,-1.1819,-1.2698,-1.4061,-1.5479,-1.7087,-1.9223,-1.9773,-1.9841,-2.0261,-2.0241,-2.001,-1.959,-1.9644,-1.9793,-1.9732,-2.0085,-2.0505,-2.0933,-2.1109,-2.1179,-2.1255,-2.0758,-2.03,-2.0227,-1.8965,-1.8179,-1.8112,-1.7512,-1.719,-1.719,-1.719,-1.719,-1.719,-1.6456,-1.5639,-1.4838,-1.2627,-1.0413,-0.8197,-0.6794,-0.5315,-0.3969,-0.5483,-0.5466,-0.4015,-0.1187,0.0,0.0,0.0,0.0,0.0,0.0,0.0,0.0,0.0,0.0,0.0,0.0,0.0,0.0,0.0,0.0,0.0,0.0,0.0,0.0,0.0,0.0,0.0,0.0,0.0,0.0,0.0,0.0,0.0,0.0,0.0,0.0,0.0,0.0,0.0,0.0,0.0,0.0,0.0,0.0,0.0,0.0,0.0,0.0,0.0,0.0,0.0,0.0,0.0,0.0,0.0,0.0,0.0,0.0,0.0,0.0,0.0,0.0,0.0,0.0,0.0,0.0,0.0,0.0,0.0,-1.1396,-1.2325,-1.3336,-1.4808,-1.6714,-1.8552,-1.9732,-2.0098,-2.0241,-2.0388,-2.0408,-2.032,-2.0173,-2.0261,-2.0315,-2.0207,-2.0451,-2.0716,-2.0811,-2.0946,-2.0853,-2.0364,-2.0266,-1.981,-1.8689,-1.8392,-1.7973,-1.7446,-1.7257,-1.719,-1.719,-1.719,-1.719,-1.719,-1.5912,-1.4633,-1.3359,-1.0674,-0.7926,-0.5178,-0.3767,-0.2356,-0.101,-0.2967,-0.3117,-0.1777,-0.0554,0.0,0.0,0.0,0.0,0.0,0.0,0.0,0.0,0.0,0.0,0.0,0.0,0.0,0.0,0.0,0.0,0.0,0.0,0.0,0.0,0.0,0.0,0.0,0.0,0.0,0.0,0.0,0.0,0.0,0.0,0.0,0.0,0.0,0.0,0.0,0.0,0.0,0.0,0.0,0.0,0.0,0.0,0.0,0.0,0.0,0.0,0.0,0.0,0.0,0.0,0.0,0.0,0.0,0.0,0.0,0.0,0.0,0.0,0.0,0.0,0.0,0.0,0.0,0.0,0.0,-1.1171,-1.2619,-1.4265,-1.6551,-1.8213,-1.9434,-1.9976,-2.0227,-2.0329,-2.0329,-2.0438,-2.0462,-2.0388,-2.0422,-2.0462,-2.0438,-2.056,-2.0682,-2.0821,-2.0573,-2.0265,-2.0013,-1.9496,-1.8838,-1.8175,-1.7793,-1.7523,-1.719,-1.719,-1.7163,-1.7103,-1.6832,-1.6469,-1.6091,-1.4291,-1.2557,-1.0831,-0.8279,-0.5755,-0.328,-0.2217,-0.1077,-0.0067,-0.1149,-0.1288,-0.0545,-0.0138,0.0,0.0,0.0,0.0,0.0,0.0,0.0,0.0,0.0,0.0,0.0,0.0,0.0,0.0,0.0,0.0,0.0,0.0,0.0,0.0,0.0,0.0,0.0,0.0,0.0,0.0,0.0,0.0,0.0,0.0,0.0,0.0,0.0,0.0,0.0,0.0,0.0,0.0,0.0,0.0,0.0,0.0,0.0,0.0,0.0,0.0,0.0,0.0,0.0,0.0,0.0,0.0,0.0,0.0,0.0,0.0,0.0,0.0,0.0,0.0,0.0,0.0,0.0,0.0,0.0,-1.0848,-1.2929,-1.5384,-1.8301,-1.9413,-1.9854,-2.0051,-2.0207,-2.0261,-2.0119,-2.0315,-2.0442,-2.0442,-2.0462,-2.0476,-2.0476,-2.0476,-2.053,-2.0587,-2.003,-1.9612,-1.9598,-1.8533,-1.7876,-1.7843,-1.7285,-1.7021,-1.7119,-1.713,-1.7076,-1.6978,-1.6253,-1.5407,-1.4458,-1.2224,-0.9995,-0.7826,-0.5761,-0.3791,-0.1798,-0.1208,-0.0606,0.0,0.0,0.0,0.0,0.0,0.0,0.0,0.0,0.0,0.0,0.0,0.0,0.0,0.0,0.0,0.0,0.0,0.0,0.0,0.0,0.0,0.0,0.0,0.0,0.0,0.0,0.0,0.0,0.0,0.0,0.0,0.0,0.0,0.0,0.0,0.0,0.0,0.0,0.0,0.0,0.0,0.0,0.0,0.0,0.0,0.0,0.0,0.0,0.0,0.0,0.0,0.0,0.0,0.0,0.0,0.0,0.0,0.0,0.0,0.0,0.0,0.0,0.0,0.0,0.0,0.0,0.0,0.0,0.0,0.0,-1.0946,-1.375,-1.67,-1.8674,-1.9325,-1.959,-2.001,-2.0119,-2.0119,-2.0098,-2.0241,-2.03,-2.03,-2.0388,-2.0476,-2.0476,-2.0476,-2.0298,-1.9745,-1.9561,-1.9121,-1.7989,-1.7768,-1.7509,-1.6879,-1.6847,-1.6853,-1.6864,-1.6864,-1.6864,-1.6853,-1.5665,-1.4336,-1.301,-1.0317,-0.7627,-0.487,-0.3361,-0.1854,-0.0267,-0.0201,-0.0067,0.0,0.0,0.0,0.0,0.0,0.0,0.0,0.0,0.0,0.0,0.0,0.0,0.0,0.0,0.0,0.0,0.0,0.0,0.0,0.0,0.0,0.0,0.0,0.0,0.0,0.0,0.0,0.0,0.0,0.0,0.0,0.0,0.0,0.0,0.0,0.0,0.0,0.0,0.0,0.0,0.0,0.0,0.0,0.0,0.0,0.0,0.0,0.0,0.0,0.0,0.0,0.0,0.0,0.0,0.0,0.0,0.0,0.0,0.0,0.0,0.0,0.0,0.0,0.0,0.0,0.0,0.0,0.0,0.0,0.0,-1.1751,-1.4478,-1.6951,-1.8762,-1.9379,-1.9624,-1.9908,-1.9976,-1.9942,-1.9875,-1.9976,-2.0119,-2.0295,-2.032,-2.0388,-2.0462,-2.0476,-2.0278,-1.9592,-1.9204,-1.8567,-1.7616,-1.7221,-1.6897,-1.6641,-1.6679,-1.675,-1.682,-1.682,-1.6793,-1.6658,-1.5034,-1.3307,-1.143,-0.8646,-0.5856,-0.3124,-0.2028,-0.0987,0.0,0.0,0.0,0.0,0.0,0.0,0.0,0.0,0.0,0.0,0.0,0.0,0.0,0.0,0.0,0.0,0.0,0.0,0.0,0.0,0.0,0.0,0.0,0.0,0.0,0.0,0.0,0.0,0.0,0.0,0.0,0.0,0.0,0.0,0.0,0.0,0.0,0.0,0.0,0.0,0.0,0.0,0.0,0.0,0.0,0.0,0.0,0.0,0.0,0.0,0.0,0.0,0.0,0.0,0.0,0.0,0.0,0.0,0.0,0.0,0.0,0.0,0.0,0.0,0.0,0.0,0.0,0.0,0.0,0.0,0.0,0.0,0.0,-1.2121,-1.4459,-1.632,-1.8089,-1.883,-1.9169,-1.9468,-1.959,-1.9705,-1.9725,-1.9752,-1.9908,-2.0173,-2.0241,-2.0246,-2.0354,-2.0374,-2.0108,-1.9235,-1.8716,-1.8082,-1.7264,-1.6725,-1.6456,-1.6543,-1.6517,-1.6641,-1.6722,-1.6739,-1.6695,-1.6597,-1.446,-1.224,-0.9846,-0.7087,-0.4321,-0.1613,-0.104,-0.0523,0.0,0.0,0.0,0.0,0.0,0.0,0.0,0.0,0.0,0.0,0.0,0.0,0.0,0.0,0.0,0.0,0.0,0.0,0.0,0.0,0.0,0.0,0.0,0.0,0.0,0.0,0.0,0.0,0.0,0.0,0.0,0.0,0.0,0.0,0.0,0.0,0.0,0.0,0.0,0.0,0.0,0.0,0.0,0.0,0.0,0.0,0.0,0.0,0.0,0.0,0.0,0.0,0.0,0.0,0.0,0.0,0.0,0.0,0.0,0.0,0.0,0.0,0.0,0.0,0.0,0.0,0.0,0.0,0.0,0.0,0.0,0.0,0.0,-1.1573,-1.3111,-1.4567,-1.6394,-1.7156,-1.7717,-1.8386,-1.883,-1.9149,-1.9637,-1.9725,-1.9773,-1.9875,-2.001,-2.0119,-2.0119,-2.0119,-1.969,-1.8374,-1.8118,-1.7625,-1.6312,-1.6233,-1.6304,-1.6304,-1.6418,-1.6483,-1.6553,-1.6553,-1.6483,-1.6483,-1.3971,-1.1205,-0.8424,-0.5667,-0.2902,-0.0129,-0.0065,-0.0065,0.0,0.0,0.0,0.0,0.0,0.0,0.0,0.0,0.0,0.0,0.0,0.0,0.0,0.0,0.0,0.0,0.0,0.0,0.0,0.0,0.0,0.0,0.0,0.0,0.0,0.0,0.0,0.0,0.0,0.0,0.0,0.0,0.0,0.0,0.0,0.0,0.0,0.0,0.0,0.0,0.0,0.0,0.0,0.0,0.0,0.0,0.0,0.0,0.0,0.0,0.0,0.0,0.0,0.0,0.0,0.0,0.0,0.0,0.0,0.0,0.0,0.0,0.0,0.0,0.0,0.0,0.0,0.0,0.0,0.0,0.0,0.0,0.0,-1.0014,-1.1516,-1.312,-1.4566,-1.57,-1.6659,-1.7602,-1.8267,-1.885,-1.9393,-1.959,-1.9739,-1.9732,-1.9854,-1.9976,-2.0085,-2.0098,-1.9607,-1.8293,-1.8106,-1.7607,-1.6233,-1.6146,-1.6206,-1.6277,-1.6331,-1.6385,-1.6472,-1.6078,-1.5636,-1.5183,-1.2556,-0.9788,-0.7018,-0.4641,-0.2322,0.0,0.0,0.0,0.0,0.0,0.0,0.0,0.0,0.0,0.0,0.0,0.0,0.0,0.0,0.0,0.0,0.0,0.0,0.0,0.0,0.0,0.0,0.0,0.0,0.0,0.0,0.0,0.0,0.0,0.0,0.0,0.0,0.0,0.0,0.0,0.0,0.0,0.0,0.0,0.0,0.0,0.0,0.0,0.0,0.0,0.0,0.0,0.0,0.0,0.0,0.0,0.0,0.0,0.0,0.0,0.0,0.0,0.0,0.0,0.0,0.0,0.0,0.0,0.0,0.0,0.0,0.0,0.0,0.0,0.0,0.0,0.0,0.0,0.0,0.0,0.0,-0.8812,-1.0073,-1.1478,-1.2751,-1.3987,-1.5154,-1.6243,-1.7216,-1.8035,-1.8884,-1.9257,-1.9488,-1.9684,-1.9793,-1.9841,-1.9942,-1.9963,-1.9517,-1.8151,-1.7978,-1.747,-1.6169,-1.6021,-1.6076,-1.6163,-1.6206,-1.626,-1.6347,-1.5495,-1.4613,-1.372,-1.1054,-0.8114,-0.4898,-0.3031,-0.142,0.0,0.0,0.0,0.0,0.0,0.0,0.0,0.0,0.0,0.0,0.0,0.0,0.0,0.0,0.0,0.0,0.0,0.0,0.0,0.0,0.0,0.0,0.0,0.0,0.0,0.0,0.0,0.0,0.0,0.0,0.0,0.0,0.0,0.0,0.0,0.0,0.0,0.0,0.0,0.0,0.0,0.0,0.0,0.0,0.0,0.0,0.0,0.0,0.0,0.0,0.0,0.0,0.0,0.0,0.0,0.0,0.0,0.0,0.0,0.0,0.0,0.0,0.0,0.0,0.0,0.0,0.0,0.0,0.0,0.0,0.0,0.0,0.0,0.0,0.0,0.0,0.0,0.0,0.0,-1.0969,-1.205,-1.3146,-1.4327,-1.5553,-1.6763,-1.7981,-1.864,-1.9115,-1.9576,-1.9705,-1.9705,-1.9664,-1.9725,-1.9238,-1.7892,-1.7709,-1.7221,-1.5944,-1.5853,-1.5923,-1.5872,-1.6037,-1.6108,-1.6108,-1.4884,-1.3547,-1.2213,-0.949,-0.6184,-0.2194,-0.071,0.0,0.0,0.0,0.0,0.0,0.0,0.0,0.0,0.0,0.0,0.0,0.0,0.0,0.0,0.0,0.0,0.0,0.0,0.0,0.0,0.0,0.0,0.0,0.0,0.0,0.0,0.0,0.0,0.0,0.0,0.0,0.0,0.0,0.0,0.0,0.0,0.0,0.0,0.0,0.0,0.0,0.0,0.0,0.0,0.0,0.0,0.0,0.0,0.0,0.0,0.0,0.0,0.0,0.0,0.0,0.0,0.0,0.0,0.0,0.0,0.0,0.0,0.0,0.0,0.0,0.0,0.0,0.0,0.0,0.0,0.0,0.0,0.0,0.0,0.0,0.0,0.0,-0.7204,0.0,0.0,0.0,0.0,0.0,-1.2088,-1.3661,-1.5296,-1.6624,-1.7652,-1.8586,-1.9359,-1.9393,-1.9359,-1.9481,-1.959,-1.9238,-1.7892,-1.7709,-1.7221,-1.5944,-1.5843,-1.5842,-1.5923,-1.5951,-1.6005,-1.6108,-1.4438,-1.2626,-1.0794,-0.6301,-0.3016,-0.1355,-0.0452,0.0,0.0,0.0,0.0,0.0,0.0,0.0,0.0,0.0,0.0,0.0,0.0,0.0,0.0,0.0,0.0,0.0,0.0,0.0,0.0,0.0,0.0,0.0,0.0,0.0,0.0,0.0,0.0,0.0,0.0,0.0,0.0,0.0,0.0,0.0,0.0,0.0,0.0,0.0,0.0,0.0,0.0,0.0,0.0,0.0,0.0,0.0,0.0,0.0,0.0,0.0,0.0,0.0,0.0,0.0,0.0,0.0,0.0,0.0,0.0,0.0,0.0,0.0,0.0,0.0,0.0,0.0,0.0,0.0,0.0,0.0,0.0,0.0,0.0,0.0,0.0,0.0,-0.7095,-0.7315,-0.7641,-0.8043,0.0,0.0,-1.0565,-1.2058,-1.3668,-1.5221,-1.6325,-1.7311,-1.8366,-1.8511,-1.8498,-1.8528,-1.8601,-1.8346,-1.7689,-1.7678,-1.7221,-1.5944,-1.5816,-1.5843,-1.5853,-1.5853,-1.588,-1.5951,-1.3881,-1.1107,-0.7746,-0.3556,-0.1023,-0.0578,-0.0193,0.0,0.0,0.0,0.0,0.0,0.0,0.0,0.0,0.0,0.0,0.0,0.0,0.0,0.0,0.0,0.0,0.0,0.0,0.0,0.0,0.0,0.0,0.0,0.0,0.0,0.0,0.0,0.0,0.0,0.0,0.0,0.0,0.0,0.0,0.0,0.0,0.0,0.0,0.0,0.0,0.0,0.0,0.0,0.0,0.0,0.0,0.0,0.0,0.0,0.0,0.0,0.0,0.0,0.0,0.0,0.0,0.0,0.0,0.0,0.0,0.0,0.0,0.0,0.0,0.0,0.0,0.0,0.0,0.0,0.0,0.0,0.0,0.0,0.0,0.0,0.0,0.0,-0.7497,-0.7557,-0.7637,-0.8034,-0.8528,0.0,-0.9431,-1.0595,-1.2006,-1.359,-1.4583,-1.5542,-1.6815,-1.7022,-1.7015,-1.7036,-1.6885,-1.6902,-1.7322,-1.749,-1.7112,-1.5927,-1.5816,-1.5816,-1.5816,-1.5755,-1.5633,-1.5566,-1.2886,-0.9114,-0.4156,-0.1396,0.0,0.0,0.0,0.0,0.0,0.0,0.0,0.0,0.0,0.0,0.0,0.0,0.0,0.0,0.0,0.0,0.0,0.0,0.0,0.0,0.0,0.0,0.0,0.0,0.0,0.0,0.0,0.0,0.0,0.0,0.0,0.0,0.0,0.0,0.0,0.0,0.0,0.0,0.0,0.0,0.0,0.0,0.0,0.0,0.0,0.0,0.0,0.0,0.0,0.0,0.0,0.0,0.0,0.0,0.0,0.0,0.0,0.0,0.0,0.0,0.0,0.0,0.0,0.0,0.0,0.0,0.0,0.0,0.0,0.0,0.0,0.0,0.0,0.0,0.0,0.0,0.0,0.0,0.0,0.0,-0.7793,-0.7832,-0.7815,-0.781,-0.7961,0.0,-0.7974,-0.8988,-1.0269,-1.1424,-1.2468,-1.3509,-1.4677,-1.4779,-1.4741,-1.4905,-1.5202,-1.5723,-1.6619,-1.6591,-1.632,-1.5839,-1.5816,-1.5816,-1.5816,-1.5316,-1.4771,-1.4225,-0.9798,-0.5949,-0.3314,-0.1191,0.0,0.0,0.0,0.0,0.0,0.0,0.0,0.0,0.0,0.0,0.0,0.0,0.0,0.0,0.0,0.0,0.0,0.0,0.0,0.0,0.0,0.0,0.0,0.0,0.0,0.0,0.0,0.0,0.0,0.0,0.0,0.0,0.0,0.0,0.0,0.0,0.0,0.0,0.0,0.0,0.0,0.0,0.0,0.0,0.0,0.0,0.0,0.0,0.0,0.0,0.0,0.0,0.0,0.0,0.0,0.0,0.0,0.0,0.0,0.0,0.0,0.0,0.0,0.0,0.0,0.0,0.0,0.0,0.0,0.0,0.0,0.0,0.0,0.0,0.0,0.0,0.0,0.0,0.0,0.0,-0.7276,-0.7192,-0.7083,-0.6985,0.0,0.0,0.0,-0.7297,-0.8234,-0.9218,-0.9993,-1.0794,-1.1842,-1.1928,-1.1905,-1.1973,-1.2186,-1.2601,-1.3403,-1.4932,-1.5858,-1.5636,-1.557,-1.557,-1.557,-1.4775,-1.3246,-1.1019,-0.714,-0.4196,-0.2605,-0.0934,0.0,0.0,0.0,0.0,0.0,0.0,0.0,0.0,0.0,0.0,0.0,0.0,0.0,0.0,0.0,0.0,0.0,0.0,0.0,0.0,0.0,0.0,0.0,0.0,0.0,0.0,0.0,0.0,0.0,0.0,0.0,0.0,0.0,0.0,0.0,0.0,0.0,0.0,0.0,0.0,0.0,0.0,0.0,0.0,0.0,0.0,0.0,0.0,0.0,0.0,0.0,0.0,0.0,0.0,0.0,0.0,0.0,0.0,0.0,0.0,0.0,0.0,0.0,0.0,0.0,0.0,0.0,0.0,0.0,0.0,0.0,0.0,0.0,0.0,0.0,0.0,0.0,0.0,0.0,0.0,0.0,0.0,0.0,0.0,0.0,-0.5569,0.0,0.0,0.0,-0.6941,-0.7384,-0.785,-0.8591,-0.8739,-0.8744,-0.8729,-0.8779,-0.8957,-0.9481,-1.2134,-1.4137,-1.4528,-1.4579,-1.4605,-1.4598,-1.3348,-1.1037,-0.7574,-0.4956,-0.3002,-0.1843,-0.0682,0.0,0.0,0.0,0.0,0.0,0.0,0.0,0.0,0.0,0.0,0.0,0.0,0.0,0.0,0.0,0.0,0.0,0.0,0.0,0.0,0.0,0.0,0.0,0.0,0.0,0.0,0.0,0.0,0.0,0.0,0.0,0.0,0.0,0.0,0.0,0.0,0.0,0.0,0.0,0.0,0.0,0.0,0.0,0.0,0.0,0.0,0.0,0.0,0.0,0.0,0.0,0.0,0.0,0.0,0.0,0.0,0.0,0.0,0.0,0.0,0.0,0.0,0.0,0.0,0.0,0.0,0.0,0.0,0.0,0.0,0.0,0.0,0.0,0.0,0.0,0.0,0.0,0.0,0.0,0.0,0.0,0.0,0.0,0.0,-0.4342,0.0,0.0,0.0,-0.4241,-0.4487,0.0,-0.4871,-0.5192,0.0,0.0,-0.527,-0.5597,-0.6058,-0.6541,-0.7274,-0.8709,-1.1216,-1.1575,-1.1633,-1.1754,-0.9764,-0.7559,-0.5321,-0.3337,-0.1922,-0.1148,-0.043,0.0,0.0,0.0,0.0,0.0,0.0,0.0,0.0,0.0,0.0,0.0,0.0,0.0,0.0,0.0,0.0,0.0,0.0,0.0,0.0,0.0,0.0,0.0,0.0,0.0,0.0,0.0,0.0,0.0,0.0,0.0,0.0,0.0,0.0,0.0,0.0,0.0,0.0,0.0,0.0,0.0,0.0,0.0,0.0,0.0,0.0,0.0,0.0,0.0,0.0,0.0,0.0,0.0,0.0,0.0,0.0,0.0,0.0,0.0,0.0,0.0,0.0,0.0,0.0,0.0,0.0,0.0,0.0,0.0,0.0,0.0,0.0,0.0,0.0,0.0,0.0,0.0,0.0,0.0,0.0,0.0,0.0,0.0,0.0,0.0,0.0,-0.2788,0.0,-0.2818,0.0,0.0,0.0,0.0,0.0,0.0,0.0,-0.3472,-0.3773,-0.4096,-0.4365,-0.5627,-0.8599,-0.8991,-0.8759,-0.8106,-0.6518,-0.4833,-0.332,-0.1731,-0.0701,-0.0416,-0.0182,0.0,0.0,0.0,0.0,0.0,0.0,0.0,0.0,0.0,0.0,0.0,0.0,0.0,0.0,0.0,0.0,0.0,0.0,0.0,0.0,0.0,0.0,0.0,0.0,0.0,0.0,0.0,0.0,0.0,0.0,0.0,0.0,0.0,0.0,0.0,0.0,0.0,0.0,0.0,0.0,0.0,0.0,0.0,0.0,0.0,0.0,0.0,0.0,0.0,0.0,0.0,0.0,0.0,0.0,0.0,0.0,0.0,0.0,0.0,0.0,0.0,0.0,0.0,0.0,0.0,0.0,0.0,0.0,0.0,0.0,0.0,0.0,0.0,0.0,0.0,0.0,0.0,0.0,0.0,0.0,-0.44,0.0,0.0,0.0,0.0,0.0,0.0,0.0,0.0,0.0,0.0,0.0,0.0,0.0,0.0,-0.1594,0.0,-0.1797,-0.1936,-0.2039,-0.3156,-0.596,-0.6322,-0.596,-0.4955,-0.3893,-0.2817,-0.1751,-0.0664,0.0,0.0,0.0,0.0,0.0,0.0,0.0,0.0,0.0,0.0,0.0,0.0,0.0,0.0,0.0,0.0,0.0,0.0,0.0,0.0,0.0,0.0,0.0,0.0,0.0,0.0,0.0,0.0,0.0,0.0,0.0,0.0,0.0,0.0,0.0,0.0,0.0,0.0,0.0,0.0,0.0,0.0,0.0,0.0,0.0,0.0,0.0,0.0,0.0,0.0,0.0,0.0,0.0,0.0,0.0,0.0,0.0,0.0,0.0,0.0,0.0,0.0,0.0,0.0,0.0,0.0,0.0,0.0,0.0,0.0,0.0,0.0,0.0,0.0,0.0,0.0,0.0,0.0,0.0,0.0,0.0,0.0,0.0,0.0,0.0,0.0,-0.0371,0.0,0.0,0.0,0.0,-0.0067,0.0,0.0,0.0,0.0,0.0,0.0,0.0,0.0,0.0,0.0,-0.0099,-0.0869,-0.2981,-0.3419,-0.3335,-0.276,-0.2241,-0.1677,-0.0975,-0.0366,0.0,0.0,0.0,0.0,0.0,0.0,0.0,0.0,0.0,0.0,0.0,0.0,0.0,0.0,0.0,0.0,0.0,0.0,0.0,0.0,0.0,0.0,0.0,0.0,0.0,0.0,0.0,0.0,0.0,0.0,0.0,0.0,0.0,0.0,0.0,0.0,0.0,0.0,0.0,0.0,0.0,0.0,0.0,0.0,0.0,0.0,0.0,0.0,0.0,0.0,0.0,0.0,0.0,0.0,0.0,0.0,0.0,0.0,0.0,0.0,0.0,0.0,0.0,0.0,0.0,0.0,0.0,0.0,0.0,0.0,0.0,0.0,0.0,0.0,0.0,0.0,0.0,0.0,0.0,0.0,0.0,0.0,0.0,0.0,0.0,-0.3796,-0.2606,0.0,0.0,0.0,0.0,0.0,0.0,0.0,0.0,0.0,0.0,0.0,0.0,0.0,0.0,0.0,0.0,-0.0266,-0.097,-0.1104,-0.1058,-0.0881,-0.0732,-0.0564,-0.0332,-0.0097,0.0,0.0,0.0,0.0,0.0,0.0,0.0,0.0,0.0,0.0,0.0,0.0,0.0,0.0,0.0,0.0,0.0,0.0,0.0,0.0,0.0,0.0,0.0,0.0,0.0,0.0,0.0,0.0,0.0,0.0,0.0,0.0,0.0,0.0,0.0,0.0,0.0,0.0,0.0,0.0,0.0,0.0,0.0,0.0,0.0,0.0,0.0,0.0,0.0,0.0,0.0,0.0,0.0,0.0,0.0,0.0,0.0,0.0,0.0,0.0,0.0,0.0,0.0,0.0,0.0,0.0,0.0,0.0,0.0,0.0,0.0,0.0,0.0,0.0,0.0,0.0,0.0,0.0,0.0,0.0,0.0,0.0,0.0,-0.9263,-0.7871,0.0,-0.5416,-0.4371,0.0,-0.2578,0.0,0.0,0.0,0.0,0.0,0.0,0.0,0.0,0.0,0.0,0.0,0.0,0.0,0.0,0.0,0.0,0.0,0.0,0.0,0.0,0.0,0.0,0.0,0.0,0.0,0.0,0.0,0.0,0.0,0.0,0.0,0.0,0.0,0.0,0.0,0.0,0.0,0.0,0.0,0.0,0.0,0.0,0.0,0.0,0.0,0.0,0.0,0.0,0.0,0.0,0.0,0.0,0.0,0.0,0.0,0.0,0.0,0.0,0.0,0.0,0.0,0.0,0.0,0.0,0.0,0.0,0.0,0.0,0.0,0.0,0.0,0.0,0.0,0.0,0.0,0.0,0.0,0.0,0.0,0.0,0.0,0.0,0.0,0.0,0.0,0.0,0.0,0.0,0.0,0.0,0.0,0.0,0.0,0.0,0.0,0.0,0.0,0.0,0.0,0.0,0.0,0.0,0.0,0.0,0.0]},{"header":{"parameterUnit":"m.s-1","parameterCategory":1,"la1":30.6,"la2":29.2853,"lo1":-89.7004,"lo2":-87.6739,"dy":0.0162,"dx":0.0183,"nx":112,"ny":82,"refTime":"2026-04-04T00:00:00:Z","depth":0,"parameterNumber":3,"parameterNumberName":"V-component_of_WINDS"},"data":[0.0,0.0,0.0,0.0,0.0,0.0,0.0,0.0,0.0,0.0,0.0,0.0,0.0,0.0,0.0,0.0,0.0,0.0,0.0,0.0,0.0,0.0,0.0,0.0,0.0,0.0,0.0,0.0,0.0,0.0,0.0,0.0,0.0,0.0,0.0,0.0,0.0,0.0,0.0,0.0,0.0,0.0,0.0,0.0,0.0,0.0,0.0,0.0,0.0,0.0,0.0,0.0,0.0,0.0,0.0,0.0,0.0,0.0,0.0,0.0,0.0,0.0,0.0,0.0,0.0,0.0,0.0,0.0,0.0,0.0,0.0,0.0,0.0,0.0,0.0,0.0,0.0,0.0,0.0,0.0,0.0,0.0,0.0,0.0,0.0,0.0,0.0,0.0,0.0,0.0,5.8555,6.6523,7.8008,8.4101,8.1601,8.0469,7.6289,6.7851,0.0,0.0,0.0,0.0,0.0,0.0,0.0,0.0,0.0,0.0,0.0,0.0,0.0,0.0,0.0,0.0,0.0,0.0,0.0,0.0,0.0,0.0,0.0,0.0,0.0,0.0,0.0,0.0,0.0,0.0,0.0,0.0,0.0,0.0,0.0,0.0,0.0,0.0,0.0,0.0,0.0,0.0,0.0,0.0,0.0,0.0,0.0,0.0,0.0,0.0,0.0,0.0,0.0,0.0,0.0,0.0,0.0,0.0,0.0,0.0,0.0,0.0,0.0,0.0,0.0,0.0,0.0,0.0,0.0,0.0,0.0,0.0,0.0,0.0,0.0,0.0,0.0,0.0,0.0,0.0,0.0,0.0,0.0,0.0,0.0,0.0,0.0,0.0,0.0,0.0,0.0,0.0,0.0,0.0,0.0,0.0,0.0,0.0,0.0,0.0,0.0,0.0,0.0,0.0,6.1289,7.4062,8.1797,8.5234,8.3359,8.1719,7.7461,6.9609,0.0,0.0,0.0,0.0,0.0,0.0,0.0,0.0,0.0,0.0,0.0,0.0,0.0,0.0,0.0,0.0,0.0,0.0,0.0,0.0,0.0,0.0,0.0,0.0,0.0,0.0,0.0,0.0,0.0,0.0,0.0,0.0,0.0,0.0,0.0,0.0,0.0,0.0,0.0,0.0,0.0,0.0,0.0,0.0,0.0,0.0,0.0,0.0,0.0,0.0,0.0,0.0,0.0,0.0,0.0,0.0,0.0,0.0,0.0,0.0,0.0,0.0,0.0,0.0,0.0,0.0,0.0,0.0,0.0,0.0,0.0,0.0,0.0,0.0,0.0,0.0,0.0,0.0,0.0,0.0,0.0,0.0,0.0,0.0,0.0,0.0,0.0,0.0,0.0,0.0,0.0,0.0,0.0,0.0,0.0,0.0,0.0,0.0,0.0,0.0,0.0,0.0,0.0,6.1562,6.9336,7.707,8.2461,8.4414,8.1719,7.9922,7.5625,6.789,5.8515,0.0,0.0,0.0,0.0,0.0,0.0,0.0,0.0,0.0,0.0,0.0,0.0,0.0,0.0,0.0,0.0,0.0,0.0,0.0,0.0,0.0,0.0,0.0,0.0,0.0,0.0,0.0,0.0,0.0,0.0,0.0,0.0,0.0,0.0,0.0,0.0,0.0,0.0,0.0,0.0,0.0,0.0,0.0,0.0,0.0,0.0,0.0,0.0,0.0,0.0,0.0,0.0,0.0,0.0,0.0,0.0,0.0,0.0,0.0,0.0,0.0,0.0,0.0,0.0,0.0,0.0,0.0,0.0,0.0,0.0,0.0,0.0,0.0,0.0,0.0,0.0,0.0,0.0,0.0,0.0,0.0,0.0,0.0,0.0,0.0,0.0,0.0,0.0,0.0,0.0,0.0,0.0,0.0,0.0,0.0,0.0,0.0,0.0,0.0,0.0,0.0,0.0,7.1523,7.75,7.9492,8.3008,8.3633,7.9765,7.7305,7.2656,6.4844,5.6289,0.0,0.0,0.0,0.0,0.0,0.0,0.0,0.0,0.0,0.0,0.0,0.0,0.0,0.0,0.0,0.0,0.0,0.0,0.0,0.0,0.0,0.0,0.0,0.0,0.0,0.0,0.0,0.0,0.0,0.0,0.0,0.0,0.0,0.0,0.0,0.0,0.0,0.0,0.0,0.0,0.0,0.0,0.0,0.0,0.0,0.0,0.0,0.0,0.0,0.0,0.0,0.0,0.0,0.0,0.0,0.0,0.0,0.0,0.0,0.0,0.0,0.0,0.0,0.0,0.0,0.0,0.0,0.0,0.0,0.0,0.0,0.0,0.0,0.0,0.0,0.0,0.0,0.0,0.0,0.0,0.0,0.0,0.0,0.0,0.0,0.0,0.0,0.0,0.0,0.0,0.0,0.0,0.0,0.0,0.0,0.0,0.0,0.0,0.0,0.0,0.0,0.0,7.668,8.3047,8.3203,8.4961,8.4062,7.9023,7.4765,6.9062,6.125,5.2695,0.0,0.0,0.0,0.0,0.0,0.0,0.0,0.0,0.0,0.0,0.0,0.0,0.0,0.0,0.0,0.0,0.0,0.0,0.0,0.0,0.0,0.0,0.0,0.0,0.0,0.0,0.0,0.0,0.0,0.0,0.0,0.0,0.0,0.0,0.0,0.0,0.0,0.0,0.0,0.0,0.0,0.0,0.0,0.0,0.0,0.0,0.0,0.0,0.0,0.0,0.0,0.0,0.0,0.0,0.0,0.0,0.0,0.0,0.0,0.0,0.0,0.0,0.0,0.0,0.0,0.0,0.0,0.0,0.0,0.0,0.0,0.0,0.0,0.0,0.0,0.0,0.0,0.0,0.0,0.0,0.0,0.0,0.0,0.0,0.0,0.0,0.0,0.0,0.0,0.0,0.0,0.0,0.0,0.0,0.0,0.0,0.0,0.0,0.0,0.0,0.0,0.0,7.7226,8.3594,0.0,8.6094,8.5469,7.9726,7.5781,7.0078,6.1758,0.0,0.0,0.0,0.0,0.0,0.0,0.0,0.0,0.0,0.0,0.0,0.0,0.0,0.0,0.0,0.0,0.0,0.0,0.0,0.0,0.0,0.0,0.0,0.0,0.0,0.0,0.0,0.0,0.0,0.0,0.0,0.0,0.0,0.0,0.0,0.0,0.0,0.0,0.0,0.0,0.0,0.0,0.0,0.0,0.0,0.0,0.0,0.0,0.0,0.0,0.0,0.0,0.0,0.0,0.0,0.0,0.0,0.0,0.0,0.0,0.0,0.0,0.0,0.0,0.0,0.0,0.0,0.0,0.0,0.0,0.0,0.0,0.0,0.0,0.0,0.0,0.0,0.0,0.0,0.0,0.0,0.0,0.0,0.0,0.0,0.0,0.0,0.0,0.0,0.0,0.0,0.0,0.0,0.0,0.0,0.0,0.0,0.0,0.0,0.0,0.0,0.0,6.7851,7.7539,8.3711,0.0,8.6367,8.5664,8.0156,7.6328,7.0625,6.2226,0.0,0.0,0.0,0.0,0.0,0.0,0.0,0.0,0.0,0.0,0.0,0.0,0.0,0.0,0.0,0.0,0.0,0.0,0.0,0.0,0.0,0.0,0.0,0.0,0.0,0.0,0.0,0.0,0.0,0.0,0.0,0.0,0.0,0.0,0.0,0.0,0.0,0.0,0.0,0.0,0.0,0.0,0.0,0.0,0.0,0.0,0.0,0.0,0.0,0.0,0.0,0.0,0.0,0.0,0.0,0.0,0.0,0.0,0.0,0.0,0.0,0.0,0.0,0.0,0.0,0.0,0.0,0.0,0.0,0.0,0.0,0.0,0.0,0.0,0.0,0.0,0.0,0.0,0.0,0.0,0.0,0.0,0.0,0.0,0.0,0.0,0.0,0.0,0.0,0.0,0.0,0.0,0.0,0.0,0.0,0.0,0.0,0.0,0.0,0.0,0.0,0.0,6.9492,7.8281,8.3984,8.4844,8.5742,8.4531,8.0156,7.5898,7.0078,0.0,0.0,0.0,0.0,0.0,0.0,0.0,0.0,0.0,0.0,0.0,0.0,0.0,0.0,0.0,0.0,0.0,0.0,0.0,0.0,0.0,0.0,0.0,0.0,0.0,0.0,0.0,0.0,0.0,0.0,0.0,0.0,0.0,0.0,0.0,0.0,0.0,0.0,0.0,0.0,0.0,0.0,0.0,0.0,0.0,0.0,0.0,0.0,0.0,0.0,0.0,0.0,0.0,0.0,0.0,0.0,0.0,0.0,0.0,0.0,0.0,0.0,0.0,0.0,0.0,0.0,0.0,0.0,0.0,0.0,0.0,0.0,0.0,0.0,0.0,0.0,0.0,0.0,0.0,0.0,0.0,0.0,0.0,0.0,0.0,0.0,0.0,0.0,0.0,0.0,0.0,0.0,0.0,0.0,0.0,0.0,0.0,0.0,0.0,0.0,0.0,0.0,0.0,6.9726,8.0351,8.7539,8.8398,9.039,9.0117,8.6367,8.2695,7.6719,6.7695,0.0,0.0,0.0,0.0,0.0,0.0,0.0,0.0,0.0,0.0,0.0,0.0,0.0,0.0,0.0,0.0,0.0,0.0,0.0,0.0,0.0,0.0,0.0,0.0,0.0,0.0,0.0,0.0,0.0,0.0,0.0,0.0,0.0,0.0,0.0,0.0,0.0,0.0,0.0,0.0,0.0,0.0,0.0,0.0,0.0,0.0,0.0,0.0,0.0,0.0,0.0,0.0,0.0,0.0,0.0,0.0,0.0,0.0,0.0,0.0,0.0,0.0,0.0,0.0,0.0,0.0,0.0,0.0,0.0,0.0,0.0,0.0,0.0,0.0,0.0,0.0,0.0,0.0,0.0,0.0,0.0,0.0,0.0,0.0,0.0,0.0,0.0,0.0,0.0,0.0,0.0,0.0,0.0,0.0,0.0,0.0,0.0,0.0,0.0,0.0,0.0,0.0,7.0195,8.0547,8.7656,8.8867,9.1015,9.1367,8.8906,8.6523,8.1094,7.1562,0.0,0.0,0.0,0.0,0.0,0.0,0.0,0.0,0.0,0.0,0.0,0.0,0.0,0.0,0.0,0.0,0.0,0.0,0.0,0.0,0.0,0.0,0.0,0.0,0.0,0.0,0.0,0.0,0.0,0.0,0.0,0.0,0.0,0.0,0.0,0.0,0.0,0.0,0.0,0.0,0.0,0.0,0.0,0.0,0.0,0.0,0.0,0.0,0.0,0.0,0.0,0.0,0.0,0.0,0.0,0.0,0.0,0.0,0.0,0.0,0.0,0.0,0.0,0.0,0.0,0.0,0.0,0.0,0.0,0.0,0.0,0.0,0.0,0.0,0.0,0.0,0.0,0.0,0.0,0.0,0.0,0.0,0.0,0.0,0.0,0.0,0.0,0.0,0.0,0.0,0.0,0.0,0.0,0.0,0.0,0.0,0.0,0.0,0.0,0.0,0.0,0.0,7.1172,8.0195,8.6367,8.8047,8.9726,9.0312,8.9375,8.8398,8.3867,7.4492,0.0,0.0,0.0,0.0,0.0,0.0,0.0,0.0,0.0,0.0,0.0,0.0,0.0,0.0,0.0,0.0,0.0,0.0,0.0,0.0,0.0,0.0,0.0,0.0,0.0,0.0,0.0,0.0,0.0,0.0,0.0,0.0,0.0,0.0,0.0,0.0,0.0,0.0,0.0,0.0,0.0,0.0,0.0,0.0,0.0,0.0,0.0,0.0,0.0,0.0,0.0,0.0,0.0,0.0,0.0,0.0,0.0,0.0,0.0,0.0,5.449,0.0,0.0,0.0,0.0,0.0,0.0,0.0,0.0,0.0,0.0,0.0,0.0,0.0,0.0,0.0,0.0,0.0,0.0,0.0,0.0,0.0,0.0,0.0,0.0,0.0,0.0,0.0,0.0,0.0,0.0,0.0,0.0,0.0,0.0,0.0,0.0,0.0,0.0,0.0,0.0,0.0,7.4023,8.4961,9.2383,9.3437,9.5078,9.5469,9.3945,9.1758,8.6992,7.8867,6.9648,0.0,0.0,0.0,0.0,0.0,0.0,0.0,0.0,0.0,0.0,0.0,0.0,0.0,0.0,0.0,0.0,0.0,0.0,0.0,0.0,0.0,0.0,0.0,0.0,0.0,0.0,0.0,0.0,0.0,0.0,0.0,0.0,0.0,0.0,0.0,0.0,0.0,0.0,0.0,0.0,0.0,0.0,0.0,0.0,0.0,0.0,0.0,0.0,0.0,0.0,0.0,0.0,0.0,0.0,0.0,0.0,0.0,0.0,0.0,0.0,6.0112,0.0,0.0,0.0,0.0,0.0,0.0,0.0,0.0,0.0,0.0,0.0,0.0,0.0,0.0,0.0,0.0,0.0,0.0,0.0,0.0,0.0,0.0,0.0,0.0,0.0,0.0,0.0,0.0,0.0,0.0,0.0,0.0,0.0,0.0,0.0,0.0,0.0,0.0,0.0,0.0,7.5937,8.6562,9.3789,9.5078,9.6367,9.6601,9.5312,9.3203,8.8945,8.1992,7.4258,0.0,0.0,0.0,0.0,0.0,0.0,0.0,0.0,0.0,0.0,0.0,0.0,0.0,0.0,0.0,0.0,0.0,0.0,0.0,0.0,0.0,0.0,0.0,0.0,0.0,0.0,0.0,0.0,0.0,0.0,0.0,0.0,0.0,0.0,0.0,0.0,0.0,0.0,0.0,0.0,0.0,0.0,0.0,0.0,0.0,0.0,0.0,0.0,0.0,0.0,0.0,0.0,0.0,7.9753,8.1439,8.3706,8.3827,8.4765,8.5819,7.7377,7.2651,7.0742,6.9017,0.0,0.0,0.0,0.0,0.0,0.0,0.0,0.0,0.0,0.0,0.0,0.0,0.0,0.0,0.0,0.0,0.0,0.0,0.0,0.0,0.0,0.0,0.0,0.0,7.9805,7.8789,0.0,0.0,0.0,0.0,0.0,0.0,0.0,0.0,0.0,0.0,0.0,0.0,7.7812,8.75,9.4101,9.5703,9.6523,9.6562,9.5703,9.3906,9.0508,8.5078,7.9062,7.2578,0.0,0.0,0.0,0.0,0.0,0.0,0.0,0.0,0.0,0.0,0.0,0.0,0.0,0.0,0.0,0.0,0.0,0.0,0.0,0.0,0.0,0.0,0.0,0.0,0.0,0.0,0.0,0.0,0.0,0.0,0.0,0.0,5.2789,5.3891,0.0,0.0,0.0,0.0,0.0,0.0,0.0,0.0,0.0,0.0,0.0,0.0,0.0,7.8077,8.237,8.6627,8.9289,9.0394,9.1973,9.3311,9.4409,9.5156,9.6054,9.6953,9.6326,0.0,8.144,7.9683,0.0,0.0,0.0,0.0,0.0,0.0,0.0,0.0,0.0,0.0,0.0,0.0,0.0,0.0,0.0,0.0,0.0,0.0,0.0,0.0,0.0,0.0,8.6914,8.789,9.0039,9.1289,0.0,8.2265,7.4961,6.9961,6.6133,0.0,0.0,0.0,0.0,0.0,0.0,0.0,8.0742,9.0703,9.7422,9.8398,9.8594,9.832,9.7422,9.5117,9.2422,8.9336,8.3476,7.8359,7.4375,6.6719,0.0,0.0,0.0,0.0,0.0,0.0,0.0,0.0,0.0,0.0,0.0,0.0,0.0,0.0,0.0,0.0,0.0,0.0,0.0,0.0,0.0,0.0,0.0,0.0,0.0,0.0,0.0,0.0,0.0,5.4648,5.943,6.0758,6.1034,6.0705,0.0,0.0,0.0,0.0,0.0,0.0,0.0,0.0,0.0,8.1786,8.5768,8.9867,9.4122,9.8494,10.1385,10.2681,10.3881,10.4986,10.5809,10.621,10.6601,10.6992,10.789,10.4882,9.8944,9.1872,8.6209,8.1367,0.0,0.0,0.0,0.0,7.3504,7.553,7.946,7.9689,0.0,7.7659,0.0,0.0,0.0,0.0,0.0,0.0,0.0,0.0,0.0,0.0,9.2578,9.3437,9.4883,9.582,9.4961,9.1523,8.664,0.0,7.5898,7.1133,6.3672,0.0,0.0,0.0,0.0,7.4961,8.2773,9.2344,9.875,9.9648,10.0195,10.0312,9.9922,9.7969,9.5898,9.3789,9.0234,8.6054,8.1172,7.582,6.9805,0.0,0.0,0.0,0.0,0.0,0.0,0.0,0.0,0.0,0.0,0.0,0.0,0.0,0.0,0.0,0.0,0.0,0.0,0.0,0.0,0.0,0.0,0.0,0.0,0.0,0.0,0.0,0.0,6.1804,6.6683,6.8476,6.9178,6.8942,0.0,0.0,0.0,0.0,0.0,0.0,8.081,8.3504,8.7212,9.2131,9.6035,9.99,10.3804,10.7512,11.0206,11.1807,11.2505,11.3415,11.4392,11.4487,11.4491,11.4608,11.5389,11.4686,11.2108,10.2694,9.6249,9.1797,8.6172,8.3867,8.3671,8.3899,8.5065,8.7168,9.1249,9.1512,8.9947,8.9286,8.5598,8.0732,7.7295,0.0,0.0,0.0,0.0,8.4101,8.8867,9.3633,9.7383,9.8242,9.9101,9.9414,9.8359,9.7969,9.5508,0.0,8.375,7.918,7.1211,0.0,0.0,0.0,0.0,7.7851,8.4961,9.3554,9.9336,10.0195,10.0898,10.1289,10.1289,9.9883,9.8359,9.6914,9.5195,9.2109,8.7383,8.3437,7.7734,7.0039,0.0,0.0,0.0,0.0,0.0,0.0,0.0,0.0,0.0,0.0,0.0,0.0,0.0,0.0,0.0,0.0,0.0,0.0,0.0,0.0,0.0,0.0,0.0,0.0,0.0,0.0,0.0,0.0,0.0,7.7341,7.9123,0.0,0.0,0.0,0.0,8.1122,8.4634,8.8069,9.1547,9.42,9.7597,10.2008,10.4702,10.7395,11.0009,11.1885,11.3683,11.54,11.5498,11.6405,11.8008,11.7984,11.799,11.8107,11.9005,11.7911,11.5102,11.0506,10.6093,10.1797,9.7383,9.5156,9.4529,9.527,9.6667,9.8641,10.2116,10.2182,10.0684,10.0703,9.5608,8.8786,8.5349,8.3593,0.0,0.0,8.9297,9.2773,9.6289,9.9844,10.2695,10.3594,10.4492,10.4609,10.289,10.1914,9.9023,0.0,8.832,8.5156,7.8984,0.0,7.2265,7.4922,7.8359,8.2539,8.7812,9.4648,9.9336,10.0195,10.0312,10.039,10.039,9.9531,9.8594,9.7695,9.6054,9.4648,9.3476,8.8554,8.3359,7.8008,7.1211,0.0,0.0,0.0,0.0,0.0,0.0,0.0,0.0,0.0,0.0,0.0,0.0,0.0,0.0,0.0,0.0,0.0,0.0,0.0,0.0,0.0,0.0,0.0,0.0,0.0,0.0,0.0,0.0,8.6748,8.9367,0.0,8.9711,8.776,8.8112,9.1936,9.5918,9.9392,10.2281,10.5404,10.841,11.0987,11.3095,11.4813,11.6296,11.7506,11.8404,11.8992,11.9012,11.9293,11.9881,12.0013,12.0018,12.0018,12.0292,11.9902,11.8809,11.62,11.2218,10.7491,10.3703,10.1982,10.1706,10.1504,10.2081,10.3594,10.6981,10.7089,10.5408,10.3706,10.0204,9.6192,9.3861,9.2185,9.1483,9.3515,9.5742,9.8086,10.039,10.2812,10.4687,10.5,10.5312,10.4883,10.2617,10.1406,9.9453,9.5039,9.3711,9.1719,8.6758,8.3711,8.2109,8.2461,8.4492,8.7226,9.0742,9.5781,9.9336,10.0195,10.0781,10.1406,10.1914,10.1719,10.0898,9.9453,9.8828,9.7617,9.5664,9.3828,8.9883,8.3594,7.8828,7.1953,0.0,0.0,0.0,0.0,0.0,0.0,0.0,0.0,0.0,0.0,0.0,0.0,0.0,0.0,0.0,0.0,0.0,0.0,0.0,0.0,0.0,0.0,0.0,0.0,0.0,8.2958,9.064,9.5014,9.8065,9.9604,9.9027,9.771,9.8065,10.0993,10.4311,10.7083,10.9191,11.1689,11.3917,11.5596,11.7116,11.8404,11.9497,12.0707,12.1215,12.1215,12.1503,12.1705,12.1705,12.1718,12.1683,12.1683,12.1683,12.1605,12.1215,12.0082,11.7388,11.3717,11.0212,10.8887,10.8808,10.7901,10.8089,10.9215,11.1501,11.1498,11.0218,10.7886,10.6018,10.4308,10.2605,10.1087,10.0191,10.1288,10.2187,10.3203,10.4297,10.5508,10.6289,10.6289,10.6289,10.5586,10.3008,10.1289,9.9726,9.7734,9.7109,9.582,9.2344,9.0586,8.957,8.9297,8.9922,9.1406,9.3984,9.7578,10.0117,10.0703,10.1484,10.2187,10.2383,10.25,10.1719,9.9961,9.9609,9.8554,9.6562,9.6211,9.3203,8.7148,8.1367,7.4023,6.5156,0.0,0.0,0.0,0.0,0.0,0.0,0.0,0.0,0.0,0.0,0.0,0.0,0.0,0.0,0.0,0.0,0.0,0.0,0.0,0.0,0.0,0.0,0.0,8.1065,8.9926,9.7607,10.2017,10.5091,10.6809,10.6916,10.6207,10.6497,10.8215,10.9814,11.1104,11.1885,11.2707,11.3917,11.5713,11.6608,11.7819,11.9614,12.1291,12.2189,12.2189,12.3011,12.3401,12.3401,12.3401,12.3401,12.3401,12.3401,12.2894,12.211,12.211,12.1605,12.0517,11.7117,11.58,11.5683,11.4786,11.5011,11.5697,11.5719,11.5686,11.5504,11.3709,11.3212,11.2794,11.1115,10.9989,10.9292,10.9214,10.8592,10.789,10.8008,10.8008,10.8008,10.8008,10.8086,10.7383,10.4804,10.2187,10.0117,9.9219,9.8359,9.7265,9.5586,9.4648,9.4375,9.5234,9.4648,0.0,9.7461,10.0,10.1601,10.1601,10.2383,10.25,10.1719,10.1601,10.0781,9.9023,9.8086,9.7265,9.6445,9.5625,9.3164,8.8828,7.8711,7.0586,6.457,0.0,0.0,0.0,0.0,0.0,0.0,0.0,0.0,0.0,0.0,0.0,0.0,0.0,0.0,0.0,0.0,0.0,0.0,0.0,0.0,0.0,7.8938,8.4796,8.7357,9.5926,10.3301,10.7086,11.1198,11.3791,11.3911,11.4383,11.4891,11.5398,11.6413,11.6608,11.5593,11.4617,11.4813,11.6608,11.6882,11.8404,12.141,12.3713,12.4611,12.3984,12.4179,12.3987,12.3401,12.3401,12.3401,12.3401,12.3401,12.3284,12.3011,12.2386,12.1996,12.1488,11.9315,11.8109,11.7486,11.6588,11.6389,11.6617,11.5908,11.6105,11.65,11.529,11.4591,11.3702,11.2085,11.0492,10.9012,10.7811,10.6797,10.6289,10.6914,10.75,10.8203,10.8789,10.9414,10.8984,10.5781,10.3594,10.1719,10.0195,9.9765,9.9258,9.8125,9.8281,9.8633,9.8867,9.8672,0.0,9.9492,10.0195,10.0898,10.1484,10.1797,10.1914,10.1601,10.1015,9.9648,9.7344,9.6367,9.5508,9.4648,9.5,9.3437,8.9726,8.2578,7.6211,0.0,0.0,0.0,0.0,0.0,0.0,0.0,0.0,0.0,0.0,0.0,0.0,0.0,0.0,0.0,0.0,0.0,0.0,0.0,0.0,0.0,0.0,8.694,9.3267,9.6476,10.2383,10.7791,11.1786,11.4991,11.7301,11.8116,11.8817,11.9189,11.9189,11.9615,11.9192,11.7491,11.5785,11.5486,11.6904,11.7306,11.899,12.211,12.5002,12.6095,12.5197,12.5197,12.4806,12.3909,12.3596,12.3401,12.3401,12.3401,12.3401,12.3401,12.2894,12.2581,0.0,0.0,0.0,0.0,0.0,11.7584,11.6999,11.6804,11.7083,11.7404,11.6506,11.5887,11.4999,11.2595,11.0415,10.8311,10.6209,10.4492,10.3594,10.4804,10.6015,10.7304,10.8515,10.9687,10.9883,10.7109,10.4609,10.2617,10.1601,10.0781,0.0,10.0586,10.1406,10.1914,10.1914,10.1601,10.1406,10.1406,10.1406,10.1601,10.2109,10.2109,10.2109,10.2109,10.1015,0.0,0.0,0.0,9.4961,9.4453,9.457,0.0,0.0,0.0,0.0,0.0,0.0,0.0,0.0,6.9922,7.2734,0.0,0.0,0.0,0.0,0.0,0.0,0.0,0.0,0.0,0.0,0.0,0.0,0.0,0.0,0.0,0.0,9.3903,10.0981,10.6203,10.8684,11.1499,11.5588,11.7089,11.8604,12.0289,12.0688,12.0911,12.0989,12.0989,12.0312,11.8604,11.6902,0.0,0.0,0.0,11.981,12.2384,12.5704,12.6915,12.6095,12.6095,12.5704,12.4804,12.3987,12.3713,12.3713,12.3713,12.3596,12.3518,12.3518,12.3518,12.3206,12.1605,12.0903,12.0785,12.0005,11.8716,11.7506,11.8287,0.0,0.0,11.7614,11.7313,11.67,11.3187,11.0381,10.7808,10.5191,10.2616,10.1015,10.2695,10.4609,10.6406,10.8008,10.9804,11.0703,10.8789,10.6015,10.3711,10.3515,10.2187,10.1719,10.3203,10.3984,10.4297,10.4297,10.3594,10.3008,10.3008,10.3008,10.289,10.289,0.0,0.0,10.2812,10.1211,10.0195,10.0,9.707,9.539,9.5469,9.4726,9.4414,9.4609,9.2265,8.9531,8.6484,8.7344,8.7422,8.6679,8.207,8.2617,0.0,0.0,0.0,0.0,0.0,0.0,0.0,0.0,0.0,0.0,0.0,0.0,0.0,0.0,0.0,9.2257,9.8096,10.3905,10.9703,11.3219,11.5499,11.6388,11.8699,12.0617,12.1687,12.2602,12.3413,12.4112,12.4112,12.34,12.1791,11.9606,11.8803,11.9788,12.0083,12.1605,12.4179,12.6915,12.7812,12.6995,12.6995,0.0,12.5704,12.5587,12.5509,12.5509,12.5509,12.5119,12.4414,12.4414,12.3987,12.3284,12.2308,12.18,12.1683,12.0903,12.0317,12.0083,12.0317,12.0282,12.0211,11.9407,11.9103,11.8408,11.4989,11.2104,0.0,10.6913,10.4414,10.2812,10.4492,10.6797,10.8984,11.0703,11.3008,11.4101,11.1718,11.0117,10.8711,10.7304,10.6719,10.6601,10.6992,10.6015,10.5195,10.5195,10.4492,10.3906,10.3906,10.3281,10.289,10.289,10.289,10.2617,10.1914,10.0898,9.9687,9.8281,9.6953,9.6523,9.7187,9.7031,9.7617,9.9023,9.789,9.6914,9.6289,9.7148,9.7851,9.8203,9.1797,9.0859,0.0,0.0,0.0,0.0,0.0,0.0,0.0,0.0,0.0,0.0,0.0,7.9208,8.3439,0.0,9.3326,9.8019,10.2712,10.7405,11.2099,11.5984,11.8491,11.8613,11.9788,12.1193,12.2604,12.3298,12.4021,12.4788,12.4788,12.4419,12.3217,12.1683,12.1117,12.1714,12.231,12.3389,12.5204,12.7408,12.8207,12.7792,12.7417,12.6995,12.6602,12.6212,12.6017,12.6017,12.6017,12.5782,12.5314,12.4882,12.4182,12.3401,12.2894,12.2503,12.1993,12.1605,12.1215,12.0785,12.0785,12.0794,12.0688,12.0307,11.9892,11.9007,11.6008,11.3317,11.0702,10.8086,10.5781,10.4609,10.6289,10.8281,11.039,11.2109,11.4218,11.539,11.4101,11.2812,11.1601,11.0781,10.9883,10.9297,10.9297,10.8593,10.7617,10.6289,10.5703,10.5312,10.4883,10.4492,10.4219,10.4219,10.4219,10.3984,10.3594,10.2812,10.1484,9.9765,9.9687,9.9687,9.9648,10.0117,10.0703,10.1601,10.1211,10.1015,10.1015,10.2304,10.3086,10.3515,10.1289,10.0781,0.0,0.0,0.0,0.0,0.0,0.0,0.0,7.2129,7.3392,7.8861,8.3939,8.8248,9.1086,9.5249,9.9288,10.2597,10.6405,11.0214,11.3714,11.7715,12.0289,12.0379,12.0786,12.1693,12.3282,12.3722,12.4198,12.5009,12.5087,12.4895,12.43,12.3791,12.3604,12.3705,12.4598,12.5391,12.6108,12.7582,12.8414,12.8413,12.7794,12.75,12.7383,12.6797,12.6485,12.6485,12.629,12.6212,12.6212,12.5314,12.4494,12.3909,12.3909,12.3518,12.2815,12.2503,12.1918,12.1293,12.1293,12.1306,12.1281,12.1093,12.0604,11.9603,11.7183,11.4803,11.2383,10.9883,10.8008,10.7109,10.8398,11.0117,11.1797,11.3281,11.5,11.6211,11.6015,11.4883,11.3789,11.3515,11.2304,11.1289,11.0898,11.0898,11.0117,10.7812,10.7187,10.6719,10.6093,10.5703,10.5508,10.5508,10.5508,10.5586,10.5703,10.5195,10.4297,10.289,10.3515,10.3594,10.289,10.3515,10.3984,10.4101,10.4101,10.4219,10.4414,10.5781,10.6719,10.6992,10.9101,10.9101,5.5857,6.1396,6.9975,7.3783,7.8284,8.1793,0.0,8.3131,8.517,8.8902,9.3095,9.6442,9.7596,9.9481,10.1712,10.4405,10.7098,11.0406,11.4599,11.81,12.0304,12.0316,12.1712,12.2994,12.3891,12.4711,12.5492,12.6378,12.6505,12.6487,12.6497,12.6498,12.6721,12.6782,12.7084,12.7313,12.7581,12.7907,12.8206,12.8214,12.8282,12.8398,12.8398,12.8281,12.8203,12.8203,12.7383,12.7112,12.6995,12.6212,12.5782,12.5704,12.5704,12.5587,12.5392,12.3791,12.3206,12.3089,12.3089,12.3091,12.2983,12.2196,12.1894,12.1509,11.9686,11.789,11.6093,11.4297,11.25,11.1211,11.1406,11.2812,11.4297,11.5312,11.6797,11.7812,11.6992,11.6718,11.6093,11.4609,11.4218,11.3593,11.1992,11.1797,11.1406,11.0312,10.8789,10.7812,10.7695,10.6406,10.5508,10.5508,10.5508,10.5781,10.6484,10.7187,10.75,10.7304,10.7383,10.7383,10.7304,10.7383,10.7812,10.8593,10.8593,10.8984,10.9687,10.9883,11.0781,11.2304,11.2617,11.1797,6.4128,6.959,7.7246,8.217,8.7555,9.1941,9.2988,9.3758,9.5057,9.798,10.1481,10.4097,10.3982,10.4905,10.6213,10.779,10.979,11.2291,11.5484,11.8908,12.0485,11.8985,11.8985,11.9908,12.1716,12.2678,12.3716,12.5101,12.6101,12.67,12.6791,12.7004,12.7086,12.7197,12.73,12.7505,12.7721,12.7794,12.8006,12.8107,12.8189,12.8316,12.8316,12.8316,12.8382,12.8387,12.8093,12.7683,12.719,12.6797,12.6407,12.6017,12.6485,12.6407,12.59,12.4611,12.4191,12.4084,12.3618,12.3389,12.3285,12.2984,12.2484,12.1983,12.1286,12.0195,11.9101,11.8398,11.7695,11.7109,11.7109,11.7695,11.8203,11.8008,11.8515,11.8789,11.789,11.7383,11.6797,11.6093,11.5586,11.4883,11.3593,11.3398,11.3086,11.2187,11.0586,10.9492,10.9492,10.8906,10.8515,10.8515,10.8515,10.8593,10.8906,10.9297,10.9492,10.9492,10.9492,10.9492,10.9492,10.9492,10.9687,11.0,11.0117,11.0195,11.0586,11.1601,11.25,11.3203,11.4218,11.4804,7.1206,7.6746,8.3324,8.9325,9.5057,9.9635,10.1096,10.1683,10.2404,10.4212,10.6713,10.829,10.7521,10.779,10.8598,10.9983,11.1791,11.3907,11.6484,11.9611,12.0677,11.81,11.6792,11.6676,11.81,11.9792,12.1677,12.3601,12.5601,12.6688,12.6822,12.6903,12.6916,12.7004,12.7079,12.7214,12.7399,12.7497,12.7713,12.7805,12.8006,12.7991,12.7991,12.8086,12.8202,12.8309,12.8389,12.8084,12.7617,12.7617,12.7188,12.6719,12.7305,12.7193,12.6612,12.5714,12.51,12.4605,12.3986,12.3605,12.3418,12.3383,12.2998,12.2495,12.2614,12.2108,12.1601,12.1289,12.1289,12.1211,12.1015,12.0898,12.0703,12.0117,11.9804,11.9414,11.8789,11.8008,11.7304,11.6992,11.6484,11.5898,11.5,11.4609,11.4297,11.3711,11.2304,11.1211,11.1015,11.0703,11.0586,11.0586,11.0781,11.1015,11.1015,11.1211,11.1406,11.1718,11.1718,11.1797,11.1992,11.1992,11.1992,11.1992,11.1992,11.1992,11.1992,11.3281,11.3984,11.4297,11.5508,11.7109,7.506,8.2016,8.8594,9.4595,9.9904,10.3905,10.48,10.5597,10.6203,10.628,10.7098,10.7521,10.6587,10.651,10.729,10.979,11.2291,11.4907,11.7407,11.9985,12.0677,11.81,11.6292,11.4714,11.3099,11.6715,12.0216,12.2704,12.5293,12.669,12.669,12.669,12.6703,12.6703,12.6703,12.6813,12.6787,12.7008,12.7216,12.7279,12.7519,12.7593,12.7593,12.7787,12.7889,12.809,12.8185,12.8311,12.8515,12.8515,12.8398,12.8398,12.8515,12.849,12.8391,12.7495,12.6206,12.4685,12.4702,12.4081,12.3381,12.3391,12.3393,12.3395,12.3398,12.3398,12.3203,12.2383,12.2187,12.1992,12.1093,12.0898,12.0898,12.0898,12.0195,11.9609,11.9609,11.8906,11.8008,11.7187,11.6992,11.6718,11.5781,11.5,11.4492,11.4492,11.3711,11.2812,11.1992,11.1093,11.0586,11.0586,11.1406,11.1914,11.1914,11.2617,11.3515,11.4297,11.4414,11.4687,11.5508,11.5508,11.5508,11.5508,11.5508,11.5508,11.5508,11.5586,11.6093,11.6914,11.6914,11.8281,7.9254,8.641,9.3018,9.8981,10.4289,10.8406,10.979,11.0791,11.0983,10.929,10.779,10.6703,10.651,10.6395,10.7395,11.0598,11.4599,11.7715,11.8484,12.0908,12.11,11.7407,11.4907,11.2906,11.1214,11.3907,11.6484,11.8484,12.21,12.4409,12.4909,12.6101,12.669,12.669,12.669,12.67,12.6791,12.6994,12.7104,12.7215,12.7413,12.7519,12.7488,12.778,12.8014,12.8113,12.8315,12.841,12.8515,12.8515,12.8515,12.8593,12.9101,12.9117,12.8588,12.8914,12.7909,12.6315,12.581,12.5385,12.4998,12.4491,12.4296,12.4218,12.3711,12.3515,12.3398,12.3086,12.3086,12.3008,12.2695,12.2617,12.25,12.1914,12.1484,12.1211,12.0586,12.0195,11.9804,11.8906,11.8711,11.8281,11.6797,11.6289,11.6015,11.539,11.4101,11.3086,11.2812,11.25,11.2304,11.2304,11.2617,11.2812,11.2812,11.3593,11.4218,11.4492,11.5,11.5508,11.5703,11.5703,11.5703,11.5703,11.5703,11.5703,11.5781,11.6289,11.6992,11.789,11.8515,11.9804,8.4563,9.171,9.8173,10.352,10.7982,11.1406,11.2483,11.3099,11.2599,10.9098,10.5905,10.3712,10.3712,10.3405,10.4702,10.9406,11.4714,11.8407,11.8985,12.0985,12.11,11.7407,11.4984,11.2791,11.0906,11.1906,11.3483,11.5495,11.9292,12.2216,12.3601,12.5601,12.669,12.669,12.669,12.6688,12.681,12.6803,12.6883,12.6999,12.7191,12.7294,12.7408,12.772,12.7905,12.8118,12.8315,12.841,12.8515,12.8515,12.8515,12.8593,12.9101,12.9004,12.8716,12.9195,12.8701,12.7615,12.6795,12.6288,12.5898,12.5117,12.4804,12.4609,12.3789,12.3515,12.3515,12.3515,12.3515,12.3515,12.3515,12.3515,12.3398,12.2812,12.2383,12.1992,12.1484,12.1093,12.0703,12.0195,11.9804,11.9218,11.8086,11.7383,11.6718,11.5781,11.4804,11.4101,11.4101,11.4101,11.4101,11.4101,11.4101,11.4101,11.4101,11.4609,11.5195,11.5781,11.6406,11.6992,11.75,11.7617,11.7617,11.7617,11.7617,11.7617,11.7617,11.8086,11.8711,11.9218,11.9804,12.0781,9.0941,9.7904,10.3982,10.8098,11.1021,11.2791,11.2791,11.2791,11.1214,10.5982,10.1481,9.8404,9.8404,9.775,9.9442,10.6405,11.2599,11.7188,11.8908,12.06,12.0716,11.8215,11.6407,11.4484,11.2022,11.0906,11.1291,11.3907,11.7215,12.01,12.2716,12.5293,12.669,12.669,12.669,12.669,12.669,12.669,12.669,12.669,12.6783,12.6905,12.71,12.7401,12.7685,12.809,12.818,12.8311,12.8515,12.8515,12.8515,12.8515,12.8515,12.8507,12.8614,12.8614,12.8587,12.8515,12.7695,12.6797,12.6015,12.5195,12.5,12.4804,12.3984,12.3789,12.3789,12.3789,12.3789,12.3789,12.3711,12.3711,12.3711,12.3593,12.289,12.2304,12.2304,12.1601,12.1015,12.1015,12.0312,11.9687,11.9687,11.8281,11.6914,11.6093,11.6015,11.5898,11.5781,11.5703,11.5703,11.5703,11.5703,11.5781,11.5781,11.5898,11.6601,11.8281,11.8398,11.9101,12.0781,12.0898,12.0898,12.0898,12.0898,12.0898,12.0898,12.0898,12.0898,12.1015,12.1015,12.1484,9.7942,10.4097,10.8983,11.1983,11.3714,11.4599,11.4599,11.3599,11.0906,10.452,9.7865,9.3133,9.3133,9.2979,9.5441,10.3597,11.1983,11.7907,11.8908,12.11,12.1793,11.9908,11.8215,11.6715,11.5407,11.2791,11.2214,11.4791,11.6907,11.9215,12.1793,12.4998,12.669,12.669,12.669,12.669,12.669,12.669,12.669,12.669,12.6903,12.6977,12.7078,12.7505,12.791,12.8113,12.8319,12.8413,12.8515,12.8515,12.8515,12.8518,12.8612,12.8595,12.8615,12.8583,12.8591,12.8593,12.8281,12.8086,12.789,12.7695,12.7617,12.7617,12.7383,12.7304,12.7304,12.7304,12.7304,12.7187,12.6484,12.6289,12.6015,12.4804,12.4297,12.3984,12.3281,12.3008,12.2617,12.1992,12.1211,12.0586,12.0586,12.0195,11.9804,11.9609,11.9609,11.8711,11.6093,11.5703,11.5703,11.5703,11.6289,11.6718,11.6718,11.7304,11.8086,11.9218,11.9297,11.9804,12.0898,12.0898,12.0898,12.0898,12.0898,12.0898,12.0898,12.0898,12.1601,12.2812,12.2812,12.3593,10.3212,10.8598,11.2791,11.4214,11.5215,11.5291,11.3494,11.1098,10.7213,9.9712,9.2095,8.6863,8.7248,8.7594,9.0902,10.0212,10.9483,11.5984,11.7292,11.9292,12.0216,11.8792,11.7484,11.6599,11.6484,11.4791,11.4407,11.6292,11.6907,11.8484,12.142,12.4805,12.669,12.669,12.669,12.669,12.669,12.669,12.669,12.669,12.6803,12.7015,12.7108,12.7519,12.8006,12.859,12.8817,12.9187,12.9608,12.9218,12.9108,12.9002,12.87,12.8799,12.9207,12.9212,12.9412,12.9687,12.9297,12.9218,12.8984,12.8281,12.8281,12.8515,12.8086,12.8281,12.8593,12.8593,12.8593,12.8398,12.75,12.7304,12.6914,12.5195,12.4804,12.4609,12.3711,12.3515,12.3203,12.2383,12.1797,12.1289,12.1015,12.0898,12.0898,12.0898,12.0898,12.0195,11.8281,11.8008,11.8008,11.8008,11.8398,11.8711,11.8711,11.9218,11.9804,12.0703,12.0703,12.1093,12.1992,12.1992,12.2187,12.2617,12.2617,12.2617,12.2617,12.3008,12.3515,12.4101,12.4414,12.5312,10.7521,11.1983,11.5495,11.5599,11.5995,11.5187,11.0714,10.6597,10.1414,9.2903,8.4978,7.99,8.0939,8.2208,8.641,9.648,10.6097,11.2906,11.4599,11.6215,11.71,11.6418,11.5599,11.561,11.6676,11.6907,11.7407,11.8407,11.7792,11.86,12.16,12.4909,12.669,12.669,12.669,12.669,12.669,12.669,12.669,12.669,12.681,12.6884,12.7109,12.7404,12.8115,12.9297,12.9395,13.0118,13.0995,13.0295,12.9881,12.9709,12.901,12.9191,12.9719,12.9916,13.0389,13.0898,13.0312,13.0,12.9687,12.8086,12.8203,12.8711,12.8008,12.8398,12.9101,12.9101,12.9218,12.9101,12.8203,12.8008,12.7617,12.5898,12.5508,12.5195,12.4218,12.3906,12.3593,12.289,12.2617,12.2304,12.1484,12.1289,12.1211,12.1211,12.1211,12.1289,12.1406,12.1093,12.0898,12.0898,12.1015,12.1093,12.1093,12.1093,12.1406,12.2304,12.2304,12.2617,12.3515,12.3593,12.3984,12.4804,12.4883,12.5,12.5,12.5703,12.5703,12.5117,12.5781,12.6718,11.2791,11.5099,11.6484,11.7215,11.6407,11.3984,10.8406,10.1702,9.4326,8.5824,7.7476,7.236,7.4623,7.8008,8.3555,9.3056,10.3597,11.0983,11.2022,11.3599,11.4907,11.5407,11.4714,11.5407,11.8407,11.9292,12.0292,12.1908,12.1908,12.2024,12.2601,12.5178,12.669,12.669,12.669,12.669,12.669,12.669,12.669,12.669,12.681,12.6883,12.7009,12.7313,12.8004,12.9102,12.931,0.0,13.0918,13.0801,13.0282,12.9701,12.9595,12.9201,12.8796,12.96,12.9998,13.0195,13.0781,13.0508,12.9883,12.9492,12.9609,12.9804,13.039,13.1093,13.1797,13.1797,13.2304,13.2695,13.1797,13.1601,13.1211,12.9414,12.8984,12.8593,12.6992,12.6093,12.5508,12.539,12.4804,12.4297,12.4101,12.3515,12.3008,12.3008,12.3008,12.3281,12.3984,12.2187,12.0898,12.0898,12.1484,12.1992,12.1992,12.1992,12.2304,12.3203,12.2617,12.2617,12.3515,12.4218,12.4609,12.4804,12.5508,12.5781,12.5781,12.5898,12.6289,12.6914,12.6992,12.789,11.4984,11.6907,11.76,11.6715,11.4907,11.1291,10.351,9.5172,8.6786,7.8707,7.1021,6.6359,6.8475,7.2322,7.8092,8.6987,9.7326,10.4905,10.6597,10.9098,11.1214,11.2483,11.2714,11.4214,11.81,11.9985,12.1485,12.2793,12.3293,12.3716,12.4216,12.5794,12.669,12.669,12.669,12.669,12.669,12.669,12.669,12.669,12.6712,12.681,12.6791,12.6987,12.7884,12.938,12.9513,13.0501,13.1885,13.1496,13.1117,13.0696,12.9888,12.969,12.9785,12.9785,13.0387,13.1211,13.1211,13.1211,13.1211,13.0703,13.0312,13.0,13.039,13.1093,13.1797,13.1797,13.25,13.289,13.1992,13.2187,13.2109,13.0312,12.9218,12.8281,12.75,12.6601,12.6015,12.6015,12.539,12.4804,12.4804,12.4101,12.3515,12.3515,12.3515,12.3711,12.4101,12.3008,12.2617,12.3515,12.3906,12.4218,12.4218,12.4218,12.4218,12.4218,12.3789,12.3515,12.3515,12.4297,12.5195,12.6093,12.6914,12.7617,12.8008,12.8515,12.8711,12.8711,12.9101,13.0,11.6099,11.7907,11.8407,11.5715,11.2714,10.778,9.7865,8.8132,7.9023,7.1559,6.4788,6.0825,6.2858,6.6551,7.2052,8.06,9.0364,9.7865,10.0596,10.4097,10.7098,10.9098,11.0291,11.2714,11.71,11.9985,12.1985,12.3101,12.4101,12.4986,12.5601,12.6294,12.669,12.669,12.669,12.669,12.669,12.669,12.669,12.669,12.669,12.6806,12.6998,12.7003,12.8091,12.9883,13.009,13.1189,13.279,13.2105,13.18,13.1682,13.0481,13.0411,13.0786,13.0418,13.1196,13.2382,13.1913,13.2109,13.2383,13.1718,13.0898,13.0117,13.0,13.0508,13.1211,13.1015,13.1718,13.2304,13.1406,13.1797,13.2187,13.0781,12.9414,12.8398,12.8203,12.75,12.6797,12.6601,12.6015,12.5586,12.5586,12.5,12.4609,12.4609,12.4609,12.4687,12.4804,12.4883,12.539,12.6992,12.6289,12.5781,12.6015,12.6015,12.5703,12.5117,12.5117,12.4687,12.4101,12.4883,12.6015,12.75,12.8398,12.9297,13.0195,13.0898,13.0781,13.0195,13.0898,13.1718,11.6984,11.8407,11.8292,11.4984,11.0521,10.3789,9.2172,8.1062,7.129,6.4442,5.8204,5.5011,5.828,6.166,6.6776,7.5322,8.4585,9.1864,9.522,9.9288,10.3087,10.6405,10.8213,11.1098,11.6099,11.96,12.2305,12.3909,12.5486,12.6486,12.6614,12.669,12.669,12.669,12.669,12.669,12.669,12.669,12.669,12.669,12.669,12.7101,12.7794,12.7888,12.9003,13.0682,13.0907,13.1589,0.0,13.2688,13.231,13.1702,13.1691,13.1318,13.0817,13.1687,13.2204,13.2484,13.3196,13.3006,13.25,13.2383,13.1797,13.0898,13.0117,13.0508,13.1015,13.0195,13.1211,13.2304,13.1406,13.1797,13.25,13.2304,13.2109,13.1797,13.1015,13.0195,12.9297,12.8515,12.8281,12.8281,12.8281,12.8203,12.8086,12.8086,12.8086,12.8398,12.9218,12.9297,12.9687,13.0586,12.7187,12.5195,12.5898,12.6015,12.6015,12.5898,12.5898,12.5898,12.5781,12.6601,12.75,12.8515,12.9297,13.0195,13.1093,13.1211,13.1211,13.1093,13.1211,13.1718,11.4522,11.6907,11.7292,11.2791,10.7098,9.9635,8.8218,7.6714,6.6789,6.1012,5.628,5.3774,5.5665,5.8742,6.3128,6.959,7.763,8.4401,8.8363,9.3864,9.8596,10.1481,10.4212,10.7713,11.2302,11.6176,12.01,12.3793,12.5678,12.669,12.669,12.669,12.669,12.669,12.669,12.669,12.669,12.669,12.669,12.669,12.669,12.7189,12.7992,12.8078,12.9096,13.0803,13.0891,13.1484,0.0,13.2489,13.2412,13.2088,13.1803,13.1384,13.1192,13.13,13.1694,13.2296,13.2792,13.3082,13.3281,13.3281,13.3008,13.25,13.1093,13.0586,13.0508,13.0586,13.1211,13.1601,13.1289,13.1797,13.25,13.25,13.25,13.2383,13.2109,13.1289,13.0586,13.0195,12.9687,12.9414,12.9414,12.8906,12.8593,12.8593,12.8593,12.8711,12.9101,12.9101,12.9492,13.0312,12.9414,12.8789,12.9101,12.9101,12.8906,12.8398,12.8281,12.8086,12.7617,12.8398,12.9297,13.0117,13.1015,13.2109,13.3515,13.3515,13.3789,13.4297,13.4297,13.4492,11.0906,11.4484,11.5715,11.0098,10.3607,9.5643,8.4294,7.3137,6.3743,5.8896,5.5395,5.3472,5.4357,5.6626,5.9973,6.4826,7.1174,7.7169,8.1977,8.8248,9.3489,9.6557,9.9942,10.3789,10.8301,11.3918,11.9215,12.3793,12.5678,12.669,12.669,12.669,12.669,12.669,12.669,12.669,12.669,12.669,12.669,12.669,12.6688,12.721,12.8113,12.8417,12.94,13.0791,13.1095,13.1586,0.0,13.2313,13.2415,13.2507,13.2012,13.1809,13.1913,13.1579,13.1909,13.258,13.2704,13.3196,13.3789,13.3789,13.3789,13.3593,13.2304,13.1406,13.0703,13.1093,13.1015,13.0898,13.1093,13.1484,13.1718,13.1718,13.1914,13.1992,13.1797,13.1211,13.0703,13.0508,13.0117,12.9883,12.9883,12.9804,12.9804,12.9804,13.0,13.0117,13.0117,13.0117,13.039,13.1015,13.1601,13.1797,13.1211,13.1211,13.0781,13.0,13.0117,12.9883,12.8984,12.9804,13.0703,13.1601,13.2187,13.3281,13.5,13.5,13.539,13.6289,13.6289,13.6289,10.6405,11.1483,11.3676,10.6916,10.0106,9.195,8.0062,7.009,6.2121,5.7901,5.4972,5.3472,5.4357,5.517,5.7132,6.1441,6.5743,7.0584,7.6561,8.2477,8.7786,9.2056,9.5518,9.9558,10.4684,11.3599,12.0485,12.3793,12.5678,12.669,12.669,12.669,12.669,12.669,12.669,12.669,12.669,12.669,12.669,12.669,12.681,12.7292,12.8113,12.9076,12.9981,13.0918,13.1917,13.2308,0.0,13.2397,13.2487,13.2507,13.2603,13.2787,13.2899,13.3182,13.3391,13.3598,13.3719,13.3704,13.3789,13.3789,13.3789,13.3789,13.3789,13.3203,13.2304,13.1406,13.0586,13.0117,13.1015,13.0586,12.9883,12.9883,13.0586,13.1015,13.0117,12.9883,12.9687,12.8789,12.9297,12.9883,12.9883,13.1289,13.25,13.25,13.3203,13.3711,13.3711,13.3711,13.3711,13.3789,13.3789,13.3086,13.1289,13.1211,13.0781,13.0,13.0703,13.0781,12.9883,13.0703,13.1601,13.25,13.25,13.3281,13.5,13.5,13.539,13.6289,13.6289,13.6289,9.7471,10.2712,10.529,9.9596,9.3518,8.6401,7.6899,6.7898,6.0704,5.7632,5.5439,5.4164,5.4434,5.517,5.6709,5.9819,6.3397,6.809,7.463,8.2131,8.8363,9.2056,9.8519,10.4482,10.9021,11.5291,12.0485,12.3793,12.5678,12.669,12.669,12.669,12.669,12.669,12.669,12.6688,12.681,12.681,12.6818,12.6899,12.6905,12.7385,12.8388,12.8701,12.9604,13.1108,13.142,13.1894,13.2397,13.2515,13.2487,13.2507,13.2603,13.2787,13.2899,13.3182,13.3391,13.352,13.3602,13.3704,13.3789,13.3789,13.3789,13.3789,13.3789,13.2812,13.1406,13.0586,13.0117,13.0,13.0195,13.0117,12.9883,12.9883,13.0586,13.1093,13.0781,13.0781,13.0703,13.039,13.0586,13.0781,13.0781,13.1211,13.1797,13.2383,13.2187,13.25,13.3593,13.2812,13.2304,13.2812,13.289,13.289,13.3008,13.3008,13.289,13.2617,13.3281,13.3711,13.3398,13.4218,13.4804,13.5117,13.5117,13.5703,13.6797,13.6797,13.7187,13.8086,13.8086,13.7812,8.7508,9.348,9.6211,9.1402,8.6478,8.0746,7.286,6.5743,6.0094,5.7517,5.5901,5.4934,5.4934,5.5631,5.6824,5.8742,6.1358,6.5667,7.2745,8.0785,8.8517,9.548,10.2097,10.7482,11.1088,11.6099,12.0485,12.3793,12.5678,12.669,12.669,12.669,12.6703,12.6712,12.6712,12.6798,12.6791,12.6876,12.6905,12.701,12.7092,12.7388,12.7992,12.8382,12.9216,13.0204,13.0591,13.1017,0.0,13.1482,13.1802,13.2092,13.228,13.2597,13.2988,13.3288,13.3411,13.3505,13.369,13.3706,13.3789,13.3789,13.3789,13.3711,13.3398,13.2617,13.1484,13.0586,13.0195,12.9883,12.9883,12.9687,12.9414,12.9414,12.9804,13.0195,13.0195,13.0195,13.0195,13.0195,13.0195,13.0195,13.0195,13.0508,13.0898,13.1406,13.1289,13.1718,13.3086,13.2383,13.1992,13.289,13.3281,13.3711,13.4218,13.4297,13.4297,13.4297,13.5,13.5312,13.5,13.5781,13.6289,13.6289,13.6289,13.6718,13.7617,13.789,13.8398,13.8906,13.8906,13.8593,0.0,8.3593,8.6794,8.2631,7.9131,7.5022,6.8366,6.3557,0.0,5.7478,5.6247,5.5631,5.5708,5.6401,5.7324,5.8319,5.9935,6.3788,7.1559,7.9715,8.944,10.1789,10.6097,10.9098,11.1703,11.6407,12.06,12.3909,12.5678,12.669,12.669,12.669,12.6712,12.6714,12.6814,12.6787,12.6787,12.7016,12.6994,12.6994,12.7188,12.7191,12.7202,12.8105,12.8502,0.0,12.9508,12.9808,12.9895,13.0012,13.0588,13.1409,13.1709,13.2395,13.3312,13.3518,13.3609,13.3695,13.3703,13.3709,13.3789,13.3789,13.3789,13.3593,13.2812,13.25,13.2304,13.1406,13.0586,13.0,13.0,12.9414,12.8789,12.8789,12.8789,12.8789,12.8789,12.8789,12.8789,12.8789,12.8789,12.8906,12.8906,12.9609,13.0195,13.0312,13.0898,13.1718,13.2695,13.2695,13.289,13.3789,13.4609,13.5,13.5117,13.5117,13.5117,13.5117,13.5898,13.6015,13.5195,13.6015,13.6484,13.6484,13.6484,13.6914,13.7695,13.8515,13.8906,13.8906,13.8906,13.8906,6.3474,0.0,7.8284,7.5322,7.3014,7.0206,0.0,6.0935,5.7709,5.7137,5.5824,5.4972,5.5593,5.6401,5.7709,5.9858,6.2166,6.6821,7.5753,8.8632,10.0212,10.8395,11.1214,11.3483,11.6099,11.9215,12.21,12.4909,12.6101,12.669,12.669,12.6698,12.6498,12.5905,12.6702,12.7107,12.7107,12.709,12.7181,12.7311,12.7293,12.738,12.739,12.7603,12.8,12.8618,12.8812,12.9305,12.9905,13.0009,13.0603,13.1518,13.1793,13.2517,13.3401,13.3618,13.3695,13.3788,13.3788,13.3789,13.3789,13.3789,13.3789,13.3593,13.2812,13.25,13.2304,13.1406,13.1093,13.0898,13.0898,13.0703,13.0586,13.0586,13.0586,13.0586,13.0586,13.0586,13.0586,13.0586,13.1093,13.1601,13.1601,13.2304,13.3086,13.3711,13.3515,13.3711,13.5195,13.4297,13.3789,13.4609,13.4883,13.5312,13.5898,13.6015,13.6015,13.6015,13.6797,13.7187,13.6992,13.7812,13.8281,13.8281,13.8281,13.8398,13.8593,13.8789,13.8906,13.8906,13.8906,13.8906,5.7901,6.4128,6.9744,6.802,6.6865,6.5282,6.1814,5.8627,5.6401,5.6401,5.5401,5.4857,5.6055,5.7016,5.8671,6.2012,6.5013,7.1706,8.5324,9.7711,10.779,11.4214,11.6792,11.86,12.0023,12.21,12.3909,12.5293,12.6178,12.6715,12.6686,12.641,12.6116,12.5688,12.5882,12.6215,12.6601,12.7116,12.7283,12.7381,12.7381,12.7381,12.7381,12.7381,12.7613,12.8,12.8,12.8309,12.8793,12.8918,12.9802,13.11,13.1393,13.2312,13.3589,13.3692,13.3707,13.3789,13.3789,13.3789,13.3789,13.3789,13.3789,13.3711,13.3203,13.3086,13.2812,13.1601,13.1211,13.1211,13.1211,13.1211,13.1211,13.1211,13.1211,13.1211,13.1211,13.1211,13.1211,13.1211,13.1914,13.25,13.25,13.3203,13.3906,13.4414,13.4101,13.4297,13.5508,13.4883,13.4687,13.5508,13.5586,13.5781,13.6289,13.6289,13.6601,13.7382,13.789,13.8203,13.8203,13.8593,13.8906,13.8906,13.8515,13.8711,13.9492,13.9101,13.9297,14.0117,14.0117,14.0117,5.6478,5.9979,6.2974,6.2403,6.248,6.2095,5.9781,5.7934,5.667,5.667,5.5934,5.5785,5.7478,5.8704,6.0896,6.5243,7.0129,7.9246,9.6095,10.5482,11.2714,11.86,12.1293,12.2793,12.3101,12.4293,12.5101,12.5409,12.601,12.6416,12.6406,12.5785,12.5511,12.552,12.4883,12.4893,12.5501,12.6597,12.7303,12.7381,12.7381,12.7381,12.7381,12.7381,12.7381,12.7381,0.0,0.0,12.741,12.7591,12.8794,13.0505,13.0792,13.2107,13.3697,13.3705,13.3787,13.3789,13.3789,13.3789,13.3789,13.3789,13.3789,13.3789,13.3789,13.3789,13.3515,13.1992,13.1601,13.1601,13.1601,13.1601,13.1601,13.1601,13.1601,13.1601,13.1601,13.1718,13.1797,13.1797,13.2617,13.3281,13.3281,13.3984,13.4609,13.4609,13.4609,13.4804,13.5508,13.5586,13.5898,13.6601,13.6601,13.6484,13.6484,13.6484,13.7187,13.8789,13.8789,13.8789,13.8906,13.8906,13.8906,13.8906,13.8203,13.8593,14.0195,13.9492,13.9882,14.1484,14.1484,14.1484,5.6132,5.9594,6.2403,6.2974,6.4243,6.5013,6.3897,6.2326,6.1133,6.1133,5.9863,5.9242,6.0979,6.3172,6.6359,7.1315,8.2208,9.3018,10.1712,10.829,11.4291,11.9485,12.11,12.2408,12.3793,12.3485,12.3909,12.5293,12.4888,12.4688,12.4711,12.4706,12.4485,12.381,12.4412,12.4499,12.3909,12.5514,12.6684,12.7381,12.7381,12.7381,12.7381,12.7381,12.7381,12.7381,0.0,12.7381,12.741,12.7704,12.8903,13.0589,13.0917,13.2113,13.3788,13.3789,13.3789,13.3789,13.3789,13.3789,13.3789,13.3789,13.3789,13.3789,13.3789,13.3789,13.3711,13.3515,13.3398,13.3398,13.3398,13.3398,13.3398,13.3398,13.3398,13.3398,13.3398,13.3906,13.4414,13.4414,13.5703,13.6797,13.6797,13.75,13.8086,13.8086,13.8086,13.8203,13.8281,13.8281,13.8398,13.8515,13.7812,13.7382,13.7382,13.7382,13.7812,13.8789,13.8203,13.8086,13.8906,13.8906,13.8906,13.8906,13.8789,13.9218,14.0195,14.0117,14.0507,14.1484,14.1484,14.1484,5.6209,5.9132,6.2018,6.4705,6.7321,6.9097,6.8205,6.7398,6.6596,6.5705,6.3782,6.3051,6.5705,6.8282,7.3168,8.2824,9.2326,10.0596,10.6482,11.1598,11.6099,11.9908,12.1485,12.2601,12.3408,12.3485,12.3894,12.4696,12.4484,12.4305,12.4513,12.4106,12.3801,12.3513,12.3484,12.3512,12.3503,12.4286,12.5408,12.6684,12.7187,12.7381,12.7381,12.7381,12.7381,12.7381,0.0,12.7495,12.7491,12.7811,12.8992,13.0684,13.1001,13.2206,13.3789,13.3789,13.3789,13.3789,13.3789,13.3789,13.3789,13.3789,13.3789,13.3789,13.3789,13.3789,13.3789,13.3789,13.3789,13.3789,13.3789,13.3789,13.3789,13.3789,13.3789,13.3789,13.3789,13.4414,13.5,13.5,13.6406,13.7617,13.7617,13.8281,13.8906,13.8906,13.8906,13.8906,13.8906,13.8906,13.8906,13.8906,13.7695,13.6914,13.6914,13.6914,13.7695,13.9492,13.9687,13.9687,13.9609,13.9609,13.9609,13.9609,13.9101,13.9804,14.1601,14.1093,14.1601,14.289,14.289,14.289,5.6324,5.8709,6.155,6.5981,6.9674,7.2213,7.236,7.286,7.286,7.1392,6.9507,6.8975,7.1591,7.4969,8.12,9.2979,9.9712,10.529,11.0598,11.4484,11.7715,12.0292,12.1793,12.2716,12.2908,12.3293,12.361,12.4006,12.3809,12.3803,12.4003,12.3492,12.3194,12.3194,12.2584,12.2584,12.3194,12.3387,12.4402,12.6104,12.68,12.7187,12.7381,12.7381,12.7381,12.739,12.7514,12.7708,12.7882,12.8197,12.9381,13.1112,13.1308,13.2409,13.3789,13.3593,13.3593,13.3789,13.3593,13.3593,13.3789,13.3789,13.3789,13.3789,13.3789,13.3789,13.3789,13.3789,13.3789,13.3789,13.3789,13.3789,13.3789,13.3789,13.3789,13.3789,13.3789,13.4609,13.5312,13.5312,13.6718,13.789,13.789,13.8515,13.8906,13.8906,13.8906,13.8906,13.8906,13.8906,13.8906,13.8906,13.75,13.6718,13.6914,13.7109,13.8203,14.0703,14.1211,14.1211,14.0507,14.0507,14.0507,14.0507,13.9804,14.0586,14.2812,14.2109,14.2617,14.3984,14.3984,14.3984,5.6324,5.8286,6.0781,6.5827,6.9674,7.3021,7.6137,7.8669,8.0092,7.9162,7.8815,7.8777,7.9008,8.4354,9.0855,9.7365,10.2789,10.8213,11.4099,11.6484,11.8715,12.1177,12.16,12.1985,12.2793,12.2216,12.212,12.3004,12.2498,12.2114,12.2313,12.2295,12.2381,12.2391,12.2313,12.2313,12.2391,12.3077,12.4402,12.6104,12.6182,12.6607,12.7381,12.7381,12.7381,12.739,12.75,12.8115,12.8882,12.9193,13.0415,13.2112,13.2312,13.2883,13.3711,13.289,13.3086,13.3711,13.289,13.3086,13.3789,13.3789,13.3789,13.3789,13.3789,13.3789,13.3789,13.3789,13.3789,13.3789,13.3789,13.3789,13.3789,13.3789,13.3789,13.3789,13.3789,13.5117,13.6211,13.6211,13.7617,13.8789,13.8789,13.8906,13.8906,13.8906,13.8906,13.8906,13.8906,13.8906,13.8906,13.8906,13.8086,13.7812,13.8593,13.9492,14.0703,14.25,14.1914,14.1484,14.1406,14.1406,14.1406,14.1406,14.1289,14.1797,14.2812,14.2695,14.3203,14.3984,14.3984,14.3984,5.7242,5.828,5.9973,6.5089,6.9706,7.4168,7.8631,8.3247,8.6624,8.6855,8.7325,8.7363,8.6278,8.9902,9.5018,10.0981,10.579,11.0714,11.6099,11.8292,11.9908,12.142,12.1612,12.1677,12.21,12.1804,12.1808,12.2306,12.2089,12.2001,12.2208,12.2294,12.2313,12.2313,12.2313,12.2313,12.2313,12.2584,12.3319,12.4518,12.5601,12.6298,12.6607,12.7216,12.7504,12.75,12.7705,12.7988,12.8519,12.87,12.9498,13.0787,13.1984,13.2694,13.3008,13.2617,13.3086,13.3711,13.2812,13.3086,13.3789,13.3789,13.3789,13.3789,13.3789,13.3789,13.3789,13.3789,13.3789,13.3789,13.3789,13.3789,13.3789,13.3789,13.3789,13.3789,13.3789,13.5117,13.6289,13.6289,13.7695,13.8906,13.8906,13.8906,13.8906,13.8906,13.8906,13.8906,13.8906,13.8906,13.8906,13.8906,13.8086,13.8203,13.9609,14.0,14.1211,14.3398,14.3203,14.2812,14.2304,14.2304,14.2304,14.2304,14.2304,14.2695,14.3515,14.3515,14.3711,14.3984,14.3984,14.3984,5.7967,5.8313,5.9511,6.4628,6.9744,7.5123,8.1285,8.747,9.2317,9.371,9.4672,9.4595,9.2355,9.4711,9.8596,10.3491,10.779,11.2406,11.7484,11.9408,12.06,12.1497,12.1612,12.1612,12.1612,12.1597,12.1711,12.1907,12.191,12.209,12.2304,12.2313,12.2313,12.2313,12.2313,12.2313,12.2313,12.2303,12.261,12.3218,12.4717,12.5618,12.6114,12.6787,12.7299,12.7618,12.7885,12.8213,12.8613,12.8795,12.941,13.0383,13.1913,13.25,13.25,13.2187,13.2617,13.3203,13.2109,13.2187,13.3008,13.3008,13.3008,13.3008,13.3008,13.3203,13.3398,13.3398,13.3593,13.3789,13.3789,13.3789,13.3789,13.3789,13.3984,13.4218,13.4218,13.5508,13.6718,13.6718,13.789,13.8906,13.8906,13.8906,13.8906,13.8906,13.8906,13.8906,13.8906,13.8906,13.8906,13.8906,13.8398,13.8593,14.0117,14.0507,14.1484,14.3515,14.3906,14.3789,14.3203,14.3203,14.3203,14.3203,14.3203,14.3398,14.3984,14.3984,14.3984,14.3984,14.3984,14.3984,5.8319,5.8352,5.9588,6.4705,6.9821,7.5777,8.4239,9.1441,9.7096,9.9683,10.0789,10.0279,9.698,9.9096,10.2212,10.4713,10.8713,11.328,11.8407,11.9792,12.06,12.1497,12.1612,12.1612,12.1612,12.1716,12.1788,12.1907,12.1982,12.2208,12.2304,12.2313,12.2313,12.2313,12.2313,12.2313,12.2313,12.2414,12.2395,12.2487,12.342,12.4719,12.6085,12.62,12.6812,12.7717,12.7986,12.8703,12.9613,12.9695,13.0305,13.1289,13.2109,13.25,13.2383,13.1484,13.1797,13.2304,13.0508,13.0508,13.1211,13.1211,13.1211,13.1211,13.1211,13.1797,13.25,13.25,13.3086,13.3789,13.3789,13.3789,13.3789,13.3789,13.4414,13.5,13.5,13.6406,13.7617,13.7617,13.8281,13.8906,13.8906,13.8906,13.8906,13.8906,13.8906,13.8906,13.8906,13.8906,13.8906,13.8906,13.8906,13.9297,14.0117,14.1015,14.1914,14.2695,14.3593,14.3984,14.3984,14.3984,14.3984,14.3984,14.3984,14.3984,14.3984,14.3984,14.3984,14.3984,14.3984,14.3984,6.0473,6.1396,6.3198,6.8905,7.5053,8.1747,8.9633,9.5365,10.0914,10.7598,10.7713,10.5597,10.2289,10.2904,10.4405,10.579,11.0098,11.4599,11.8484,12.0292,12.1293,12.1612,12.1612,12.1597,12.1688,12.1799,12.1909,12.1982,12.211,12.2208,12.2304,12.2313,12.2313,12.2313,12.2313,12.2313,12.2313,12.2399,12.2519,12.2619,12.2901,12.3683,12.46,12.5417,12.6187,12.7101,12.7309,12.7903,12.8799,12.89,12.9101,12.9492,13.1015,13.1601,13.1601,13.1289,13.1797,13.2304,13.0508,13.0508,13.1211,13.1211,13.1211,13.1211,13.1211,13.1797,13.25,13.25,13.3086,13.3789,13.3789,13.3789,13.3789,13.3789,13.4414,13.5,13.5,13.6406,13.7617,13.7617,13.8281,13.8906,13.8906,13.8906,13.8906,13.8906,13.8906,13.8906,13.8906,13.8906,13.8906,13.8906,13.8906,13.9297,14.0117,14.1015,14.1914,14.2695,14.3593,14.3984,14.3984,14.3984,14.3984,14.3984,14.3984,14.3984,14.3984,14.3984,14.3984,14.3984,14.3984,14.3984,6.1781,6.4166,6.743,7.4091,8.1093,8.8863,9.8557,10.2789,10.6405,11.2483,11.2214,10.9983,10.6982,10.7098,10.779,10.828,11.1906,11.5599,11.8715,12.0216,12.1177,12.1612,12.1608,12.1704,12.181,12.1909,12.1977,12.212,12.2082,12.2208,12.2313,12.2313,12.2313,12.2313,12.2312,12.2396,12.2393,12.2496,12.2683,12.2815,12.2896,12.321,12.3807,12.4685,12.5688,12.6994,12.75,12.7981,12.8509,12.8593,12.8593,12.8711,13.0117,13.0703,13.0703,13.0703,13.1015,13.1289,12.9883,12.9687,13.0195,13.0195,13.0195,13.0195,13.0195,13.1015,13.1992,13.1992,13.289,13.3789,13.3789,13.3789,13.3789,13.3789,13.4687,13.5508,13.5508,13.6914,13.8086,13.8086,13.8515,13.8906,13.8906,13.8906,13.8906,13.8906,13.8906,13.8906,13.8906,13.8906,13.8906,13.8906,13.8906,13.9101,13.9609,14.0781,14.1718,14.2304,14.3398,14.3984,14.3984,14.3984,14.3984,14.3984,14.3984,14.3984,14.3984,14.3984,14.3984,14.3984,14.3984,14.3984,6.266,6.6814,7.2014,7.9746,8.7786,9.6903,10.9021,11.178,11.2522,11.4907,11.4791,11.3483,11.1098,11.1406,11.1895,11.1906,11.3907,11.6292,11.8715,11.9715,12.0496,12.1316,12.16,12.1717,12.1689,12.1892,12.2091,12.2101,12.2189,12.2313,12.2313,12.2313,12.2313,12.2313,12.2414,12.2403,12.2503,12.2711,12.288,12.3008,12.3211,12.3284,12.3295,12.4019,12.5193,12.6889,12.8002,12.8515,12.8515,12.8593,12.8593,12.8711,12.9609,12.9883,12.9883,12.9883,12.9883,12.9804,12.8906,12.8593,12.8593,12.8593,12.8593,12.8593,12.8593,12.9804,13.1211,13.1211,13.25,13.3789,13.3789,13.3789,13.3789,13.3789,13.5,13.6211,13.6211,13.7617,13.8789,13.8789,13.8789,13.8906,13.8906,13.8906,13.8906,13.8906,13.8906,13.8906,13.8906,13.8906,13.8906,13.8906,13.8906,13.8906,13.8906,14.0507,14.1484,14.1484,14.3086,14.3984,14.3984,14.3984,14.3984,14.3984,14.3984,14.3984,14.3984,14.3984,14.3984,14.3984,14.3984,14.3984,6.4628,6.9898,7.563,8.3978,9.4788,10.5213,11.1906,11.3984,11.4791,11.5995,11.611,11.561,11.4407,11.4907,11.5215,11.4599,11.5984,11.7484,11.8023,11.8792,11.9403,11.9686,12.0297,12.0808,12.0987,12.1704,12.2082,12.2198,12.2304,12.2313,12.2313,12.2313,12.2313,12.2313,12.2407,12.2488,12.2594,12.2779,12.2987,12.3211,12.3302,12.3415,12.3511,12.3597,12.4218,12.53,12.6913,12.7617,12.7617,12.8281,12.8593,12.8711,12.9609,12.9883,12.9883,12.9883,12.9883,12.9804,12.8906,12.8593,12.8593,12.8593,12.8593,12.8593,12.8593,12.9804,13.1211,13.1211,13.25,13.3789,13.3789,13.3789,13.3789,13.3789,13.4609,13.5312,13.5312,13.6601,13.789,13.789,13.8398,13.8906,13.8906,13.8906,13.8906,13.8906,13.8906,13.8906,13.8906,13.8906,13.8906,13.8906,13.8906,13.8906,13.8906,14.0507,14.1484,14.1484,14.3086,14.3984,14.3984,14.3984,14.3984,14.3984,14.3984,14.3984,14.3984,14.3984,14.3984,14.3984,14.3984,14.3984,6.4588,7.2028,8.09,9.3864,10.3289,11.0214,11.3291,11.4714,11.5291,11.5291,11.5907,11.6418,11.5995,11.6187,11.6418,11.5907,11.6599,11.7292,11.7704,11.8183,11.8712,11.9191,11.9712,12.0212,12.0709,12.1319,12.1792,12.2313,12.2313,12.212,12.1694,12.1693,12.1506,12.1202,12.1309,12.1383,12.151,12.222,12.2599,12.269,12.3183,12.3393,12.3515,12.3901,12.429,12.4803,12.6601,12.7304,12.7383,12.8203,12.8593,12.8593,12.9101,12.9297,12.9297,12.9297,12.9297,12.9218,12.8789,12.8593,12.8593,12.8593,12.8593,12.8593,12.8593,12.9492,13.0586,13.0586,13.1797,13.3203,13.3203,13.3515,13.3789,13.3789,13.4414,13.5,13.5,13.6406,13.7617,13.7617,13.8281,13.8906,13.8906,13.8906,13.8906,13.8906,13.8906,13.8906,13.8906,13.8906,13.8906,13.8906,13.8906,13.8906,13.8906,14.0507,14.1484,14.1484,14.3086,14.3984,14.3984,14.3984,14.3984,14.3984,14.3984,14.3984,14.3984,14.3984,14.3789,14.3398,14.3398,14.3203,6.3969,7.4511,8.7248,10.3789,11.0098,11.2599,11.3714,11.4599,11.4907,11.4099,11.5215,11.6303,11.6303,11.6418,11.6495,11.6495,11.6495,11.6803,11.7507,11.7722,11.799,11.8705,11.9113,11.9609,12.0285,12.0603,12.1114,12.181,12.1888,12.1501,12.0805,12.0904,12.0582,11.9913,12.0082,12.0288,12.041,12.1308,12.1894,12.2096,12.3002,12.3397,12.3515,12.4218,12.4609,12.4687,12.6211,12.6914,12.6914,12.8008,12.8398,12.8398,12.8515,12.8593,12.8593,12.8593,12.8593,12.8593,12.8593,12.8593,12.8593,12.8593,12.8593,12.8593,12.8593,12.9218,12.9883,12.9883,13.1211,13.25,13.25,13.3086,13.3789,13.3789,13.4297,13.4804,13.4804,13.6211,13.7382,13.7382,13.8203,13.8906,13.8906,13.8906,13.8906,13.8906,13.8906,13.8906,13.8906,13.8906,13.8906,13.8906,13.8906,13.8906,13.8906,14.0507,14.1484,14.1484,14.3086,14.3984,14.3984,14.3984,14.3984,14.3984,14.3984,14.3984,14.3984,14.3906,14.3515,14.2812,14.2617,14.2304,6.4547,7.9245,9.4711,10.5905,10.9598,11.1098,11.3483,11.4099,11.4099,11.3984,11.4791,11.5495,11.5495,11.5995,11.6495,11.6495,11.6495,11.6606,11.6819,11.689,11.7002,11.73,11.8006,11.8479,11.8688,11.9403,11.9915,11.9992,11.9992,11.9992,11.9915,11.9997,12.0006,12.0,12.0183,12.0383,12.0605,12.0812,12.1392,12.2187,12.3085,12.3515,12.3515,12.3593,12.3711,12.3711,12.4687,12.5117,12.5312,12.6797,12.75,12.75,12.8281,12.8593,12.8593,12.8593,12.8593,12.8593,12.8593,12.8593,12.8593,12.8593,12.8593,12.8593,12.8593,12.9218,12.9883,12.9883,13.1211,13.25,13.25,13.3086,13.3789,13.3789,13.3906,13.3984,13.3984,13.5312,13.6484,13.6484,13.7812,13.8906,13.8906,13.8906,13.8906,13.8906,13.8906,13.8906,13.8906,13.8906,13.8906,13.8906,13.8906,13.8906,13.8906,14.0507,14.1484,14.1484,14.3086,14.3984,14.3984,14.3984,14.3984,14.3984,14.3984,14.3984,14.3984,14.3281,14.289,14.2812,14.1992,14.1992,6.9522,8.3441,9.6134,10.6405,10.9906,11.1291,11.2906,11.3291,11.3099,11.2714,11.3291,11.4099,11.5099,11.561,11.5995,11.6418,11.6495,11.649,11.6687,11.6712,11.6815,11.7001,11.7415,11.7897,11.8406,11.8677,11.918,11.9683,11.9683,11.9489,11.8996,11.9212,11.9102,11.8709,11.8983,11.9192,11.9295,11.9904,12.0582,12.1484,12.2383,12.2812,12.2812,12.3281,12.3515,12.3515,12.4414,12.4804,12.4883,12.6601,12.7304,12.7383,12.8281,12.8593,12.8593,12.8593,12.8593,12.8593,12.8593,12.8593,12.8593,12.8593,12.8593,12.8593,12.8593,12.8906,12.9218,12.9218,13.039,13.1797,13.1797,13.2812,13.3789,13.3789,13.3789,13.3789,13.3789,13.5117,13.6601,13.7617,13.8398,13.8906,13.8906,13.8906,13.8906,13.8906,13.8906,13.8906,13.8906,13.8906,13.8906,13.8906,13.8906,13.8906,13.8906,14.0507,14.1484,14.1484,14.3086,14.3984,14.3984,14.3984,14.3984,14.3984,14.3984,14.3789,14.3281,14.3007,14.2304,14.1289,14.1015,14.1015,7.2192,8.3602,9.3151,10.2914,10.679,10.8713,11.0406,11.1098,11.1395,11.1511,11.2022,11.2906,11.4407,11.4791,11.5187,11.5803,11.5918,11.5885,11.6113,11.6118,11.6219,11.6383,11.6698,11.7091,11.771,11.799,11.8406,11.8987,11.9103,11.8793,11.8097,11.8299,11.8314,11.7714,11.799,11.8202,11.8309,11.9214,11.9881,12.0586,12.1718,12.2187,12.2187,12.3086,12.3515,12.3515,12.4218,12.4492,12.4609,12.6289,12.6992,12.7109,12.8203,12.8593,12.8593,12.8593,12.8593,12.8593,12.8593,12.8593,12.8593,12.8593,12.8593,12.8593,12.8593,12.8593,12.8593,12.8593,12.9883,13.1211,13.1211,13.25,13.3789,13.3789,13.3789,13.3906,13.4297,13.539,13.6797,13.8593,13.8906,13.8906,13.8906,13.8906,13.8906,13.8906,13.8906,13.8906,13.8906,13.8906,13.8906,13.8906,13.8906,13.8906,13.8906,14.0507,14.1484,14.1484,14.3086,14.3984,14.3984,14.3984,14.3984,14.3984,14.3984,14.3593,14.2812,14.2617,14.1718,14.0195,14.0,14.0117,6.9155,7.7056,8.505,9.3574,9.7605,10.0481,10.4607,10.679,10.8598,11.1011,11.1511,11.178,11.2714,11.3483,11.4099,11.4099,11.4099,11.4213,11.4393,11.4394,11.4511,11.4705,11.5505,11.6008,11.6008,11.682,11.7285,11.7314,11.7314,11.7285,11.7285,11.7492,11.771,11.7706,11.7989,11.8206,11.8281,11.9218,11.9609,11.9687,12.1406,12.2187,12.2187,12.3086,12.3515,12.3515,12.3515,12.3593,12.3711,12.539,12.6093,12.6211,12.789,12.8593,12.8593,12.8593,12.8593,12.8593,12.8593,12.8593,12.8593,12.8593,12.8593,12.8593,12.8593,12.8593,12.8593,12.8593,12.9883,13.1211,13.1211,13.25,13.3789,13.3789,13.3789,13.4218,13.5781,13.6211,13.6797,13.8593,13.8906,13.8906,13.8906,13.8906,13.8906,13.8906,13.8906,13.8906,13.8906,13.8906,13.8906,13.8906,13.8906,13.8906,13.8906,14.0507,14.1484,14.1484,14.3086,14.3984,14.3984,14.3984,14.3984,14.3984,14.3984,14.3593,14.2812,14.1992,14.1093,14.0195,13.9414,13.9882,6.2563,6.9284,7.6857,8.4218,8.9611,9.448,9.9827,10.3597,10.6905,10.9983,11.1098,11.1588,11.1906,11.2599,11.3291,11.3907,11.3984,11.4109,11.4287,11.4317,11.4395,11.4598,11.4886,11.5312,11.5815,11.6201,11.6588,11.7207,11.7183,11.7282,11.7302,11.7613,11.7797,11.7916,11.8112,11.8219,11.8281,11.8593,11.8789,11.8789,12.0508,12.1406,12.1406,12.2812,12.3515,12.3515,12.3515,12.3789,12.4492,12.6093,12.6797,12.6992,12.8086,12.8593,12.8593,12.8593,12.8593,12.8593,12.8593,12.8593,12.8593,12.8593,12.8593,12.8593,12.8593,12.8593,12.8593,12.8593,12.9883,13.1211,13.1211,13.25,13.3789,13.3789,13.3789,13.4297,13.5898,13.6289,13.6797,13.8593,13.8906,13.8906,13.8906,13.8906,13.8906,13.8906,13.8906,13.8906,13.8906,13.8906,13.8906,13.8906,13.8906,13.8906,13.8906,14.0507,14.1484,14.1484,14.3086,14.3984,14.3984,14.3984,14.3984,14.3984,14.3515,14.2812,14.1992,14.1718,14.0781,13.9414,13.8984,13.9804,5.7255,6.2712,6.9052,7.4938,8.0869,8.6772,9.2411,9.7634,10.2607,10.7098,10.9213,11.0521,11.128,11.1895,11.2522,11.3099,11.3214,11.3213,11.34,11.3507,11.3507,11.37,11.3997,11.4383,11.5002,11.5312,11.5699,11.6318,11.671,11.6902,11.7011,11.7489,11.7885,11.8101,11.8203,11.8312,11.8281,11.8281,11.8281,11.8281,12.0117,12.0898,12.1015,12.2695,12.3515,12.3515,12.3789,12.4101,12.4492,12.6211,12.6914,12.6992,12.8086,12.8593,12.8593,12.8593,12.8593,12.8593,12.8593,12.8593,12.8593,12.8593,12.8593,12.8593,12.8593,12.8789,12.8984,12.8984,13.0312,13.1601,13.1601,13.2695,13.3789,13.3789,13.3984,13.4609,13.6015,13.6289,13.6797,13.8593,13.8906,13.8906,13.8906,13.8906,13.8906,13.8906,13.8906,13.8906,13.8906,13.8906,13.8906,13.8906,13.9218,13.9297,13.9297,14.0898,14.1914,14.1914,14.3203,14.3984,14.3984,14.3984,14.3906,14.3593,14.3086,14.2187,14.1093,14.1093,14.0312,13.8906,13.8906,13.9804,0.0,0.0,0.0,6.5771,7.1293,7.7011,8.2039,8.8487,9.5374,10.2299,10.5713,10.8406,11.1021,11.1395,11.1395,11.1522,11.1511,11.1596,11.178,11.1809,11.1885,11.2114,11.2797,11.33,11.3386,11.4113,11.4616,11.4616,11.549,11.6087,11.6196,11.7312,11.8002,11.83,11.8318,11.8281,11.8281,11.8281,11.8281,11.8281,12.0117,12.0898,12.1015,12.2695,12.3515,12.3515,12.4414,12.4297,12.3593,12.5312,12.6015,12.6211,12.789,12.8593,12.8593,12.8593,12.8593,12.8593,12.8593,12.8593,12.8593,12.8593,12.8593,12.8593,12.8593,12.9218,12.9883,12.9883,13.1211,13.25,13.25,13.3203,13.3789,13.3789,13.4414,13.5195,13.6093,13.6289,13.6797,13.8593,13.8906,13.8906,13.8906,13.8906,13.8906,13.8906,13.8906,13.8906,13.8906,13.8906,13.8906,13.8906,13.9687,14.0195,14.0195,14.1797,14.2812,14.2812,14.3593,14.3984,14.3984,14.3984,14.3593,14.2812,14.2812,14.1914,14.0195,14.0195,13.9804,13.8906,13.8984,13.9882,5.007,0.0,0.0,0.0,0.0,0.0,7.2475,8.0291,8.873,9.6746,10.1404,10.5405,10.979,10.9983,10.979,11.0483,11.1098,11.1596,11.178,11.1809,11.1885,11.2114,11.2286,11.272,11.33,11.3494,11.3881,11.4616,11.4995,11.5287,11.5394,11.6587,11.7617,11.8312,11.8319,11.8281,11.8281,11.8281,11.8281,11.8281,12.0117,12.0898,12.1015,12.2695,12.3515,12.3515,12.3789,12.3711,12.3711,12.6015,12.6914,12.7109,12.8203,12.8593,12.8593,12.8593,12.8593,12.8593,12.8593,12.8593,12.8593,12.8593,12.8593,12.8593,12.8593,12.9218,12.9883,12.9883,13.1211,13.2617,13.3281,13.3593,13.3906,13.4492,13.4804,13.539,13.6914,13.7187,13.7617,13.8711,13.8906,13.8906,13.8906,13.8906,13.8906,13.8906,13.8906,13.8906,13.8906,13.8906,13.8906,13.8906,13.9687,14.0195,14.0195,14.1797,14.2812,14.2812,14.3593,14.3984,14.3984,14.3984,14.3593,14.2812,14.2187,14.1601,14.1093,14.0507,13.9804,13.8906,14.0195,14.1015,5.048,5.1238,5.2296,5.3619,0.0,0.0,6.5323,7.3035,8.1677,8.9456,9.4697,9.9442,10.4492,10.4982,10.4905,10.5415,10.6513,10.8182,11.0903,11.1616,11.1885,11.2114,11.2093,11.2286,11.2797,11.2797,11.2991,11.3494,11.408,11.4698,11.5287,11.6391,11.7183,11.7694,11.8086,11.8281,11.8281,11.8281,11.8281,11.8281,12.0117,12.0898,12.1015,12.2695,12.3515,12.3515,12.3515,12.3515,12.3711,12.5898,12.6797,12.6914,12.8086,12.8593,12.8593,12.8593,12.8593,12.8593,12.8593,12.8593,12.8593,12.8593,12.8789,12.9101,12.9101,13.0,13.1015,13.1015,13.1992,13.3203,13.3711,13.3789,13.3984,13.4804,13.5312,13.5898,13.7304,13.789,13.8281,13.8789,13.8906,13.8906,13.8906,13.8906,13.8906,13.8906,13.8906,13.8906,13.8906,13.9218,13.9414,13.9414,14.0507,14.1289,14.1289,14.25,14.3281,14.3281,14.3711,14.3984,14.3984,14.3984,14.3515,14.2304,14.1797,14.1289,14.1015,14.039,14.0117,14.0,14.1406,14.1992,5.3343,5.3768,5.3915,5.4568,5.7061,0.0,5.9966,6.6426,7.423,8.0937,8.6276,9.1343,9.6594,9.747,9.7431,9.7547,9.9238,10.272,10.8983,11.0816,11.1586,11.1998,11.2093,11.2093,11.2093,11.2101,11.2118,11.2088,11.3096,11.4207,11.5394,11.6319,11.6797,11.6992,11.7812,11.8203,11.8281,11.8281,11.8281,11.8281,12.0117,12.0898,12.1015,12.2695,12.3515,12.3515,12.3515,12.3515,12.3593,12.5312,12.6015,12.6211,12.789,12.8593,12.8593,12.8593,12.8593,12.8593,12.8593,12.8593,12.8593,12.8593,12.9218,12.9883,12.9883,13.1093,13.25,13.2617,13.3203,13.3789,13.3789,13.3789,13.3984,13.4883,13.5703,13.6601,13.75,13.8398,13.8906,13.8906,13.8906,13.8906,13.8906,13.8906,13.8906,13.8906,13.8906,13.8906,13.8906,13.9687,14.0195,14.0195,14.1797,14.2812,14.2812,14.3515,14.3984,14.3984,14.3984,14.3984,14.3984,14.3984,14.3281,14.1718,14.1601,14.1289,14.0507,14.039,14.0703,14.1484,14.2382,14.2812,5.5234,5.5505,5.5389,5.4916,5.5763,0.0,5.5208,5.9915,6.624,7.2385,7.7084,8.2099,8.8597,8.9214,8.8982,8.9668,9.239,9.7213,10.5298,10.7793,10.9612,11.1813,11.2093,11.2093,11.2093,11.2083,11.2196,11.2306,11.27,11.3516,11.46,11.4915,11.5586,11.6992,11.7187,11.7617,11.8281,11.8281,11.8281,11.8281,12.0117,12.0898,12.1015,12.2695,12.3515,12.3515,12.3515,12.3515,12.3593,12.5312,12.6015,12.6211,12.789,12.8593,12.8593,12.8593,12.8593,12.8593,12.8593,12.8593,12.8593,12.8593,12.9218,12.9883,12.9883,13.1093,13.2617,13.3281,13.3711,13.3789,13.3789,13.3789,13.4218,13.5703,13.6211,13.6718,13.8281,13.8789,13.8906,13.8906,13.8906,13.8906,13.8906,13.8906,13.8906,13.8906,13.8906,13.8906,13.8906,13.9687,14.0195,14.0195,14.1797,14.2812,14.2812,14.3515,14.3984,14.3984,14.3984,14.3984,14.3984,14.3984,14.3515,14.2617,14.25,14.25,14.2304,14.1601,14.1289,14.1484,14.2382,14.2812,6.0344,5.9646,5.8479,5.7664,0.0,0.0,0.0,5.7862,6.2546,6.7183,7.0822,7.4732,7.9829,8.0409,8.0254,8.0718,8.4043,8.8955,9.5746,10.2196,10.7311,11.0382,11.0786,11.0786,11.0786,11.1289,11.1914,11.2508,11.2703,11.3086,11.3681,11.4215,11.4883,11.5703,11.6601,11.7187,11.7617,11.8086,11.8281,11.8281,12.0117,12.0898,12.1015,12.2695,12.3515,12.3515,12.3984,12.4101,12.4297,12.6015,12.6601,12.6797,12.8086,12.8593,12.8593,12.8593,12.8593,12.8593,12.8593,12.8593,12.8593,12.8593,12.9492,13.0508,13.0508,13.1797,13.3203,13.3711,13.3789,13.3789,13.3789,13.3789,13.4218,13.5898,13.6289,13.6797,13.8515,13.8906,13.8906,13.8906,13.8906,13.8906,13.8906,13.8906,13.8906,13.8906,13.8906,13.8906,13.8906,14.0,14.0781,14.0781,14.2382,14.3398,14.3398,14.3789,14.3984,14.3984,14.3984,14.3984,14.3984,14.3984,14.3593,14.2812,14.2812,14.2812,14.2812,14.2812,14.2695,14.2812,14.3203,14.3398,0.0,0.0,0.0,0.0,0.0,5.7504,0.0,0.0,0.0,6.3057,6.5444,6.7907,7.0927,7.1499,7.1538,7.1736,7.5231,7.9772,8.4862,9.3749,10.1796,10.7184,10.8005,10.8198,10.8593,10.9698,11.0819,11.1814,11.2117,11.2303,11.2602,11.3709,11.4297,11.4492,11.6015,11.6797,11.6992,11.789,11.8281,11.8281,12.0117,12.0898,12.1015,12.2695,12.3515,12.3515,12.4414,12.4804,12.4883,12.6601,12.7304,12.7383,12.8281,12.8593,12.8593,12.8593,12.8593,12.8593,12.8593,12.8593,12.8593,12.8593,12.9804,13.1289,13.1601,13.2695,13.3789,13.3789,13.3789,13.3789,13.3789,13.3789,13.4218,13.5898,13.6289,13.6797,13.8515,13.8906,13.8906,13.8906,13.8906,13.8906,13.8906,13.8906,13.8906,13.8906,13.8906,13.8906,13.8906,14.039,14.1484,14.1484,14.3007,14.3984,14.3984,14.3984,14.3984,14.3984,14.3984,14.3984,14.3984,14.3984,14.3711,14.3007,14.3007,14.3007,14.3007,14.3711,14.3984,14.3984,14.3984,14.3984,0.0,0.0,0.0,0.0,6.1135,0.0,0.0,0.0,5.7069,5.8226,0.0,6.0625,6.248,0.0,0.0,6.3845,6.6915,7.1031,7.6204,8.061,8.7929,10.0391,10.2591,10.3607,10.5205,10.6899,10.8095,10.8307,10.9207,11.01,11.0814,11.2499,11.3711,11.4492,11.539,11.6211,11.6992,11.789,11.8281,11.8281,12.0117,12.0898,12.1015,12.2695,12.3515,12.3515,12.4414,12.4804,12.4883,12.6601,12.7304,12.7383,12.8281,12.8593,12.8593,12.8593,12.8593,12.8593,12.8593,12.8593,12.8593,12.8593,12.9804,13.1484,13.3008,13.3593,13.3789,13.3789,13.3789,13.3789,13.3789,13.3789,13.4218,13.5898,13.6289,13.6797,13.8515,13.8906,13.8906,13.8906,13.8906,13.8906,13.8906,13.8906,13.8906,13.8906,13.8906,13.8906,13.8906,14.039,14.1484,14.1484,14.3007,14.3984,14.3984,14.3984,14.3984,14.3984,14.3984,14.3984,14.3984,14.3984,14.3984,14.3906,14.3906,14.3906,14.3906,14.3984,14.3984,14.3984,14.3984,14.3984,0.0,0.0,0.0,0.0,0.0,0.0,5.7393,0.0,5.8017,0.0,0.0,0.0,0.0,0.0,0.0,0.0,6.4242,6.7746,7.1445,7.4012,7.9841,9.1393,9.4456,9.7066,10.0886,10.2879,10.4185,10.4908,10.5806,10.7107,10.8983,11.1211,11.2812,11.3711,11.5,11.5898,11.6289,11.7617,11.8281,11.8281,12.0117,12.0898,12.1015,12.2695,12.3515,12.3593,12.4883,12.5508,12.5586,12.7304,12.8086,12.8086,12.8515,12.8593,12.8593,12.8593,12.8593,12.8593,12.8593,12.8906,12.9492,13.0508,13.1406,13.2187,13.3398,13.3789,13.3789,13.3789,13.3789,13.3789,13.3789,13.3789,13.4218,13.5898,13.6289,13.6797,13.8515,13.8906,13.8906,13.8906,13.8906,13.8906,13.8906,13.8906,13.8906,13.8906,13.9297,13.9687,13.9687,14.1211,14.2304,14.2304,14.3281,14.3984,14.3984,14.3984,14.3984,14.3984,14.3984,14.3984,14.3984,14.3984,14.3984,14.3984,14.3984,14.3984,14.3984,14.3984,14.3984,14.3984,14.3984,14.3984,8.3087,0.0,0.0,0.0,0.0,0.0,0.0,0.0,0.0,0.0,0.0,0.0,0.0,0.0,0.0,6.0877,0.0,6.4584,6.6964,6.7938,7.2275,8.2637,8.6997,9.0937,9.5535,9.7735,9.9296,10.0297,10.1404,10.3281,10.6093,10.9414,11.1601,11.25,11.4609,11.5703,11.5781,11.75,11.8281,11.8281,12.0117,12.0898,12.1015,12.2695,12.3515,12.3593,12.5312,12.6015,12.6093,12.789,12.8593,12.8593,12.8593,12.8593,12.8593,12.8593,12.8593,12.8593,12.8593,12.9218,13.0195,13.1914,13.25,13.2695,13.3515,13.3789,13.3789,13.3789,13.3789,13.3789,13.3789,13.3984,13.4492,13.6015,13.6484,13.7109,13.8593,13.8906,13.8906,13.8906,13.8906,13.8906,13.8906,13.8906,13.8906,13.8906,13.9609,14.0195,14.0195,14.1718,14.2812,14.2812,14.3515,14.3984,14.3984,14.3984,14.3984,14.3984,14.3984,14.3984,14.3984,14.3984,14.3984,14.3984,14.3984,14.3984,14.3984,14.3984,14.3984,14.3984,14.3984,14.3984,0.0,0.0,0.0,7.5507,0.0,0.0,0.0,0.0,6.1601,0.0,0.0,0.0,0.0,0.0,0.0,0.0,0.0,0.0,0.0,6.0586,6.3705,7.4823,8.1373,8.6068,8.8746,9.13,9.3188,9.4096,9.578,9.8242,10.1601,10.6601,10.9804,11.0703,11.3906,11.5703,11.5703,11.7383,11.8281,11.8281,12.0117,12.0898,12.1015,12.2695,12.3515,12.3593,12.5312,12.6015,12.6093,12.789,12.8593,12.8593,12.8593,12.8593,12.8593,12.8593,12.8593,12.8593,12.8593,12.9218,13.0195,13.1914,13.25,13.2695,13.3515,13.3789,13.3789,13.3789,13.3789,13.3789,13.3789,13.4414,13.5195,13.6093,13.6914,13.7812,13.8711,13.8906,13.8906,13.8906,13.8906,13.8906,13.8906,13.8906,13.8906,13.8906,13.9609,14.0195,14.0195,14.1718,14.2812,14.2812,14.3515,14.3984,14.3984,14.3984,14.3984,14.3984,14.3984,14.3984,14.3984,14.3984,14.3984,14.3984,14.3984,14.3984,14.3984,14.3984,14.3984,14.3984,14.3984,14.3984,0.0,0.0,8.6948,8.3787,0.0,0.0,0.0,0.0,0.0,0.0,0.0,0.0,0.0,0.0,0.0,0.0,0.0,0.0,0.0,5.957,6.1015,6.5891,7.2296,7.7571,8.0776,8.3903,8.6131,8.703,8.8711,9.1914,9.7109,10.2812,10.7109,10.9687,11.3593,11.5703,11.5703,11.7383,11.8281,11.8281,12.0703,12.1484,12.1015,12.3281,12.3984,12.3593,12.5312,12.6015,12.6093,12.789,12.8593,12.8593,12.8593,12.8593,12.8593,12.8593,12.8593,12.8789,12.9883,13.0508,13.1015,13.2812,13.3398,13.3398,13.3711,13.3789,13.3789,13.3789,13.3789,13.3789,13.3789,13.4414,13.5195,13.6093,13.6992,13.7812,13.8711,13.8906,13.8906,13.8906,13.8906,13.8906,13.8906,13.8906,13.8906,13.8906,14.0117,14.1093,14.1093,14.25,14.3593,14.3593,14.3789,14.3984,14.3984,14.3984,14.3984,14.3984,14.3984,14.3984,14.3984,14.3984,14.3984,14.3984,14.3984,14.3984,14.3984,14.3984,14.3984,14.3984,14.4609,14.4882,10.1414,9.7965,0.0,9.1832,8.7039,0.0,7.7457,0.0,0.0,0.0,0.0,0.0,0.0,0.0,0.0,0.0,0.0,0.0,0.0,5.7812,5.832,5.9726,6.5703,7.0976,7.4101,7.7539,8.0039,8.125,8.2929,8.6523,9.2578,9.8906,10.4101,10.7812,11.3008,11.5703,11.5703,11.7383,11.8281,11.8281,12.0586,12.1406,12.1015,12.3281,12.3984,12.3593,12.5312,12.6015,12.6093,12.789,12.8593,12.8593,12.8593,12.8593,12.8593,12.8593,12.8593,12.8789,13.0586,13.1211,13.1484,13.3203,13.3789,13.3789,13.3789,13.3789,13.3789,13.3789,13.3789,13.3789,13.3789,13.4609,13.5586,13.6211,13.7187,13.8203,13.8789,13.8906,13.8906,13.8906,13.8906,13.8906,13.8906,13.9218,13.9297,13.8906,14.039,14.1484,14.1484,14.3007,14.3984,14.3984,14.3984,14.3984,14.3984,14.3984,14.3984,14.3984,14.3984,14.3984,14.3984,14.3984,14.3984,14.3984,14.3984,14.3984,14.3984,14.3984,14.4218,14.4492,14.5,14.5586]}]]